[[{"header":{"parameterUnit":"m.s-1","parameterCategory":1,"la1":30.6,"la2":29.2853,"lo1":-89.7004,"lo2":-87.6739,"dy":0.0162,"dx":0.0183,"nx":112,"ny":82,"refTime":"2023-05-17T12:00:00:Z","depth":0,"parameterNumber":2,"parameterNumberName":"U-component_of_WINDS"},"data":[0.0,0.0,0.0,0.0,0.0,0.0,0.0,0.0,0.0,0.0,0.0,0.0,0.0,0.0,0.0,0.0,0.0,0.0,0.0,0.0,0.0,0.0,0.0,0.0,0.0,0.0,0.0,0.0,0.0,0.0,0.0,0.0,0.0,0.0,0.0,0.0,0.0,0.0,0.0,0.0,0.0,0.0,0.0,0.0,0.0,0.0,0.0,0.0,0.0,0.0,0.0,0.0,0.0,0.0,0.0,0.0,0.0,0.0,0.0,0.0,0.0,0.0,0.0,0.0,0.0,0.0,0.0,0.0,0.0,0.0,0.0,0.0,0.0,0.0,0.0,0.0,0.0,0.0,0.0,0.0,0.0,0.0,0.0,0.0,0.0,0.0,0.0,0.0,0.0,0.0,-0.2643,-0.3846,-0.486,-0.5527,-0.5876,-0.5856,-0.6115,-0.6758,0.0,0.0,0.0,0.0,0.0,0.0,0.0,0.0,0.0,0.0,0.0,0.0,0.0,0.0,0.0,0.0,0.0,0.0,0.0,0.0,0.0,0.0,0.0,0.0,0.0,0.0,0.0,0.0,0.0,0.0,0.0,0.0,0.0,0.0,0.0,0.0,0.0,0.0,0.0,0.0,0.0,0.0,0.0,0.0,0.0,0.0,0.0,0.0,0.0,0.0,0.0,0.0,0.0,0.0,0.0,0.0,0.0,0.0,0.0,0.0,0.0,0.0,0.0,0.0,0.0,0.0,0.0,0.0,0.0,0.0,0.0,0.0,0.0,0.0,0.0,0.0,0.0,0.0,0.0,0.0,0.0,0.0,0.0,0.0,0.0,0.0,0.0,0.0,0.0,0.0,0.0,0.0,0.0,0.0,0.0,0.0,0.0,0.0,0.0,0.0,0.0,0.0,0.0,0.0,-0.3092,-0.4714,-0.5293,-0.5754,-0.6241,-0.6164,-0.6568,-0.7706,0.0,0.0,0.0,0.0,0.0,0.0,0.0,0.0,0.0,0.0,0.0,0.0,0.0,0.0,0.0,0.0,0.0,0.0,0.0,0.0,0.0,0.0,0.0,0.0,0.0,0.0,0.0,0.0,0.0,0.0,0.0,0.0,0.0,0.0,0.0,0.0,0.0,0.0,0.0,0.0,0.0,0.0,0.0,0.0,0.0,0.0,0.0,0.0,0.0,0.0,0.0,0.0,0.0,0.0,0.0,0.0,0.0,0.0,0.0,0.0,0.0,0.0,0.0,0.0,0.0,0.0,0.0,0.0,0.0,0.0,0.0,0.0,0.0,0.0,0.0,0.0,0.0,0.0,0.0,0.0,0.0,0.0,0.0,0.0,0.0,0.0,0.0,0.0,0.0,0.0,0.0,0.0,0.0,0.0,0.0,0.0,0.0,0.0,0.0,0.0,0.0,0.0,0.0,-0.3144,-0.4189,-0.5432,-0.5752,-0.6121,-0.6535,-0.6555,-0.6878,-0.7618,-0.8324,0.0,0.0,0.0,0.0,0.0,0.0,0.0,0.0,0.0,0.0,0.0,0.0,0.0,0.0,0.0,0.0,0.0,0.0,0.0,0.0,0.0,0.0,0.0,0.0,0.0,0.0,0.0,0.0,0.0,0.0,0.0,0.0,0.0,0.0,0.0,0.0,0.0,0.0,0.0,0.0,0.0,0.0,0.0,0.0,0.0,0.0,0.0,0.0,0.0,0.0,0.0,0.0,0.0,0.0,0.0,0.0,0.0,0.0,0.0,0.0,0.0,0.0,0.0,0.0,0.0,0.0,0.0,0.0,0.0,0.0,0.0,0.0,0.0,0.0,0.0,0.0,0.0,0.0,0.0,0.0,0.0,0.0,0.0,0.0,0.0,0.0,0.0,0.0,0.0,0.0,0.0,0.0,0.0,0.0,0.0,0.0,0.0,0.0,0.0,0.0,0.0,0.0,-0.4282,-0.5143,-0.5905,-0.6152,-0.642,-0.6858,-0.6952,-0.7191,-0.772,-0.8769,0.0,0.0,0.0,0.0,0.0,0.0,0.0,0.0,0.0,0.0,0.0,0.0,0.0,0.0,0.0,0.0,0.0,0.0,0.0,0.0,0.0,0.0,0.0,0.0,0.0,0.0,0.0,0.0,0.0,0.0,0.0,0.0,0.0,0.0,0.0,0.0,0.0,0.0,0.0,0.0,0.0,0.0,0.0,0.0,0.0,0.0,0.0,0.0,0.0,0.0,0.0,0.0,0.0,0.0,0.0,0.0,0.0,0.0,0.0,0.0,0.0,0.0,0.0,0.0,0.0,0.0,0.0,0.0,0.0,0.0,0.0,0.0,0.0,0.0,0.0,0.0,0.0,0.0,0.0,0.0,0.0,0.0,0.0,0.0,0.0,0.0,0.0,0.0,0.0,0.0,0.0,0.0,0.0,0.0,0.0,0.0,0.0,0.0,0.0,0.0,0.0,0.0,-0.4659,-0.5639,-0.6314,-0.635,-0.6675,-0.7372,-0.7264,-0.7671,-0.8826,-0.9246,0.0,0.0,0.0,0.0,0.0,0.0,0.0,0.0,0.0,0.0,0.0,0.0,0.0,0.0,0.0,0.0,0.0,0.0,0.0,0.0,0.0,0.0,0.0,0.0,0.0,0.0,0.0,0.0,0.0,0.0,0.0,0.0,0.0,0.0,0.0,0.0,0.0,0.0,0.0,0.0,0.0,0.0,0.0,0.0,0.0,0.0,0.0,0.0,0.0,0.0,0.0,0.0,0.0,0.0,0.0,0.0,0.0,0.0,0.0,0.0,0.0,0.0,0.0,0.0,0.0,0.0,0.0,0.0,0.0,0.0,0.0,0.0,0.0,0.0,0.0,0.0,0.0,0.0,0.0,0.0,0.0,0.0,0.0,0.0,0.0,0.0,0.0,0.0,0.0,0.0,0.0,0.0,0.0,0.0,0.0,0.0,0.0,0.0,0.0,0.0,0.0,0.0,-0.5019,-0.5894,-0.6645,-0.6811,-0.7134,-0.7787,-0.7825,-0.822,-0.9155,0.0,0.0,0.0,0.0,0.0,0.0,0.0,0.0,0.0,0.0,0.0,0.0,0.0,0.0,0.0,0.0,0.0,0.0,0.0,0.0,0.0,0.0,0.0,0.0,0.0,0.0,0.0,0.0,0.0,0.0,0.0,0.0,0.0,0.0,0.0,0.0,0.0,0.0,0.0,0.0,0.0,0.0,0.0,0.0,0.0,0.0,0.0,0.0,0.0,0.0,0.0,0.0,0.0,0.0,0.0,0.0,0.0,0.0,0.0,0.0,0.0,0.0,0.0,0.0,0.0,0.0,0.0,0.0,0.0,0.0,0.0,0.0,0.0,0.0,0.0,0.0,0.0,0.0,0.0,0.0,0.0,0.0,0.0,0.0,0.0,0.0,0.0,0.0,0.0,0.0,0.0,0.0,0.0,0.0,0.0,0.0,0.0,0.0,0.0,0.0,0.0,0.0,-0.4487,-0.5277,-0.6141,-0.6972,-0.7269,-0.7567,-0.8009,-0.8255,-0.8736,-0.9502,0.0,0.0,0.0,0.0,0.0,0.0,0.0,0.0,0.0,0.0,0.0,0.0,0.0,0.0,0.0,0.0,0.0,0.0,0.0,0.0,0.0,0.0,0.0,0.0,0.0,0.0,0.0,0.0,0.0,0.0,0.0,0.0,0.0,0.0,0.0,0.0,0.0,0.0,0.0,0.0,0.0,0.0,0.0,0.0,0.0,0.0,0.0,0.0,0.0,0.0,0.0,0.0,0.0,0.0,0.0,0.0,0.0,0.0,0.0,0.0,0.0,0.0,0.0,0.0,0.0,0.0,0.0,0.0,0.0,0.0,0.0,0.0,0.0,0.0,0.0,0.0,0.0,0.0,0.0,0.0,0.0,0.0,0.0,0.0,0.0,0.0,0.0,0.0,0.0,0.0,0.0,0.0,0.0,0.0,0.0,0.0,0.0,0.0,0.0,0.0,0.0,0.0,-0.4455,-0.5434,-0.6464,-0.7367,-0.7591,-0.7832,-0.8105,-0.8516,-0.9135,0.0,0.0,0.0,0.0,0.0,0.0,0.0,0.0,0.0,0.0,0.0,0.0,0.0,0.0,0.0,0.0,0.0,0.0,0.0,0.0,0.0,0.0,0.0,0.0,0.0,0.0,0.0,0.0,0.0,0.0,0.0,0.0,0.0,0.0,0.0,0.0,0.0,0.0,0.0,0.0,0.0,0.0,0.0,0.0,0.0,0.0,0.0,0.0,0.0,0.0,0.0,0.0,0.0,0.0,0.0,0.0,0.0,0.0,0.0,0.0,0.0,0.0,0.0,0.0,0.0,0.0,0.0,0.0,0.0,0.0,0.0,0.0,0.0,0.0,0.0,0.0,0.0,0.0,0.0,0.0,0.0,0.0,0.0,0.0,0.0,0.0,0.0,0.0,0.0,0.0,0.0,0.0,0.0,0.0,0.0,0.0,0.0,0.0,0.0,0.0,0.0,0.0,0.0,-0.4274,-0.5613,-0.6737,-0.7239,-0.7896,-0.8355,-0.8601,-0.8908,-0.9383,-0.9807,0.0,0.0,0.0,0.0,0.0,0.0,0.0,0.0,0.0,0.0,0.0,0.0,0.0,0.0,0.0,0.0,0.0,0.0,0.0,0.0,0.0,0.0,0.0,0.0,0.0,0.0,0.0,0.0,0.0,0.0,0.0,0.0,0.0,0.0,0.0,0.0,0.0,0.0,0.0,0.0,0.0,0.0,0.0,0.0,0.0,0.0,0.0,0.0,0.0,0.0,0.0,0.0,0.0,0.0,0.0,0.0,0.0,0.0,0.0,0.0,0.0,0.0,0.0,0.0,0.0,0.0,0.0,0.0,0.0,0.0,0.0,0.0,0.0,0.0,0.0,0.0,0.0,0.0,0.0,0.0,0.0,0.0,0.0,0.0,0.0,0.0,0.0,0.0,0.0,0.0,0.0,0.0,0.0,0.0,0.0,0.0,0.0,0.0,0.0,0.0,0.0,0.0,-0.4352,-0.5775,-0.6953,-0.7472,-0.8233,-0.879,-0.888,-0.9285,-0.9562,-0.9781,0.0,0.0,0.0,0.0,0.0,0.0,0.0,0.0,0.0,0.0,0.0,0.0,0.0,0.0,0.0,0.0,0.0,0.0,0.0,0.0,0.0,0.0,0.0,0.0,0.0,0.0,0.0,0.0,0.0,0.0,0.0,0.0,0.0,0.0,0.0,0.0,0.0,0.0,0.0,0.0,0.0,0.0,0.0,0.0,0.0,0.0,0.0,0.0,0.0,0.0,0.0,0.0,0.0,0.0,0.0,0.0,0.0,0.0,0.0,0.0,0.0,0.0,0.0,0.0,0.0,0.0,0.0,0.0,0.0,0.0,0.0,0.0,0.0,0.0,0.0,0.0,0.0,0.0,0.0,0.0,0.0,0.0,0.0,0.0,0.0,0.0,0.0,0.0,0.0,0.0,0.0,0.0,0.0,0.0,0.0,0.0,0.0,0.0,0.0,0.0,0.0,0.0,-0.4515,-0.5974,-0.7186,-0.7887,-0.8619,-0.9053,-0.9124,-0.9523,-0.9768,-0.9838,0.0,0.0,0.0,0.0,0.0,0.0,0.0,0.0,0.0,0.0,0.0,0.0,0.0,0.0,0.0,0.0,0.0,0.0,0.0,0.0,0.0,0.0,0.0,0.0,0.0,0.0,0.0,0.0,0.0,0.0,0.0,0.0,0.0,0.0,0.0,0.0,0.0,0.0,0.0,0.0,0.0,0.0,0.0,0.0,0.0,0.0,0.0,0.0,0.0,0.0,0.0,0.0,0.0,0.0,0.0,0.0,0.0,0.0,0.0,0.0,-0.8056,-0.7564,0.0,0.0,0.0,0.0,0.0,0.0,0.0,0.0,0.0,0.0,0.0,0.0,0.0,0.0,0.0,0.0,0.0,0.0,0.0,0.0,0.0,0.0,0.0,0.0,0.0,0.0,0.0,0.0,0.0,0.0,0.0,0.0,0.0,0.0,0.0,0.0,0.0,0.0,0.0,0.0,-0.4451,-0.6037,-0.7265,-0.7734,-0.8515,-0.9122,-0.9376,-0.9238,-0.9424,-0.9938,-0.9703,0.0,0.0,0.0,0.0,0.0,0.0,0.0,0.0,0.0,0.0,0.0,0.0,0.0,0.0,0.0,0.0,0.0,0.0,0.0,0.0,0.0,0.0,0.0,0.0,0.0,0.0,0.0,0.0,0.0,0.0,0.0,0.0,0.0,0.0,0.0,0.0,0.0,0.0,0.0,0.0,0.0,0.0,0.0,0.0,0.0,0.0,0.0,0.0,0.0,0.0,0.0,0.0,0.0,0.0,0.0,0.0,0.0,0.0,0.0,-0.9254,-0.8735,0.0,0.0,0.0,0.0,0.0,0.0,0.0,0.0,0.0,0.0,0.0,0.0,0.0,0.0,0.0,0.0,0.0,0.0,0.0,0.0,0.0,0.0,0.0,0.0,0.0,0.0,0.0,0.0,0.0,0.0,0.0,0.0,0.0,0.0,0.0,0.0,0.0,0.0,0.0,0.0,-0.4869,-0.6438,-0.7673,-0.8202,-0.8809,-0.9338,-0.9716,-0.9536,-0.9536,-0.9862,-0.9718,0.0,0.0,0.0,0.0,0.0,0.0,0.0,0.0,0.0,0.0,0.0,0.0,0.0,0.0,0.0,0.0,0.0,0.0,0.0,0.0,0.0,0.0,0.0,0.0,0.0,0.0,0.0,0.0,0.0,0.0,0.0,0.0,0.0,0.0,0.0,0.0,0.0,0.0,0.0,0.0,0.0,0.0,0.0,0.0,0.0,0.0,0.0,0.0,0.0,0.0,0.0,0.0,0.0,-0.9823,-1.0211,-1.0371,-1.0616,-1.0468,-1.0008,-1.0155,-0.9735,-0.8936,-0.8822,0.0,0.0,0.0,0.0,0.0,0.0,0.0,0.0,0.0,0.0,0.0,0.0,0.0,0.0,0.0,0.0,0.0,0.0,0.0,0.0,0.0,0.0,-0.8182,-0.8765,-0.9018,-0.8826,-0.7324,0.0,0.0,0.0,0.0,0.0,0.0,0.0,0.0,0.0,0.0,0.0,-0.5563,-0.6836,-0.7992,-0.8761,-0.911,-0.9402,-0.9856,-0.9734,-0.967,-0.9734,-0.9798,-0.9876,0.0,0.0,0.0,0.0,0.0,0.0,0.0,0.0,0.0,0.0,0.0,0.0,0.0,0.0,0.0,0.0,0.0,0.0,0.0,0.0,0.0,0.0,0.0,0.0,0.0,0.0,0.0,0.0,0.0,0.0,0.0,0.0,-0.4667,-0.4922,0.0,0.0,0.0,0.0,0.0,0.0,0.0,0.0,0.0,0.0,0.0,0.0,0.0,-0.7748,-0.8916,-0.9055,-0.9515,-1.0333,-1.023,-1.03,-1.0517,-1.035,-1.0368,-1.0464,-1.0186,0.0,-0.9446,-0.8862,0.0,0.0,0.0,0.0,0.0,0.0,0.0,0.0,0.0,0.0,0.0,0.0,0.0,0.0,0.0,0.0,0.0,0.0,0.0,0.0,0.0,0.0,-0.8913,-0.911,-0.9175,-0.8995,-0.8386,-0.7463,-0.669,-0.6195,-0.5511,-0.4713,0.0,0.0,0.0,0.0,0.0,0.0,-0.6208,-0.7122,-0.8058,-0.8986,-0.9017,-0.9204,-0.9524,-0.9274,-0.921,-0.9338,-0.9402,-0.9448,-0.9533,-0.9709,0.0,0.0,0.0,0.0,0.0,0.0,0.0,0.0,0.0,0.0,0.0,0.0,0.0,0.0,0.0,0.0,0.0,0.0,0.0,0.0,0.0,0.0,0.0,0.0,0.0,0.0,0.0,0.0,0.0,-0.405,-0.5404,-0.6365,-0.6186,-0.5864,0.0,0.0,0.0,0.0,0.0,0.0,0.0,0.0,0.0,-0.7411,-0.8259,-0.8883,-0.9207,-0.9652,-0.9979,-1.0171,-1.0376,-1.0403,-1.0243,-0.9986,-0.9775,-0.9602,-0.9161,-0.8983,-0.8985,-0.8875,-0.8613,-0.8237,0.0,0.0,0.0,0.0,-0.7279,-0.7675,-0.7979,-0.8182,-0.8422,-0.8422,0.0,0.0,0.0,0.0,0.0,0.0,0.0,-0.7893,-0.8294,-0.864,-0.8895,-0.8647,-0.8493,-0.8369,-0.8182,-0.743,-0.6752,-0.673,-0.625,-0.5612,-0.4968,-0.4891,0.0,0.0,0.0,-0.6136,-0.6634,-0.7616,-0.8465,-0.9108,-0.9108,-0.9156,-0.9348,-0.9162,-0.9017,-0.9022,-0.9087,-0.9145,-0.9081,-0.9221,-0.8976,0.0,0.0,0.0,0.0,0.0,0.0,0.0,0.0,0.0,0.0,0.0,0.0,0.0,0.0,0.0,0.0,0.0,0.0,0.0,0.0,0.0,0.0,0.0,0.0,0.0,0.0,0.0,0.0,-0.4985,-0.6137,-0.7621,-0.7615,-0.7532,0.0,0.0,0.0,0.0,0.0,0.0,-0.7211,-0.8105,-0.8551,-0.8563,-0.9257,-0.9602,-0.9403,-0.9814,-1.0005,-0.9894,-1.0096,-1.0086,-0.9781,-0.9481,-0.9125,-0.8732,-0.8201,-0.8109,-0.836,-0.8574,-0.8442,-0.8054,-0.7675,-0.7464,-0.7293,-0.7377,-0.7671,-0.8197,-0.8404,-0.8681,-0.8972,-0.8972,-0.8826,-0.8555,-0.8082,0.0,0.0,0.0,0.0,-0.8384,-0.8594,-0.8651,-0.8602,-0.8092,-0.7846,-0.7552,-0.7426,-0.6973,-0.6623,-0.6943,-0.6662,-0.6172,-0.566,-0.5557,0.0,-0.523,-0.586,-0.6565,-0.6961,-0.7915,-0.8674,-0.9004,-0.8959,-0.8918,-0.9052,-0.8963,-0.8765,-0.8511,-0.8765,-0.8765,-0.8511,-0.8576,-0.8403,-0.7984,0.0,0.0,0.0,0.0,0.0,0.0,0.0,0.0,0.0,0.0,0.0,0.0,0.0,0.0,0.0,0.0,0.0,0.0,0.0,0.0,0.0,0.0,0.0,0.0,0.0,0.0,0.0,0.0,0.0,-0.8597,-0.9023,0.0,0.0,0.0,0.0,-0.7783,-0.8425,-0.8959,-0.9135,-0.978,-0.9943,-0.9552,-0.9562,-0.9586,-0.9545,-0.9386,-0.9487,-1.0024,-0.9429,-0.925,-0.9354,-0.8731,-0.8356,-0.8201,-0.7757,-0.7577,-0.7577,-0.7841,-0.8009,-0.8173,-0.7994,-0.7906,-0.7834,-0.7986,-0.8227,-0.843,-0.8586,-0.8745,-0.9039,-0.9039,-0.8812,-0.8627,-0.8786,-0.853,0.0,0.0,-0.8923,-0.8887,-0.9165,-0.879,-0.8097,-0.7654,-0.7309,-0.6962,-0.634,-0.616,-0.6219,-0.6711,-0.642,-0.5776,-0.5191,0.0,-0.5298,-0.4901,-0.5702,-0.6545,-0.692,-0.7575,-0.8151,-0.8573,-0.8429,-0.831,-0.8326,-0.8454,-0.8317,-0.7797,-0.8252,-0.8317,-0.7797,-0.7922,-0.7912,-0.7697,-0.7558,0.0,0.0,0.0,0.0,0.0,0.0,0.0,0.0,0.0,0.0,0.0,0.0,0.0,0.0,0.0,0.0,0.0,0.0,0.0,0.0,0.0,0.0,0.0,0.0,0.0,0.0,0.0,0.0,-0.8852,-0.9276,0.0,-0.9966,-0.9411,-0.919,-0.9406,-0.965,-0.9746,-0.9518,-0.9876,-0.9868,-0.9456,-0.9418,-0.9258,-0.8974,-0.8924,-0.8928,-0.8995,-0.881,-0.8674,-0.8532,-0.8044,-0.7667,-0.7513,-0.7054,-0.6976,-0.7056,-0.7242,-0.7472,-0.7649,-0.7382,-0.7535,-0.7887,-0.7475,-0.7795,-0.8351,-0.8314,-0.8426,-0.8524,-0.8524,-0.8536,-0.8619,-0.871,-0.8458,-0.8316,-0.8845,-0.8722,-0.8495,-0.8496,-0.8101,-0.7577,-0.6959,-0.6517,-0.6163,-0.5899,-0.5633,-0.5486,-0.5709,-0.5707,-0.5607,-0.5416,-0.5681,-0.5767,-0.5529,-0.6198,-0.6849,-0.7064,-0.7588,-0.7988,-0.8214,-0.8189,-0.8108,-0.812,-0.8059,-0.7819,-0.7413,-0.7648,-0.7598,-0.7081,-0.72,-0.7145,-0.6757,-0.6493,-0.6042,0.0,0.0,0.0,0.0,0.0,0.0,0.0,0.0,0.0,0.0,0.0,0.0,0.0,0.0,0.0,0.0,0.0,0.0,0.0,0.0,0.0,0.0,0.0,0.0,0.0,-0.7213,-0.8534,-0.92,-0.968,-1.0187,-1.061,-1.0193,-1.0052,-1.0288,-1.0223,-1.0018,-0.9611,-0.9634,-0.9492,-0.9068,-0.8839,-0.8548,-0.8193,-0.8278,-0.8276,-0.8189,-0.8311,-0.82,-0.7966,-0.7553,-0.7168,-0.702,-0.6554,-0.6476,-0.6646,-0.6701,-0.6963,-0.714,-0.7047,-0.7158,-0.7409,-0.6945,-0.7152,-0.7805,-0.7911,-0.7977,-0.802,-0.8119,-0.8178,-0.832,-0.832,-0.8124,-0.8022,-0.8408,-0.8276,-0.7948,-0.7777,-0.7545,-0.7095,-0.6421,-0.5961,-0.5594,-0.5285,-0.501,-0.4893,-0.4875,-0.5117,-0.5294,-0.5425,-0.56,-0.5773,-0.5874,-0.6322,-0.6695,-0.6957,-0.7326,-0.7557,-0.7714,-0.7693,-0.7574,-0.7531,-0.7413,-0.7188,-0.6858,-0.709,-0.7008,-0.644,-0.6553,-0.6433,-0.5938,-0.5713,-0.551,-0.5318,0.0,0.0,0.0,0.0,0.0,0.0,0.0,0.0,0.0,0.0,0.0,0.0,0.0,0.0,0.0,0.0,0.0,0.0,0.0,0.0,0.0,0.0,0.0,-0.6758,-0.8303,-0.9585,-0.9607,-1.037,-1.086,-1.0901,-1.0288,-0.9994,-1.0238,-1.004,-0.9822,-0.9569,-0.9416,-0.9078,-0.8548,-0.7841,-0.7492,-0.7496,-0.7389,-0.7468,-0.7654,-0.7767,-0.7644,-0.7426,-0.718,-0.6879,-0.6759,-0.6186,-0.6183,-0.6384,-0.6316,-0.6463,-0.6731,-0.6945,-0.6841,-0.6563,-0.6382,-0.6474,-0.6786,-0.7244,-0.7521,-0.763,-0.7839,-0.7841,-0.7818,-0.7818,-0.7617,-0.7503,-0.751,-0.75,-0.7392,-0.7111,-0.6926,-0.6614,-0.6023,-0.5723,-0.5329,-0.4501,-0.4482,-0.4541,-0.4183,-0.4515,-0.4915,-0.4977,-0.504,-0.5245,-0.5687,-0.5993,0.0,-0.6507,-0.6714,-0.6865,-0.6865,-0.6874,-0.6784,-0.6614,-0.6627,-0.6473,-0.6089,-0.6467,-0.6448,-0.5904,-0.6063,-0.595,-0.5415,-0.543,-0.5468,-0.5472,0.0,0.0,0.0,0.0,0.0,0.0,0.0,0.0,0.0,0.0,0.0,0.0,0.0,0.0,0.0,0.0,0.0,0.0,0.0,0.0,0.0,-0.6709,-0.7771,-0.8034,-0.9195,-1.0208,-1.0603,-1.1017,-1.1212,-1.0913,-1.0768,-1.0466,-1.0108,-1.0005,-0.9693,-0.9096,-0.8877,-0.846,-0.7841,-0.7404,-0.7009,-0.6569,-0.6617,-0.6735,-0.6926,-0.7003,-0.6976,-0.7033,-0.6875,-0.6683,-0.653,-0.6055,-0.6066,-0.6432,-0.6287,-0.6412,-0.6473,-0.6707,-0.6891,-0.6964,-0.6489,-0.6512,-0.6792,-0.6764,-0.7006,-0.7335,-0.7141,-0.7214,-0.7381,-0.7381,-0.7118,-0.6762,-0.6861,-0.6494,-0.6028,-0.6026,-0.5953,-0.5755,-0.545,-0.5354,-0.5163,-0.4771,-0.4529,-0.438,-0.4267,-0.4301,-0.4488,-0.4893,-0.5357,-0.5678,-0.5624,-0.5752,-0.5863,-0.5886,-0.5944,-0.6099,-0.6412,-0.6451,-0.6468,-0.6622,-0.6506,-0.6343,-0.5986,-0.6077,-0.6004,-0.5704,-0.586,-0.5743,-0.5266,-0.5051,-0.5065,0.0,0.0,0.0,0.0,0.0,0.0,0.0,0.0,0.0,0.0,0.0,0.0,0.0,0.0,0.0,0.0,0.0,0.0,0.0,0.0,0.0,0.0,-0.7153,-0.8159,-0.8834,-0.9694,-1.0359,-1.0421,-1.0747,-1.0847,-1.053,-1.0264,-1.0064,-0.9763,-0.9428,-0.9078,-0.8644,-0.8201,-0.7665,-0.7048,-0.6665,-0.6192,-0.5713,-0.5881,-0.6192,-0.646,-0.6508,-0.6671,-0.6842,-0.6665,-0.6473,-0.6234,-0.5872,-0.5877,-0.6032,-0.5874,-0.5983,-0.6226,0.0,0.0,0.0,0.0,-0.5974,-0.6069,-0.6069,-0.6197,-0.6537,-0.6339,-0.6439,-0.6537,-0.6537,-0.6339,-0.6147,-0.6216,-0.5896,-0.5477,-0.5541,-0.5556,-0.5446,-0.5216,-0.508,-0.4944,-0.4447,-0.4186,-0.4032,-0.3853,-0.4082,0.0,-0.4672,-0.5067,-0.5426,-0.5536,-0.5513,-0.5528,-0.5584,-0.5448,-0.5538,-0.5957,-0.6025,-0.601,-0.6068,-0.5997,0.0,0.0,0.0,-0.5678,-0.5642,-0.5601,0.0,0.0,0.0,-0.5297,-0.5686,-0.588,0.0,0.0,-0.722,-0.7807,0.0,0.0,0.0,0.0,0.0,0.0,0.0,0.0,0.0,0.0,0.0,0.0,0.0,0.0,0.0,0.0,-0.7411,-0.8351,-0.9018,-0.9808,-1.0181,-0.9661,-0.9865,-1.002,-0.9841,-0.9391,-0.9158,-0.9157,-0.8552,-0.8109,-0.8109,-0.7422,0.0,0.0,0.0,-0.5381,-0.5018,-0.5394,-0.5689,-0.6192,-0.6275,-0.6426,-0.6742,-0.6426,-0.6226,-0.5942,-0.5639,-0.5536,-0.5536,-0.5338,-0.5541,-0.6032,-0.6423,-0.6282,-0.5781,-0.5396,-0.5229,-0.5207,-0.5405,0.0,0.0,-0.5536,-0.5534,-0.5534,-0.5534,-0.5527,-0.542,-0.542,-0.5411,-0.5402,-0.5402,-0.5411,-0.5298,-0.5014,-0.4929,-0.4653,-0.3916,-0.3837,-0.3778,-0.3318,-0.3764,-0.421,-0.43,-0.4599,-0.4987,-0.5479,-0.5299,-0.5128,-0.5457,-0.5269,-0.5206,-0.5494,-0.5559,0.0,-0.5442,-0.5281,-0.5142,-0.4989,-0.5178,-0.5417,-0.5605,-0.5341,-0.5265,-0.5506,-0.5619,-0.5824,-0.6113,-0.6477,-0.6753,-0.7068,-0.7526,-0.8233,0.0,0.0,0.0,0.0,0.0,0.0,0.0,0.0,0.0,0.0,0.0,0.0,0.0,0.0,0.0,-0.5875,-0.7005,-0.7872,-0.7745,-0.864,-0.935,-0.9579,-0.9537,-0.9346,-0.9135,-0.8987,-0.8769,-0.846,-0.8113,-0.7672,-0.7316,-0.6895,-0.6415,-0.5689,-0.5611,-0.5337,-0.4751,-0.5273,-0.5433,-0.5411,-0.5546,0.0,-0.6139,-0.5852,-0.576,-0.5942,-0.5441,-0.5438,-0.5536,-0.5338,-0.5438,-0.5734,-0.6016,-0.5907,-0.5603,-0.5289,-0.5293,-0.5406,-0.5109,-0.5122,-0.5238,-0.5035,-0.4935,-0.4935,-0.4935,-0.4785,0.0,-0.4532,-0.4192,-0.3854,-0.4048,-0.419,-0.4232,-0.4119,-0.43,-0.4266,-0.3903,-0.3733,-0.3662,-0.3509,-0.3676,-0.3853,-0.421,-0.4802,-0.519,-0.5016,-0.5009,-0.5069,-0.4934,-0.4854,-0.4959,-0.5323,-0.5321,-0.5348,-0.5367,-0.5384,-0.5249,-0.5011,-0.4934,-0.4985,-0.518,-0.515,-0.5202,-0.5404,-0.5552,-0.5629,-0.5701,-0.5939,-0.609,-0.6152,-0.7093,-0.7807,0.0,0.0,0.0,0.0,0.0,0.0,0.0,0.0,0.0,0.0,0.0,-0.4544,-0.5078,0.0,-0.5912,-0.613,-0.6847,-0.743,-0.7531,-0.7963,-0.8528,-0.9011,-0.9105,-0.8932,-0.8446,-0.8265,-0.7929,-0.7312,-0.7125,-0.6805,-0.6349,-0.6199,-0.5805,-0.5248,-0.5253,-0.5043,-0.451,-0.4946,-0.5191,-0.524,-0.5291,-0.5492,-0.5837,-0.5584,-0.5492,-0.5438,-0.524,-0.514,-0.5037,-0.514,-0.514,-0.5037,-0.5338,-0.5336,-0.5135,-0.4939,-0.4839,-0.4734,-0.4533,-0.4535,-0.4535,-0.4435,-0.4433,-0.4442,-0.4483,-0.434,-0.4184,-0.4225,-0.398,-0.3726,-0.3826,-0.3949,-0.3976,-0.3976,-0.4046,-0.4009,-0.3684,-0.362,-0.3465,-0.3336,-0.3394,-0.3552,-0.3732,-0.4238,-0.4712,-0.479,-0.4725,-0.4634,-0.4644,-0.4544,-0.4581,-0.4787,-0.4851,-0.4905,-0.5002,-0.511,-0.5075,-0.481,-0.48,-0.4827,-0.4957,-0.496,-0.5093,-0.5362,-0.5223,-0.5153,-0.5352,-0.5355,-0.5425,-0.5488,-0.6148,-0.6802,0.0,0.0,0.0,0.0,0.0,0.0,0.0,-0.3255,-0.3673,-0.4066,-0.4521,-0.4975,-0.5439,-0.5695,-0.596,-0.6344,-0.6561,-0.6799,-0.7127,-0.7235,-0.7496,-0.7947,-0.8295,-0.8296,-0.7651,-0.7421,-0.6959,-0.6254,-0.6111,-0.5812,-0.5346,-0.5378,-0.5258,-0.4879,-0.4973,-0.4828,-0.4436,-0.48,-0.5037,-0.524,-0.524,-0.5338,-0.5536,-0.5436,-0.5236,-0.4834,-0.5039,-0.4841,-0.4438,-0.4839,-0.4738,-0.4336,-0.4535,-0.4636,-0.4535,-0.4336,-0.4135,-0.3932,-0.3831,-0.3833,-0.3831,-0.3731,-0.3731,-0.3742,-0.3799,-0.3777,-0.3743,-0.38,-0.3775,-0.3731,-0.3731,-0.3731,-0.3731,-0.3731,-0.3687,-0.3643,-0.3338,-0.3296,-0.3252,-0.3037,-0.3087,-0.3141,-0.322,-0.3443,-0.3829,-0.4555,-0.435,-0.4189,-0.4433,-0.438,-0.4349,-0.4484,-0.4462,-0.4533,-0.4745,-0.4779,-0.4703,-0.4546,-0.4576,-0.4628,-0.4631,-0.4631,-0.4827,-0.5093,-0.4694,-0.4558,-0.4758,-0.4694,-0.4694,-0.4821,-0.5093,-0.5752,0.1552,0.0675,-0.0431,-0.095,-0.1598,-0.226,0.0,-0.3266,-0.3659,-0.4204,-0.4549,-0.4787,-0.49,-0.5082,-0.5234,-0.5259,-0.5516,-0.5713,-0.5755,-0.6117,-0.6248,-0.6016,-0.6644,-0.6976,-0.6571,-0.6337,-0.6083,-0.5549,-0.5567,-0.5354,-0.4796,-0.4786,-0.4791,-0.4692,-0.4581,-0.4724,-0.5125,-0.5331,-0.5436,-0.524,-0.5438,-0.5438,-0.524,-0.5037,-0.5035,-0.514,-0.4638,-0.4438,-0.4338,-0.4236,-0.4133,-0.4033,-0.4033,-0.3934,-0.3736,-0.3934,-0.3831,-0.3629,-0.333,-0.3331,-0.323,-0.2724,-0.2724,-0.2928,-0.2629,-0.2628,-0.2624,-0.263,-0.2626,-0.2623,-0.2623,-0.2623,-0.2623,-0.2623,-0.2719,-0.2803,-0.2461,-0.2643,-0.271,-0.2713,-0.2504,-0.2484,-0.3069,-0.2875,-0.2959,-0.3846,-0.4128,-0.4212,-0.4277,-0.4444,-0.4515,-0.4633,-0.4857,-0.4894,-0.4787,-0.458,-0.438,-0.4258,-0.4016,-0.3959,-0.4095,-0.4095,-0.4095,-0.4161,-0.4095,-0.3961,-0.3699,-0.3961,-0.4025,-0.3959,-0.4425,-0.5024,0.2232,0.1391,0.0444,-0.0513,-0.1369,-0.2131,-0.2736,-0.3064,-0.3416,-0.3836,-0.3973,-0.4095,-0.4002,-0.4124,-0.4155,-0.4294,-0.4298,-0.4394,-0.4754,-0.4854,-0.478,-0.4645,-0.5237,-0.5673,-0.5808,-0.5549,-0.5104,-0.4565,-0.4616,-0.4512,-0.4043,-0.4199,-0.4386,-0.4487,-0.4618,-0.4736,-0.4937,-0.5436,-0.5436,-0.524,-0.5338,-0.5338,-0.524,-0.4937,-0.4834,-0.4937,-0.4437,-0.4236,-0.4338,-0.4135,-0.3934,-0.3734,-0.3633,-0.3331,-0.313,-0.343,-0.333,-0.3131,-0.286,-0.277,-0.2775,-0.2492,-0.2483,-0.2569,-0.2493,-0.2463,-0.2432,-0.2486,-0.2482,-0.2461,-0.2461,-0.2461,-0.2454,-0.263,-0.2623,-0.2618,-0.2598,-0.2592,-0.2572,-0.26,-0.2469,-0.2434,-0.3023,-0.2804,-0.2771,-0.3529,-0.3795,-0.3862,-0.4036,-0.4116,-0.425,-0.433,-0.4623,-0.4783,-0.467,-0.4608,-0.4427,-0.4112,-0.3986,-0.3828,-0.3696,-0.3696,-0.3696,-0.3696,-0.3493,-0.336,-0.3295,-0.3493,-0.3627,-0.3825,-0.4228,-0.4564,0.2907,0.2022,0.1036,-0.0133,-0.1146,-0.1991,-0.2485,-0.2759,-0.2965,-0.3343,-0.336,-0.3301,-0.3359,-0.3358,-0.3437,-0.3434,-0.334,-0.3413,-0.3753,-0.3762,-0.3671,-0.3673,-0.3764,-0.4032,-0.4389,-0.448,-0.4302,-0.376,-0.3908,-0.3906,-0.3431,-0.3755,-0.4135,-0.4236,-0.4535,-0.4834,-0.5035,-0.5434,-0.5536,-0.5338,-0.5338,-0.5238,-0.5039,-0.4935,-0.4734,-0.4636,-0.4234,-0.4034,-0.4137,-0.3934,-0.3633,-0.3433,-0.323,-0.2937,-0.2846,-0.2833,-0.2734,-0.2546,-0.2464,-0.2384,-0.2407,-0.2322,-0.2307,-0.2391,-0.2318,-0.2278,-0.2233,-0.2294,-0.2298,-0.228,-0.2269,-0.2274,-0.2272,-0.2433,-0.2423,-0.2322,-0.2423,-0.2411,-0.2389,-0.2442,-0.2397,-0.2445,-0.2762,-0.2615,-0.2656,-0.3222,-0.3432,-0.361,-0.3768,-0.3932,-0.4074,-0.4249,-0.4518,-0.4649,-0.4597,-0.4552,-0.4375,-0.3971,-0.3894,-0.3763,-0.3498,-0.3431,-0.3429,-0.3493,-0.3159,-0.3025,-0.3159,-0.3159,-0.3426,-0.3825,-0.4097,-0.43,0.3586,0.242,0.0985,0.0071,-0.0927,-0.1774,-0.2088,-0.2264,-0.2511,-0.2807,-0.2665,-0.2666,-0.3219,-0.3204,-0.3032,-0.2766,-0.283,-0.2804,-0.2596,-0.296,-0.3229,-0.2963,-0.2064,-0.1614,-0.1973,-0.3139,-0.3678,-0.3227,-0.3633,-0.3623,-0.3144,-0.3655,-0.4033,-0.4033,-0.4236,-0.4736,-0.5534,-0.5634,-0.5634,-0.5634,-0.5634,-0.5336,-0.4834,-0.4834,-0.4636,-0.4438,-0.4135,-0.3835,-0.3636,-0.3332,-0.323,-0.323,-0.2927,-0.2858,-0.2794,-0.2238,-0.2043,-0.2068,-0.2034,-0.2069,-0.2018,-0.1776,-0.1973,-0.2179,-0.187,-0.1641,-0.1618,-0.1619,-0.164,-0.1758,-0.1728,-0.1742,-0.1758,-0.1624,-0.1819,-0.1921,-0.1718,-0.199,-0.2244,-0.2012,-0.2067,-0.2302,-0.2435,-0.2472,-0.2523,-0.2783,-0.3216,-0.3594,-0.3848,-0.3989,-0.424,-0.4623,-0.4599,-0.4561,-0.4664,-0.4406,-0.4084,-0.3832,-0.3629,-0.3498,-0.3498,-0.3295,-0.3291,-0.3487,-0.3157,-0.3023,-0.3023,-0.3159,-0.3426,-0.3825,-0.3961,-0.4298,0.3544,0.2556,0.1474,0.0283,-0.0724,-0.1409,-0.1508,-0.1763,-0.21,-0.2196,-0.22,-0.22,-0.22,-0.16,-0.114,-0.1315,-0.1358,-0.1568,-0.2194,-0.2134,-0.1973,-0.1705,-0.1525,-0.1525,-0.1884,-0.1524,-0.1524,-0.1973,-0.2515,-0.2762,-0.2666,-0.3458,-0.4034,-0.4236,-0.4537,-0.4834,-0.5035,-0.5434,-0.5536,-0.5338,-0.5338,-0.5037,-0.4537,-0.4736,-0.4535,-0.4135,-0.4033,-0.3732,-0.3332,-0.3029,-0.2826,-0.2623,-0.2424,-0.2332,-0.2347,-0.1951,-0.1756,-0.1763,-0.1753,-0.1867,-0.1787,-0.1818,-0.1799,-0.1877,-0.1281,-0.1159,-0.1032,-0.1044,-0.1061,-0.1174,-0.1556,-0.1669,-0.168,-0.1833,-0.1819,-0.1718,-0.1819,-0.2011,-0.2082,-0.192,-0.1992,-0.2149,-0.2439,-0.241,-0.2462,-0.3072,-0.3313,-0.3549,-0.3914,-0.4074,-0.4232,-0.4321,-0.4373,-0.4341,-0.4302,-0.4048,-0.387,-0.3832,-0.3629,-0.3563,-0.3694,-0.3625,-0.3558,-0.3496,-0.3355,-0.3247,-0.3247,-0.3237,-0.3335,-0.3547,-0.3686,-0.379,0.3291,0.2559,0.1731,0.0146,-0.067,-0.1063,-0.1226,-0.1476,-0.165,-0.1572,-0.1415,-0.1335,-0.11,-0.0477,-0.0,-0.0081,-0.025,-0.0683,-0.1475,-0.1496,-0.1335,-0.1165,-0.1256,-0.1525,-0.1705,-0.0542,-0.0272,-0.1541,-0.215,-0.2579,-0.2884,-0.3669,-0.4236,-0.4438,-0.4636,-0.4834,-0.4937,-0.5238,-0.5338,-0.5037,-0.4836,-0.4638,-0.4236,-0.4435,-0.4234,-0.3835,-0.3732,-0.343,-0.3029,-0.2725,-0.2522,-0.2422,-0.2121,-0.2131,-0.2146,-0.1758,-0.1454,-0.135,-0.1558,-0.1565,-0.1367,-0.1389,-0.1594,-0.1684,-0.1389,-0.0846,-0.052,-0.0523,-0.053,-0.064,-0.1037,-0.1355,-0.1679,-0.1833,-0.1718,-0.1617,-0.1819,-0.19,-0.1966,-0.1918,-0.198,-0.2223,-0.2435,-0.2409,-0.263,-0.3128,-0.3255,-0.3478,-0.3777,-0.3887,-0.3989,-0.4006,-0.3991,-0.4131,-0.421,-0.4035,-0.3858,-0.382,-0.3851,-0.3787,-0.3748,-0.3851,-0.3837,-0.3632,-0.3522,-0.3436,-0.3379,-0.3139,-0.3105,-0.3279,-0.3276,-0.3301,0.2809,0.2337,0.1579,-0.0154,-0.0693,-0.0914,-0.1092,-0.1176,-0.1099,-0.0864,-0.0314,0.0079,0.0079,0.0157,0.0317,0.0729,0.0326,-0.0083,-0.0432,-0.0958,-0.1317,-0.1343,-0.1345,-0.1345,-0.1345,-0.0091,-0.0092,-0.185,-0.2263,-0.2786,-0.3715,-0.4189,-0.4338,-0.4338,-0.4636,-0.4836,-0.514,-0.514,-0.5039,-0.4734,-0.4234,-0.4033,-0.3932,-0.4033,-0.3835,-0.3534,-0.3331,-0.3029,-0.2725,-0.2524,-0.2425,-0.2325,-0.2124,-0.2046,-0.2078,-0.1768,-0.1351,-0.0935,-0.1457,-0.1262,-0.0955,-0.0731,-0.1155,-0.1592,-0.1672,-0.0936,-0.0,-0.0,-0.0,-0.0,-0.0,-0.0819,-0.1654,-0.1624,-0.1617,-0.1617,-0.1617,-0.1767,-0.191,-0.1908,-0.2216,-0.2513,-0.2513,-0.2647,-0.2851,-0.3045,-0.3142,-0.3231,-0.3465,-0.3528,-0.3604,-0.3763,-0.3681,-0.3852,-0.438,-0.4284,-0.4178,-0.3932,-0.4158,-0.4168,-0.3718,-0.3951,-0.405,-0.3907,-0.3806,-0.3591,-0.3335,-0.2965,-0.2855,-0.3072,-0.2704,-0.2807,0.2432,0.1404,0.0456,-0.0075,-0.0675,-0.0834,0.0382,0.0306,0.0077,0.0391,0.0706,0.1019,0.1255,0.1883,0.2202,0.1346,0.1224,0.1005,0.0509,0.0262,0.0089,-0.0,-0.0,-0.009,-0.0359,0.027,0.0275,-0.0944,-0.1733,-0.2325,-0.2591,-0.3367,-0.383,-0.383,-0.363,-0.3732,-0.4031,-0.4234,-0.4234,-0.4234,-0.4033,-0.3934,-0.3736,-0.3934,-0.3632,-0.3027,-0.313,-0.2827,-0.2225,-0.2151,-0.2061,-0.1856,-0.1753,-0.1774,-0.1695,-0.159,-0.1261,-0.0938,-0.1392,-0.1479,-0.1129,0.0414,0.0826,0.0617,0.021,0.0105,-0.0,-0.0,-0.0,-0.0,-0.0,-0.0205,-0.0517,-0.1116,-0.1415,-0.1617,-0.1617,-0.1883,-0.2134,-0.1913,-0.2216,-0.2513,-0.2513,-0.2647,-0.2951,-0.3277,-0.3215,-0.3142,-0.3308,-0.3565,-0.3606,-0.3295,-0.3452,-0.3628,-0.3632,-0.3548,-0.3559,-0.3819,-0.3693,-0.3768,-0.3891,-0.3989,-0.3956,-0.3853,-0.3855,-0.3728,-0.3549,-0.3503,-0.3368,-0.3083,-0.3006,-0.2859,0.2028,0.1123,0.0308,0.0303,-0.0076,-0.0151,0.0757,0.106,0.114,0.1153,0.1711,0.2195,0.2195,0.2589,0.2669,0.1805,0.1765,0.172,0.1243,0.1281,0.1225,0.0972,0.0892,0.0807,0.0628,0.1085,0.1098,0.0371,-0.0858,-0.1838,-0.2412,-0.3077,-0.3316,-0.3188,-0.3215,-0.3229,-0.3429,-0.353,-0.3632,-0.3632,-0.3632,-0.3531,-0.3433,-0.3531,-0.333,-0.2826,-0.2826,-0.2524,-0.2024,-0.1958,-0.186,-0.1645,-0.1671,-0.1684,-0.1585,-0.161,-0.1174,-0.0527,-0.0753,-0.0845,-0.0615,0.1035,0.1651,0.1538,0.1246,0.0936,0.0622,0.0103,-0.0,-0.0,-0.0,-0.0,-0.0205,-0.081,-0.1313,-0.1617,-0.1617,-0.1891,-0.2141,-0.2178,-0.2479,-0.2694,-0.2694,-0.2756,-0.2989,-0.3304,-0.3267,-0.3217,-0.3144,-0.3396,-0.3427,-0.3031,-0.3198,-0.3304,-0.3228,-0.334,-0.3521,-0.3552,-0.3734,-0.3889,-0.4149,-0.4264,-0.4239,-0.414,-0.4101,-0.3955,-0.363,-0.3483,-0.3337,-0.3137,-0.2982,-0.2923,0.186,0.1281,0.0758,0.0928,0.0916,0.0899,0.0824,0.1579,0.2112,0.1812,0.2623,0.3297,0.2982,0.2746,0.2588,0.2431,0.2358,0.2223,0.1866,0.2073,0.2119,0.156,0.1501,0.1431,0.1435,0.1824,0.1924,0.1443,0.0186,-0.1148,-0.2431,-0.2783,-0.2895,-0.2552,-0.2899,-0.3029,-0.3029,-0.3029,-0.313,-0.313,-0.313,-0.313,-0.313,-0.313,-0.3027,-0.2725,-0.2522,-0.2221,-0.1923,-0.1753,-0.1649,-0.143,-0.1582,-0.159,-0.158,-0.1406,-0.0758,-0.0,-0.0,0.0106,0.0311,0.1139,0.1449,0.1652,0.1625,0.1635,0.1444,0.0507,0.0101,-0.0,-0.0,-0.0,-0.0202,-0.0808,-0.1212,-0.1617,-0.1617,-0.1792,-0.2135,-0.2605,-0.2825,-0.2883,-0.2876,-0.2875,-0.2943,-0.306,-0.3314,-0.3293,-0.3063,-0.3147,-0.3172,-0.2927,-0.3026,-0.3061,-0.3056,-0.3448,-0.3573,-0.3343,-0.3947,-0.4346,-0.4336,-0.4573,-0.464,-0.4507,-0.439,-0.4089,-0.3682,-0.3332,-0.3226,-0.321,-0.3059,-0.3021,0.2398,0.1907,0.1543,0.1842,0.1955,0.2133,0.2485,0.2817,0.2952,0.2788,0.3238,0.3606,0.3448,0.345,0.3528,0.3528,0.3506,0.3313,0.2757,0.2733,0.2541,0.208,0.1743,0.1672,0.1702,0.162,0.1542,0.1471,0.0741,-0.0186,-0.1122,-0.1645,-0.1872,-0.1767,-0.2101,-0.2223,-0.2223,-0.2423,-0.2522,-0.2522,-0.2522,-0.2522,-0.2522,-0.2725,-0.2725,-0.2422,-0.2422,-0.2019,-0.1315,-0.165,-0.136,-0.0741,-0.0958,-0.13,-0.1657,-0.0648,-0.0108,-0.0,-0.0,0.0534,0.1243,0.051,0.0914,0.1624,0.1619,0.1621,0.1522,0.1416,0.0707,-0.0,-0.0,-0.0,-0.0202,-0.1212,-0.1516,-0.1617,-0.1617,-0.1989,-0.2414,-0.2739,-0.2918,-0.2929,-0.2882,-0.2875,-0.2959,-0.3123,-0.3123,-0.3031,-0.3194,-0.3542,-0.3494,-0.2763,-0.2947,-0.3062,-0.2902,-0.2902,-0.321,-0.3663,-0.3832,-0.4068,-0.4358,-0.4453,-0.445,-0.4426,-0.4431,-0.4356,-0.4271,-0.4199,-0.4057,-0.3921,-0.3921,-0.3795,0.3405,0.2808,0.2258,0.2475,0.2427,0.2532,0.2993,0.3177,0.3229,0.3235,0.3546,0.3763,0.3526,0.3604,0.3606,0.3452,0.3642,0.351,0.2791,0.2927,0.2899,0.2431,0.2121,0.1982,0.2026,0.1764,0.1424,0.1,0.065,0.0188,-0.0376,-0.116,-0.1579,-0.1594,-0.171,-0.1819,-0.1819,-0.202,-0.2222,-0.2222,-0.2321,-0.2422,-0.2422,-0.2623,-0.2523,-0.2222,-0.2424,-0.2122,-0.1417,-0.165,-0.1462,-0.1159,-0.1289,-0.1202,-0.0775,-0.022,0.044,0.0886,0.0989,0.1083,0.1169,0.0931,0.1222,0.1617,0.1617,0.1617,0.1617,0.1617,0.101,0.0303,0.0101,-0.0202,-0.0505,-0.1111,-0.1415,-0.1718,-0.1919,-0.2171,-0.2397,-0.3075,-0.303,-0.2995,-0.3056,-0.2963,-0.2963,-0.3138,-0.3139,-0.305,-0.3227,-0.3457,-0.3435,-0.2735,-0.287,-0.2904,-0.2516,-0.2889,-0.3236,-0.3516,-0.3834,-0.4234,-0.4629,-0.4572,-0.4543,-0.4543,-0.4599,-0.4599,-0.4384,-0.4496,-0.4603,-0.4706,-0.4706,-0.4599,0.4426,0.3759,0.3083,0.3027,0.2831,0.2725,0.316,0.3194,0.3229,0.3381,0.3621,0.3684,0.3604,0.3526,0.3526,0.3374,0.3684,0.3604,0.2823,0.3026,0.3149,0.26,0.2323,0.2206,0.2082,0.1833,0.1322,0.0627,0.0559,0.0382,-0.0096,-0.0877,-0.1384,-0.1405,-0.1513,-0.1617,-0.1617,-0.1819,-0.1921,-0.1921,-0.2121,-0.222,-0.222,-0.2423,-0.2222,-0.1819,-0.2326,-0.2224,-0.1518,-0.165,-0.1458,-0.1153,-0.1407,-0.0987,-0.0,-0.0,0.0559,0.1455,0.1763,0.1529,0.1083,0.1476,0.1651,0.1625,0.1315,0.1415,0.1617,0.1617,0.1313,0.0808,0.0202,-0.0505,-0.101,-0.101,-0.1314,-0.1814,-0.2298,-0.2346,-0.2486,-0.3208,-0.3131,-0.2977,-0.323,-0.3051,-0.2963,-0.3138,-0.3138,-0.3138,-0.3138,-0.3269,-0.3211,-0.2803,-0.2869,-0.282,-0.2396,-0.2964,-0.3416,-0.3518,-0.4009,-0.4501,-0.507,-0.4901,-0.4909,-0.5018,-0.4973,-0.4859,-0.4756,-0.4864,-0.5048,-0.5308,-0.5308,-0.5214,0.5383,0.4616,0.3881,0.3837,0.3372,0.3057,0.3285,0.3151,0.3081,0.3533,0.3621,0.3604,0.3763,0.3763,0.3919,0.4229,0.4307,0.407,0.3446,0.3534,0.3408,0.235,0.2073,0.195,0.1735,0.1592,0.1253,0.0986,0.0932,0.0577,-0.0391,-0.0589,-0.0688,-0.0886,-0.1302,-0.1617,-0.1617,-0.1617,-0.1617,-0.1617,-0.1617,-0.1718,-0.1718,-0.1718,-0.1515,-0.1212,-0.1921,-0.1819,-0.1214,-0.1546,-0.0839,0.0533,-0.0543,-0.0552,-0.0,-0.0,0.0111,0.0336,0.1432,0.1735,0.1603,0.1703,0.1681,0.155,0.0508,0.0808,0.1617,0.1617,0.1516,0.1313,0.0303,-0.0808,-0.1516,-0.1516,-0.1819,-0.2203,-0.2223,-0.2423,-0.2793,-0.319,-0.3102,-0.3116,-0.3509,-0.3232,-0.2963,-0.3138,-0.3051,-0.2963,-0.2963,-0.2959,-0.2931,-0.2781,-0.2725,-0.2772,-0.2928,-0.3017,-0.3439,-0.4268,-0.452,-0.4939,-0.5607,-0.5427,-0.5566,-0.598,-0.5453,-0.5421,-0.5911,-0.5601,-0.5505,-0.569,-0.569,-0.538,0.6175,0.5375,0.4439,0.4352,0.3789,0.3396,0.3763,0.3471,0.3169,0.3526,0.3659,0.3606,0.3452,0.3528,0.3604,0.3606,0.3845,0.3686,0.2823,0.2901,0.2753,0.1906,0.1868,0.1994,0.221,0.1738,0.1252,0.1021,0.0956,0.0783,0.01,-0.04,-0.0699,-0.0799,-0.1308,-0.1617,-0.1617,-0.1617,-0.1617,-0.1617,-0.1617,-0.1626,-0.1643,-0.1625,-0.1534,-0.1461,-0.1735,-0.1729,-0.1439,-0.1657,-0.126,-0.064,-0.043,-0.0219,-0.0,-0.0,-0.0,0.0112,0.0551,0.1207,0.1754,0.1718,0.171,0.1599,0.114,0.102,0.1114,0.1126,0.1325,0.1314,0.0303,-0.0303,-0.0808,-0.1415,-0.1921,-0.2208,-0.2244,-0.2537,-0.2806,-0.3227,-0.3125,-0.303,-0.3329,-0.3141,-0.2963,-0.3051,-0.2963,-0.2875,-0.2875,-0.2875,-0.2953,-0.3014,-0.2903,-0.2859,-0.2953,-0.3188,-0.3736,-0.4457,-0.4711,-0.4969,-0.5565,-0.558,-0.5664,-0.5894,-0.5847,-0.578,-0.5686,-0.5598,-0.5584,-0.5565,-0.5565,-0.5501,0.6708,0.5913,0.4979,0.4857,0.4235,0.379,0.4003,0.3536,0.3133,0.3341,0.337,0.3215,0.2982,0.3137,0.3215,0.0,0.3141,0.3062,0.2196,0.2038,0.1882,0.1568,0.1531,0.1734,0.2185,0.1302,0.0721,0.0942,0.1162,0.1284,0.1001,0.0201,-0.0505,-0.0909,-0.1415,-0.1718,-0.1718,-0.1617,-0.1622,-0.163,-0.1621,-0.1531,-0.1454,-0.164,-0.1442,-0.1154,-0.1137,-0.1336,-0.1548,-0.1467,-0.1483,-0.1603,-0.0863,-0.033,-0.0,-0.0,-0.0,-0.0,-0.0,0.0554,0.1331,0.1517,0.162,0.1623,0.1698,0.1354,0.1028,0.1036,0.123,0.1111,0.0202,-0.0,-0.0202,-0.1111,-0.1718,-0.2108,-0.225,-0.254,-0.2807,-0.3236,-0.3129,-0.303,-0.3239,-0.3051,-0.2963,-0.2962,-0.2963,-0.2875,-0.2875,-0.2875,-0.2963,-0.3139,-0.3051,-0.3015,-0.3183,-0.3439,-0.392,-0.4561,-0.4731,-0.5078,-0.5513,-0.5606,-0.565,-0.5732,-0.5783,-0.57,-0.5488,-0.561,-0.5646,-0.56,-0.5602,-0.5712,0.6899,0.6341,0.5557,0.537,0.4703,0.4114,0.3959,0.3249,0.2816,0.3039,0.2663,0.2275,0.2431,0.2668,0.2746,0.2511,0.2353,0.2117,0.196,0.1332,0.1019,0.1257,0.1063,0.1009,0.1348,0.0178,-0.0277,0.0648,0.1633,0.2162,0.2162,0.13,0.0202,-0.101,-0.1718,-0.2022,-0.2022,-0.1718,-0.1632,-0.1662,-0.1631,-0.1326,-0.0831,-0.1454,-0.1131,-0.0,-0.0,-0.0627,-0.1523,-0.107,-0.1191,-0.1713,-0.1772,-0.1009,-0.0,-0.0,-0.0,-0.0,-0.0,-0.0,0.011,0.0765,0.1189,0.1606,0.1631,0.1727,0.1697,0.167,0.123,0.0707,0.0101,-0.0,-0.0101,-0.0707,-0.1212,-0.17,-0.2118,-0.2421,-0.2796,-0.3177,-0.3099,-0.3122,-0.351,-0.3232,-0.2963,-0.3138,-0.3051,-0.2875,-0.2875,-0.2875,-0.2875,-0.2875,-0.305,-0.3315,-0.3585,-0.3587,-0.3944,-0.4659,-0.4921,-0.5186,-0.5719,-0.5544,-0.5455,-0.5716,-0.5085,-0.5087,-0.573,-0.5523,-0.561,-0.5719,-0.5991,-0.6011,0.6026,0.5667,0.529,0.5639,0.4859,0.3998,0.3984,0.3181,0.2594,0.2888,0.2824,0.2746,0.2904,0.3062,0.3062,0.2746,0.2514,0.2133,0.1362,0.0562,0.0161,0.0164,-0.0169,-0.0087,0.0351,-0.0,-0.0094,0.0283,0.147,0.2104,0.1803,0.1309,0.0303,-0.1415,-0.1921,-0.2123,-0.2022,-0.1718,-0.1622,-0.1631,-0.1622,-0.1541,-0.1375,-0.0825,-0.083,-0.1174,0.0105,0.0624,0.0516,-0.0215,-0.0541,-0.0642,-0.1422,-0.1111,-0.0,-0.0,-0.0,-0.0,-0.0,-0.0,0.0111,0.0659,0.1209,0.1654,0.1644,0.1608,0.1669,0.1639,0.1015,0.0202,-0.0,-0.0505,-0.101,-0.0808,-0.1615,-0.2298,-0.2213,-0.2615,-0.299,-0.2998,-0.3011,-0.3032,-0.3153,-0.2963,-0.2963,-0.2962,-0.2963,-0.2875,-0.2875,-0.2875,-0.2963,-0.305,-0.3138,-0.3227,-0.3317,-0.3587,-0.4036,-0.4661,-0.4924,-0.5188,-0.5458,-0.5544,-0.5547,-0.5468,-0.5604,-0.5606,-0.5471,-0.5601,-0.5598,-0.5544,-0.5815,-0.5927,0.429,0.477,0.4944,0.5055,0.4247,0.3501,0.3821,0.3149,0.2462,0.2398,0.2478,0.2554,0.2322,0.2245,0.2095,0.1802,0.1649,0.1346,0.0891,0.0163,-0.0329,-0.0424,-0.0777,-0.0968,-0.0634,-0.0561,-0.0383,-0.0,0.0893,0.1415,0.1617,0.0202,-0.0808,-0.1615,-0.1718,-0.192,-0.2121,-0.1819,-0.1623,-0.1634,-0.1622,-0.1643,-0.169,-0.052,-0.0417,-0.1063,0.0106,0.0947,0.0,0.0755,0.0217,-0.0108,-0.0878,-0.089,-0.0672,-0.0222,-0.0,-0.0,-0.0,-0.0,0.0112,0.0443,0.0775,0.1107,0.1525,0.17,0.1658,0.1639,0.1117,0.0505,0.0101,-0.0808,-0.1516,-0.1212,-0.1717,-0.2302,-0.2233,-0.253,-0.2803,-0.2936,-0.2935,-0.294,-0.2884,-0.2875,-0.2875,-0.2875,-0.2875,-0.2875,-0.2875,-0.2875,-0.2962,-0.3138,-0.3317,-0.3317,-0.3317,-0.3678,-0.4125,-0.448,-0.4835,-0.501,-0.5104,-0.5366,-0.528,-0.5022,-0.5374,-0.5463,-0.5287,-0.5636,-0.5813,-0.5811,-0.5911,-0.6048,0.0,0.3407,0.4426,0.3789,0.3158,0.2824,0.3439,0.2984,0.0,0.1755,0.1896,0.1819,0.1138,0.0758,0.0382,0.0156,0.0079,0.0158,0.0568,-0.0,-0.0499,-0.0608,-0.1047,-0.1418,-0.1475,-0.1414,-0.1057,-0.0098,-0.0,0.0404,0.1415,-0.1415,-0.2628,-0.1715,-0.1313,-0.1615,-0.2422,-0.1818,-0.1631,-0.1659,-0.163,-0.1633,-0.1767,-0.0528,-0.0,0.0101,0.0107,0.0749,0.1768,0.1832,0.1092,0.0109,-0.0,-0.0672,-0.157,-0.0449,-0.0,-0.0,-0.0,-0.0,-0.0,-0.0,-0.0,0.0218,0.1284,0.1684,0.1766,0.1763,0.1639,0.1212,0.0303,-0.0808,-0.1516,-0.1617,-0.1617,-0.1708,-0.2167,-0.2252,-0.2419,-0.2888,-0.2958,-0.294,-0.2884,-0.2877,-0.2879,-0.2875,-0.2875,-0.2875,-0.2875,-0.2875,-0.2963,-0.3138,-0.3408,-0.3587,-0.3587,-0.3767,-0.4036,-0.43,-0.4743,-0.4924,-0.475,-0.4835,-0.4743,-0.43,-0.4659,-0.4835,-0.5099,-0.5813,-0.6257,-0.6428,-0.6257,-0.6349,-0.054,0.0,0.2187,0.1946,0.2033,0.2184,0.0,0.1728,0.1803,0.2417,0.2178,0.1865,0.2101,0.1167,0.0702,0.1568,0.0956,0.0404,0.0162,-0.0586,-0.1383,-0.2221,-0.1336,-0.09,-0.1477,-0.1508,-0.125,-0.0588,-0.02,0.0101,0.0404,-0.0707,-0.1617,-0.2223,-0.1515,-0.1615,-0.2422,-0.1818,-0.162,-0.1627,-0.1215,-0.1224,-0.1661,-0.0514,0.0411,0.1239,0.0837,0.1039,0.1633,0.1693,0.1503,0.1182,0.0328,-0.0222,-0.0336,-0.0112,-0.0,-0.0,-0.0,-0.0,-0.0,-0.0,-0.0,-0.0,0.0315,0.1042,0.1761,0.1634,0.1014,0.0303,0.0101,-0.0505,-0.1111,-0.1516,-0.1718,-0.191,-0.1972,-0.2231,-0.2571,-0.2697,-0.2868,-0.294,-0.2884,-0.291,-0.2924,-0.288,-0.2875,-0.2875,-0.2875,-0.2875,-0.2873,-0.2963,-0.332,-0.3587,-0.3587,-0.3942,-0.421,-0.43,-0.4569,-0.4748,-0.4661,-0.4567,-0.4478,-0.4569,-0.5191,-0.563,-0.5805,-0.6163,-0.6343,-0.6428,-0.6526,-0.6792,-0.086,0.0621,0.1848,0.139,0.1793,0.2275,0.217,0.2104,0.2113,0.24,0.2238,0.2005,0.1775,0.0926,0.031,0.0705,0.0079,-0.0483,-0.0576,-0.1029,-0.1683,-0.251,-0.181,-0.1376,-0.1686,-0.1529,-0.1267,-0.0795,-0.0301,-0.0202,-0.0707,-0.101,-0.1413,-0.2019,-0.1817,-0.1918,-0.2222,-0.1818,-0.1617,-0.1617,-0.101,-0.0813,-0.082,-0.0307,0.0615,0.1539,0.1242,0.1343,0.164,0.1673,0.1809,0.1945,0.1308,0.0663,-0.0,-0.0,-0.0,-0.0,-0.0,-0.0,-0.0,-0.0,-0.0325,-0.0638,-0.0104,0.0413,0.0921,0.0912,0.0404,-0.0,-0.0,-0.0404,-0.0909,-0.1516,-0.1718,-0.181,-0.1973,-0.2127,-0.2369,-0.2603,-0.2664,-0.2818,-0.288,-0.2899,-0.2909,-0.2879,-0.2875,-0.2875,-0.2875,-0.2875,-0.2963,-0.3051,-0.3408,-0.3676,-0.3767,-0.3944,-0.421,-0.43,-0.4569,-0.4572,-0.4304,-0.4391,-0.4569,-0.4835,-0.5633,-0.6074,-0.6248,-0.6605,-0.6694,-0.6697,-0.6877,-0.7054,-0.031,0.109,0.1945,0.1217,0.1616,0.2254,0.2654,0.2686,0.2561,0.2055,0.205,0.1902,0.1142,0.0381,-0.0307,-0.0704,-0.1259,-0.1604,-0.1433,-0.1486,-0.179,-0.2253,-0.229,-0.2149,-0.2008,-0.1751,-0.1287,-0.0807,-0.0505,-0.0707,-0.1819,-0.1817,-0.1714,-0.1715,-0.2119,-0.2221,-0.1921,-0.1718,-0.1617,-0.1617,-0.1111,-0.0606,-0.0,0.0205,0.0718,0.1517,0.1541,0.1655,0.1655,0.1655,0.1902,0.2288,0.2397,0.1654,0.0449,0.0224,0.0112,-0.0,-0.0,-0.0,-0.0,-0.0,-0.0756,-0.1382,-0.052,-0.0102,-0.0,-0.0,-0.0,-0.0,-0.0,-0.0404,-0.0909,-0.1516,-0.1617,-0.1711,-0.1881,-0.1939,-0.1994,-0.2427,-0.2471,-0.2614,-0.2785,-0.2882,-0.2884,-0.2876,-0.2875,-0.2875,-0.2875,-0.2875,-0.2963,-0.3138,-0.3408,-0.3678,-0.3857,-0.3859,-0.4036,-0.421,-0.448,-0.4393,-0.3948,-0.4393,-0.4748,-0.4919,-0.5897,-0.6343,-0.6425,-0.6874,-0.7139,-0.7143,-0.7143,-0.7323,0.0221,0.0449,0.038,0.0076,0.0455,0.0832,0.1031,0.1345,0.1598,0.1821,0.1386,0.1171,0.1485,0.0312,-0.0547,-0.0235,-0.0798,-0.1654,-0.2468,-0.2642,-0.2658,-0.2939,-0.2681,-0.2444,-0.2535,-0.1961,-0.1386,-0.0807,-0.1111,-0.1819,-0.2933,-0.2726,-0.2423,-0.2122,-0.2122,-0.192,-0.1617,-0.1617,-0.1617,-0.1617,-0.1516,-0.0909,-0.0,0.0912,0.1216,0.091,0.1419,0.1624,0.1624,0.1624,0.1866,0.2246,0.2676,0.2729,0.2357,0.1234,0.0449,-0.0,-0.0,-0.0,-0.0,-0.0,-0.0749,-0.1591,-0.1436,-0.0709,-0.0,-0.0,-0.0,-0.0,-0.0,-0.0404,-0.0909,-0.1516,-0.1617,-0.1615,-0.1611,-0.1762,-0.1907,-0.1996,-0.2337,-0.2567,-0.2522,-0.2822,-0.2929,-0.2882,-0.2875,-0.2875,-0.2875,-0.2875,-0.2875,-0.2963,-0.332,-0.3587,-0.3676,-0.3767,-0.3948,-0.3946,-0.4036,-0.3948,-0.3948,-0.4212,-0.4476,-0.4739,-0.5633,-0.6254,-0.6416,-0.6871,-0.7231,-0.7415,-0.7415,-0.7676,0.0146,0.0221,-0.0148,-0.0583,-0.0367,-0.0074,-0.0073,0.0297,0.0683,0.0924,0.0623,0.0393,0.055,0.0079,-0.0709,-0.1755,-0.2119,-0.252,-0.3505,-0.3356,-0.3221,-0.3227,-0.3084,-0.295,-0.2741,-0.2378,-0.2,-0.1614,-0.1616,-0.2021,-0.293,-0.2827,-0.2523,-0.2123,-0.2022,-0.192,-0.1617,-0.1617,-0.1415,-0.1212,-0.1415,-0.101,-0.0,0.1111,0.1415,0.1212,0.1516,0.1617,0.1617,0.1718,0.2065,0.2451,0.2772,0.3159,0.3144,0.1907,0.1004,0.0443,0.0112,-0.0,-0.011,-0.0645,-0.096,-0.1272,-0.1533,-0.1212,-0.0707,-0.0202,-0.0,-0.0,-0.0,-0.0202,-0.0606,-0.1415,-0.1617,-0.1612,-0.1596,-0.1655,-0.1711,-0.1787,-0.2049,-0.2215,-0.2286,-0.2597,-0.281,-0.2786,-0.2848,-0.292,-0.292,-0.2892,-0.2875,-0.2875,-0.332,-0.3587,-0.3587,-0.3767,-0.3857,-0.3767,-0.3587,-0.3676,-0.3859,-0.4123,-0.4476,-0.483,-0.5811,-0.6343,-0.6422,-0.7054,-0.7415,-0.7507,-0.786,-0.8116,-0.0143,-0.0072,-0.0427,-0.0907,-0.0779,-0.0577,-0.0788,-0.0438,-0.0075,-0.0,-0.0078,-0.0156,-0.0471,-0.0628,-0.1346,-0.3258,-0.3325,-0.3311,-0.4008,-0.3726,-0.344,-0.3344,-0.3291,-0.3158,-0.2757,-0.2691,-0.2511,-0.2319,-0.2019,-0.212,-0.2826,-0.2724,-0.2423,-0.2121,-0.2021,-0.1819,-0.1617,-0.1617,-0.1314,-0.0808,-0.1111,-0.0808,-0.0,0.101,0.1516,0.1617,0.1617,0.1617,0.1617,0.1921,0.2271,0.2664,0.2878,0.3159,0.3366,0.2458,0.1663,0.0991,0.0556,0.0222,-0.011,-0.0967,-0.1067,-0.106,-0.1431,-0.1617,-0.1415,-0.0606,-0.0303,-0.0202,-0.0,-0.0202,-0.0505,-0.1111,-0.1314,-0.1508,-0.1578,-0.1548,-0.1519,-0.1683,-0.1764,-0.1854,-0.2049,-0.2359,-0.2572,-0.2571,-0.2821,-0.2978,-0.298,-0.2941,-0.2916,-0.2916,-0.3278,-0.3542,-0.3616,-0.3688,-0.3678,-0.3497,-0.3422,-0.3515,-0.3948,-0.4121,-0.4476,-0.5099,-0.5899,-0.6428,-0.6602,-0.7234,-0.7591,-0.7683,-0.8162,-0.8442,-0.0545,-0.0609,-0.1017,-0.0877,-0.062,-0.0558,-0.0953,-0.0898,-0.0781,-0.0802,-0.0598,-0.0535,-0.1095,-0.2042,-0.2867,-0.3328,-0.3357,-0.3496,-0.3826,-0.3494,-0.3276,-0.3408,-0.3184,-0.2938,-0.2804,-0.2481,-0.2376,-0.262,-0.2422,-0.2624,-0.313,-0.2724,-0.2422,-0.2422,-0.1919,-0.1617,-0.1617,-0.1617,-0.1314,-0.0808,-0.0303,-0.0101,-0.0,0.0606,0.1111,0.1617,0.1617,0.1617,0.1617,0.1921,0.2271,0.2664,0.2878,0.3048,0.3132,0.2866,0.2323,0.1676,0.1541,0.0885,-0.0,-0.0108,-0.0747,-0.159,-0.1635,-0.1617,-0.1617,-0.1516,-0.1111,-0.0606,-0.0101,-0.0707,-0.1212,-0.0303,-0.0606,-0.1206,-0.1578,-0.1548,-0.1525,-0.1523,-0.1688,-0.1862,-0.1898,-0.2096,-0.2289,-0.2572,-0.2664,-0.2756,-0.3042,-0.3134,-0.3132,-0.3132,-0.3321,-0.3485,-0.3699,-0.3445,-0.3227,-0.3227,-0.3471,-0.3842,-0.4212,-0.4028,-0.4387,-0.5371,-0.5905,-0.6432,-0.7034,-0.7319,-0.7768,-0.8113,-0.8212,-0.8565,-0.1213,-0.1022,-0.1031,-0.0675,-0.0686,0.0,-0.1453,-0.1551,-0.1513,-0.1528,-0.1432,-0.1476,-0.1802,-0.2541,-0.332,-0.3758,-0.3654,-0.364,-0.4285,-0.3855,-0.3443,-0.3356,-0.3288,-0.3153,-0.2965,-0.2887,-0.3004,-0.3229,-0.3029,-0.3027,-0.323,-0.2724,-0.2321,-0.2121,-0.1819,-0.1617,-0.1617,-0.1617,-0.1314,-0.0808,-0.0303,-0.0,-0.0,0.0505,0.1111,0.1617,0.1617,0.1617,0.1618,0.2148,0.2397,0.2669,0.3165,0.3306,0.3089,0.307,0.2709,0.214,0.1504,0.0972,0.0433,0.0106,-0.0317,-0.0742,-0.1431,-0.1617,-0.1617,-0.1617,-0.1415,-0.1212,-0.101,-0.0808,-0.0505,-0.0101,-0.0202,-0.0605,-0.1402,-0.1576,-0.1554,-0.1554,-0.1642,-0.1637,-0.1747,-0.1963,-0.2077,-0.2175,-0.2445,-0.2716,-0.2813,-0.2976,-0.3144,-0.3144,-0.3241,-0.361,-0.3959,-0.3973,-0.3942,-0.3934,-0.3638,-0.3525,-0.3855,-0.403,-0.4565,-0.5371,-0.5905,-0.6346,-0.6874,-0.7499,-0.7856,-0.8028,-0.8399,-0.8841,-0.1814,-0.1558,-0.1294,-0.0876,0.0,-0.1235,-0.1815,-0.1908,-0.1931,-0.1963,-0.205,-0.2125,-0.2298,-0.2972,-0.3607,-0.3968,-0.3953,-0.4023,-0.4645,-0.4212,-0.3794,-0.3781,-0.3537,-0.3317,-0.3129,-0.3061,-0.3189,-0.333,-0.323,-0.323,-0.3332,-0.2725,-0.2321,-0.2122,-0.1819,-0.1617,-0.1617,-0.1617,-0.1314,-0.0808,-0.0303,-0.0,-0.0,0.0505,0.1111,0.1617,0.1617,0.1622,0.1633,0.2271,0.263,0.2909,0.3437,0.3441,0.317,0.3154,0.2993,0.2618,0.2002,0.1489,0.0963,0.0209,-0.0,-0.0212,-0.1124,-0.1314,-0.1415,-0.1516,-0.1617,-0.1617,-0.1617,-0.0909,-0.0202,-0.0,-0.0101,-0.0403,-0.1003,-0.1288,-0.1473,-0.1473,-0.1473,-0.1575,-0.1584,-0.1703,-0.1921,-0.2022,-0.2297,-0.2573,-0.2573,-0.2935,-0.3106,-0.3106,-0.3283,-0.3462,-0.3941,-0.4064,-0.4131,-0.4208,-0.3777,-0.3634,-0.3857,-0.4121,-0.4656,-0.5458,-0.5991,-0.6438,-0.7061,-0.7591,-0.794,-0.8032,-0.8593,-0.9037,-0.2417,-0.2238,-0.1949,-0.1403,-0.1449,-0.1636,-0.187,-0.1923,-0.1916,-0.2022,-0.2276,-0.2529,-0.259,-0.3332,-0.3878,-0.3882,-0.4255,-0.4548,-0.4648,-0.448,-0.4422,-0.4702,-0.4087,-0.3493,-0.3024,-0.2988,-0.3003,-0.2818,-0.3029,-0.3332,-0.3636,-0.2826,-0.2422,-0.2422,-0.1919,-0.1617,-0.1617,-0.1617,-0.1314,-0.0808,-0.0303,-0.0,-0.0,0.0505,0.1111,0.1617,0.1617,0.1634,0.1766,0.2284,0.2861,0.3503,0.3564,0.3549,0.3489,0.3433,0.3305,0.3296,0.3238,0.2549,0.1413,0.0315,-0.0,-0.0106,-0.0613,-0.0808,-0.0909,-0.1415,-0.1617,-0.1617,-0.1617,-0.1212,-0.0707,-0.0101,-0.0404,-0.0603,-0.0099,-0.0884,-0.1474,-0.108,-0.1375,-0.1581,-0.1611,-0.1617,-0.1718,-0.1921,-0.2221,-0.2422,-0.2422,-0.2826,-0.323,-0.323,-0.3177,-0.3238,-0.3436,-0.3472,-0.3624,-0.3815,-0.4096,-0.4208,-0.431,-0.4302,-0.4746,-0.5722,-0.6166,-0.6789,-0.7507,-0.7768,-0.8028,-0.8201,-0.8644,-0.9181,-0.2274,-0.2237,-0.218,-0.1483,-0.1561,-0.1856,-0.1955,-0.2122,-0.2243,-0.2357,-0.2607,-0.2866,-0.2825,-0.3294,-0.3781,-0.3806,-0.3959,-0.4184,-0.4387,-0.4208,-0.4129,-0.4426,-0.4152,-0.3957,-0.3835,-0.3919,-0.3987,-0.393,-0.4036,-0.4036,-0.3934,-0.333,-0.2826,-0.2724,-0.2122,-0.1921,-0.1921,-0.1718,-0.1314,-0.0808,-0.0303,-0.0,-0.0,0.0505,0.1111,0.1617,0.1819,0.194,0.2079,0.2666,0.3165,0.3563,0.358,0.3526,0.344,0.325,0.3182,0.3185,0.2794,0.2739,0.2456,0.1031,0.0312,-0.0,-0.0204,-0.0808,-0.1314,-0.1111,-0.1314,-0.1617,-0.1617,-0.1516,-0.1111,-0.0202,-0.0101,-0.0403,-0.1003,-0.0801,-0.0701,-0.1303,-0.1503,-0.1607,-0.1615,-0.1617,-0.1617,-0.1718,-0.212,-0.2522,-0.2927,-0.313,-0.323,-0.323,-0.3214,-0.3303,-0.3504,-0.3587,-0.3752,-0.4089,-0.4082,-0.4035,-0.4214,-0.4522,-0.4954,-0.5524,-0.5779,-0.6251,-0.7048,-0.7404,-0.776,-0.8028,-0.8644,-0.927,-0.221,-0.2179,-0.2265,-0.1688,-0.1907,-0.2213,-0.2097,-0.2165,-0.2316,-0.2461,-0.2618,-0.2806,-0.2944,-0.3331,-0.365,-0.3853,-0.4001,-0.4212,-0.4565,-0.4565,-0.4578,-0.4887,-0.4691,-0.4502,-0.4418,-0.4365,-0.4332,-0.4228,-0.4207,-0.4102,-0.4031,-0.3328,-0.2826,-0.2623,-0.2122,-0.1819,-0.1819,-0.1718,-0.1415,-0.1111,0.0101,0.0606,0.0606,0.0707,0.1111,0.1618,0.1949,0.219,0.2336,0.284,0.3334,0.3701,0.3587,0.3625,0.3525,0.3368,0.328,0.3137,0.2887,0.294,0.2968,0.1532,0.0621,-0.0,-0.0,-0.0406,-0.0918,-0.0911,-0.1219,-0.1632,-0.162,-0.1617,-0.1415,-0.0808,-0.0303,-0.0202,-0.0808,-0.0808,-0.0707,-0.0909,-0.1314,-0.1617,-0.1617,-0.1617,-0.1617,-0.1617,-0.1919,-0.2423,-0.2927,-0.3029,-0.313,-0.323,-0.323,-0.323,-0.3433,-0.3534,-0.3718,-0.4168,-0.4164,-0.4241,-0.4386,-0.4744,-0.5057,-0.5543,-0.5778,-0.6245,-0.6873,-0.7255,-0.7669,-0.8028,-0.8732,-0.9407,-0.222,-0.2221,-0.2154,-0.1951,-0.2294,-0.2591,-0.2317,-0.2202,-0.2203,-0.2421,-0.2544,-0.2627,-0.3004,-0.3278,-0.3495,-0.3831,-0.4123,-0.4478,-0.501,-0.528,-0.5499,-0.5874,-0.5348,-0.4954,-0.4747,-0.4536,-0.4364,-0.4007,-0.3959,-0.3953,-0.3929,-0.3026,-0.2522,-0.2422,-0.1919,-0.1617,-0.1617,-0.1516,-0.1516,-0.1516,0.0606,0.1617,0.1617,0.1111,0.1213,0.1725,0.21,0.2476,0.2737,0.3006,0.3475,0.3924,0.3699,0.3736,0.3849,0.3585,0.3391,0.3255,0.3311,0.326,0.3075,0.1943,0.0828,-0.0,-0.0,-0.0102,-0.031,-0.0914,-0.1331,-0.1655,-0.1625,-0.1617,-0.1617,-0.1617,-0.0808,-0.0101,-0.0101,-0.0808,-0.1212,-0.0303,-0.0909,-0.1516,-0.1617,-0.1617,-0.1617,-0.1617,-0.1819,-0.2223,-0.2725,-0.2826,-0.2927,-0.313,-0.323,-0.323,-0.323,-0.3433,-0.3736,-0.4033,-0.4236,-0.4537,-0.4834,-0.4865,-0.5151,-0.5636,-0.6081,-0.648,-0.6952,-0.7341,-0.7794,-0.8224,-0.8932,-0.9538,-0.2874,-0.2488,-0.2154,-0.1951,-0.2291,-0.2594,-0.2368,-0.2515,-0.2712,-0.2811,-0.2932,-0.3026,-0.3167,-0.3446,-0.3665,-0.3914,-0.43,-0.4748,-0.5282,-0.5371,-0.5471,-0.5679,-0.5556,-0.5254,-0.5041,-0.4893,-0.4591,-0.4232,-0.4226,-0.4055,-0.3731,-0.3433,-0.313,-0.2725,-0.2422,-0.2121,-0.1921,-0.1313,-0.101,-0.0909,0.0808,0.1617,0.1617,0.1516,0.1731,0.2376,0.2639,0.3013,0.3283,0.3452,0.3587,0.3699,0.3587,0.3542,0.3588,0.3277,0.3232,0.3375,0.3176,0.3081,0.2975,0.1972,0.0829,-0.0,-0.0,-0.0614,-0.1345,-0.1016,-0.1229,-0.1655,-0.1625,-0.1617,-0.1617,-0.1617,-0.1415,-0.1212,-0.1212,-0.0808,-0.0404,-0.0808,-0.0909,-0.1111,-0.1516,-0.1617,-0.1718,-0.1921,-0.1921,-0.2223,-0.2725,-0.2826,-0.2927,-0.313,-0.323,-0.323,-0.323,-0.3433,-0.3736,-0.4033,-0.4236,-0.4537,-0.4834,-0.4732,-0.4905,-0.5174,-0.5578,-0.6075,-0.6521,-0.7269,-0.7805,-0.8407,-0.8939,-0.9571,-0.3078,-0.2824,-0.2488,-0.2221,-0.2452,-0.2767,-0.2842,-0.3106,-0.335,-0.3722,-0.3469,-0.3331,-0.3533,-0.3916,-0.4242,-0.4299,-0.4625,-0.4924,-0.5191,-0.5282,-0.5392,-0.5262,-0.5368,-0.5228,-0.4769,-0.4646,-0.4512,-0.4105,-0.3985,-0.3821,-0.363,-0.323,-0.2927,-0.2623,-0.2221,-0.1919,-0.1819,-0.1415,-0.0707,0.0404,0.0909,0.1314,0.1617,0.1718,0.1948,0.2313,0.2653,0.2811,0.288,0.3129,0.3365,0.3587,0.3474,0.355,0.3606,0.339,0.3337,0.3369,0.3158,0.3158,0.3148,0.1956,0.0829,-0.0105,-0.0721,-0.1252,-0.1697,-0.1341,-0.1453,-0.1674,-0.1628,-0.1617,-0.1617,-0.1617,-0.1617,-0.1617,-0.1617,-0.0909,-0.0505,-0.0909,-0.1111,-0.1313,-0.1516,-0.1617,-0.1617,-0.1819,-0.202,-0.2322,-0.2623,-0.2826,-0.3029,-0.323,-0.323,-0.323,-0.323,-0.3332,-0.3533,-0.3932,-0.4135,-0.4435,-0.4734,-0.4792,-0.4889,-0.5138,-0.5579,-0.5995,-0.633,-0.6896,-0.7646,-0.8578,-0.8766,-0.9571,-0.3295,-0.309,-0.2893,-0.2639,-0.2812,-0.3116,-0.3486,-0.381,-0.4128,-0.4503,-0.4092,-0.3708,-0.3962,-0.4365,-0.4708,-0.4753,-0.4828,-0.497,-0.5095,-0.5176,-0.5203,-0.4943,-0.5065,-0.4994,-0.4416,-0.4296,-0.4124,-0.3866,-0.3454,-0.3293,-0.341,-0.2821,-0.2422,-0.2321,-0.1919,-0.1718,-0.1617,-0.1617,-0.0707,0.101,0.101,0.1212,0.1718,0.1819,0.1958,0.2131,0.2451,0.25,0.2356,0.2581,0.3029,0.3475,0.325,0.3438,0.3823,0.3594,0.3421,0.3335,0.3324,0.3328,0.3223,0.204,0.0932,-0.0212,-0.1461,-0.1808,-0.1733,-0.1678,-0.1684,-0.1693,-0.1633,-0.1621,-0.1624,-0.1618,-0.1621,-0.1623,-0.1618,-0.1212,-0.0909,-0.0909,-0.1313,-0.1617,-0.1617,-0.1617,-0.1617,-0.1617,-0.2019,-0.2321,-0.2422,-0.2826,-0.313,-0.323,-0.323,-0.323,-0.323,-0.3331,-0.3531,-0.4033,-0.4133,-0.4334,-0.4734,-0.4834,-0.4937,-0.524,-0.5654,-0.6002,-0.6298,-0.6774,-0.756,-0.875,-0.8698,-0.9531,-0.4247,-0.342,-0.2836,-0.3111,-0.3416,-0.3801,-0.4168,-0.4591,-0.4846,-0.4681,-0.4611,-0.4499,-0.4442,-0.4637,-0.4712,-0.4567,-0.4623,-0.4891,-0.5255,-0.4937,-0.483,-0.529,-0.4842,-0.4489,-0.4606,-0.4047,-0.3716,-0.3723,-0.3118,-0.2694,-0.2853,-0.26,-0.2322,-0.2021,-0.2123,-0.1921,-0.1617,-0.1617,-0.1415,-0.1111,0.0606,0.1617,0.1921,0.1718,0.1855,0.2237,0.2451,0.261,0.2693,0.2915,0.3138,0.3138,0.3474,0.355,0.3491,0.3441,0.3414,0.3392,0.3339,0.3356,0.3284,0.2183,0.0933,-0.0208,-0.1455,-0.1792,-0.1813,-0.1672,-0.1683,-0.1691,-0.1633,-0.1637,-0.165,-0.1623,-0.1637,-0.1649,-0.1622,-0.1516,-0.1516,-0.1516,-0.1516,-0.1617,-0.1617,-0.1617,-0.1617,-0.1617,-0.1617,-0.1919,-0.2321,-0.2422,-0.2724,-0.313,-0.323,-0.3331,-0.3534,-0.3734,-0.4034,-0.4338,-0.4535,-0.4734,-0.4834,-0.4834,-0.4937,-0.524,-0.5727,-0.6218,-0.6719,-0.7201,-0.801,-0.8837,-0.8913,-0.9571,-0.4989,-0.4384,-0.3997,-0.3844,-0.4063,-0.4465,-0.4878,-0.5098,-0.5234,-0.5231,-0.5321,-0.5338,-0.5159,-0.5462,-0.5711,-0.541,-0.5358,-0.5233,-0.5165,-0.4762,-0.4441,-0.4308,-0.4178,-0.3941,-0.3678,-0.3497,-0.3256,-0.3142,-0.2891,-0.2754,-0.2546,-0.2372,-0.2196,-0.2021,-0.1921,-0.1718,-0.1314,-0.1212,-0.101,-0.0707,0.0909,0.1516,0.1516,0.1617,0.1752,0.2131,0.2237,0.2283,0.2244,0.2355,0.2579,0.2917,0.3029,0.3218,0.3489,0.3433,0.3284,0.3142,0.3189,0.3288,0.3305,0.2766,0.144,-0.0,-0.0312,-0.1052,-0.1701,-0.1671,-0.1671,-0.1671,-0.1628,-0.1639,-0.1659,-0.1645,-0.1652,-0.1659,-0.1645,-0.1628,-0.1617,-0.1617,-0.1617,-0.1617,-0.1617,-0.1617,-0.1617,-0.1617,-0.1718,-0.192,-0.2121,-0.2423,-0.2725,-0.2927,-0.313,-0.323,-0.3332,-0.3533,-0.3732,-0.4135,-0.4334,-0.4533,-0.4834,-0.4834,-0.4937,-0.524,-0.5543,-0.6042,-0.6539,-0.7135,-0.7895,-0.8815,-0.901,-0.9784,-0.563,-0.5348,-0.5269,-0.488,-0.4816,-0.5006,-0.5513,-0.5507,-0.5427,-0.5493,-0.5684,-0.5786,-0.5637,-0.5953,-0.6109,-0.5907,-0.5641,-0.5292,-0.4939,-0.4681,-0.4312,-0.3817,-0.3802,-0.3673,-0.3232,-0.3139,-0.3069,-0.2753,-0.2859,-0.281,-0.2509,-0.2341,-0.2173,-0.2006,-0.1713,-0.1516,-0.1212,-0.0808,-0.0404,-0.0,0.1111,0.1516,0.1212,0.1516,0.1748,0.2012,0.202,0.1946,0.1773,0.19,0.2126,0.2565,0.2676,0.2986,0.338,0.3309,0.315,0.3002,0.3149,0.3241,0.3251,0.3135,0.2044,0.0727,0.0623,-0.0314,-0.148,-0.146,-0.1563,-0.1666,-0.1636,-0.1656,-0.1682,-0.1675,-0.1679,-0.1678,-0.1656,-0.1633,-0.1617,-0.1617,-0.1617,-0.162,-0.1627,-0.1622,-0.162,-0.1627,-0.1825,-0.2021,-0.2122,-0.2534,-0.2841,-0.2928,-0.3143,-0.3248,-0.3332,-0.3331,-0.3632,-0.4034,-0.4133,-0.4332,-0.4734,-0.4834,-0.5037,-0.5338,-0.5546,-0.5944,-0.6537,-0.693,-0.7726,-0.8821,-0.9088,-0.9711,-0.6275,-0.6069,-0.6004,-0.6279,-0.5749,-0.5384,-0.5985,-0.5732,-0.5277,-0.5237,-0.546,-0.5625,-0.5637,-0.5485,-0.5291,-0.5167,-0.4938,-0.4711,-0.4758,-0.4453,-0.4322,-0.4415,-0.4154,-0.3851,-0.3857,-0.3497,-0.3229,-0.3142,-0.2834,-0.2591,-0.2601,-0.2404,-0.2159,-0.1869,-0.1702,-0.1617,-0.1617,-0.0505,-0.0,-0.0,0.1111,0.1617,0.1617,0.1617,0.1635,0.177,0.1692,0.1706,0.1713,0.1993,0.2223,0.23,0.252,0.2847,0.3051,0.2947,0.3116,0.3313,0.3251,0.3268,0.3203,0.2843,0.2657,0.2386,0.0935,-0.0,-0.0728,-0.0935,-0.1261,-0.1695,-0.1667,-0.1703,-0.1737,-0.1709,-0.1724,-0.1722,-0.1637,-0.1618,-0.1617,-0.1617,-0.1617,-0.1626,-0.1655,-0.1636,-0.1626,-0.1656,-0.184,-0.2122,-0.2321,-0.2664,-0.2985,-0.3136,-0.3282,-0.3397,-0.354,-0.3833,-0.4034,-0.4338,-0.4636,-0.4734,-0.4834,-0.5037,-0.5338,-0.5536,-0.5849,-0.625,-0.6745,-0.7039,-0.7733,-0.8825,-0.8814,-0.9505,-0.7149,-0.7114,-0.7186,-0.6706,-0.6205,-0.6034,-0.6378,-0.5874,-0.5259,-0.5304,-0.5067,-0.4991,-0.5148,-0.5398,-0.5494,-0.5463,-0.5193,-0.4961,-0.4728,-0.4394,-0.414,-0.3729,-0.3552,-0.3356,-0.3227,-0.3229,-0.3136,-0.3047,-0.2978,-0.2917,-0.2587,-0.2533,-0.2297,-0.1865,-0.1879,-0.1697,-0.1616,-0.0909,-0.0303,-0.0,0.0404,0.0909,0.1617,0.1617,0.1623,0.1635,0.1665,0.1699,0.1735,0.1867,0.209,0.2188,0.2516,0.2826,0.3008,0.297,0.3039,0.3007,0.2987,0.2866,0.2755,0.2769,0.2663,0.2347,0.1735,0.0515,-0.0623,-0.0727,-0.1157,-0.1702,-0.201,-0.2042,-0.2074,-0.2061,-0.2051,-0.2027,-0.1965,-0.1732,-0.1623,-0.1642,-0.1646,-0.1655,-0.1684,-0.168,-0.1677,-0.1688,-0.1872,-0.2055,-0.2157,-0.2556,-0.2847,-0.2929,-0.3148,-0.3356,-0.3537,-0.3736,-0.3955,-0.4515,-0.457,-0.4663,-0.492,-0.5071,-0.524,-0.5338,-0.5744,-0.6345,-0.7042,-0.7534,-0.8127,-0.8825,-0.9324,-0.9817,-0.8079,-0.8049,-0.8143,-0.7342,-0.6851,-0.6561,-0.6547,-0.5982,-0.5458,-0.5249,-0.5042,-0.4825,-0.4939,-0.5217,-0.5404,-0.5479,-0.5323,-0.509,-0.4621,-0.4475,-0.4159,-0.3566,-0.3495,-0.3404,-0.3194,-0.3393,-0.3405,-0.3047,-0.3227,-0.3157,-0.2744,-0.2766,-0.2546,-0.2059,-0.1878,-0.1696,-0.1616,-0.1111,-0.0505,-0.0,0.0202,0.0505,0.1111,0.1415,0.1617,0.1619,0.1649,0.1679,0.1707,0.1726,0.1951,0.2168,0.2277,0.2602,0.303,0.2871,0.2946,0.3034,0.2912,0.2768,0.253,0.2578,0.2359,0.2123,0.2022,0.0917,-0.0412,-0.0622,-0.1157,-0.1813,-0.2146,-0.2287,-0.2317,-0.2317,-0.2286,-0.2251,-0.2224,-0.197,-0.1739,-0.1864,-0.1774,-0.1686,-0.1714,-0.1711,-0.1707,-0.1718,-0.2011,-0.2302,-0.2302,-0.2707,-0.3001,-0.2983,-0.3188,-0.3283,-0.3468,-0.3669,-0.3993,-0.4248,-0.4536,-0.4751,-0.5014,-0.5237,-0.5491,-0.5493,-0.5959,-0.6561,-0.7308,-0.7704,-0.8234,-0.8993,-0.9442,-0.988,0.0,0.0,0.0,-0.8255,-0.7633,-0.7122,-0.6585,-0.6208,-0.5765,-0.514,-0.5142,-0.52,-0.4855,-0.4934,-0.5012,-0.5237,-0.5087,-0.4859,-0.4462,-0.4552,-0.4461,-0.398,-0.4053,-0.4074,-0.3823,-0.4072,-0.3942,-0.3227,-0.3408,-0.3409,-0.2963,-0.2928,-0.273,-0.2348,-0.1798,-0.1615,-0.1617,-0.1111,-0.0505,-0.0,0.0606,0.0505,0.0101,0.1111,0.1617,0.1619,0.1648,0.1644,0.1622,0.1679,0.1916,0.2131,0.1811,0.2284,0.3006,0.2646,0.2835,0.3297,0.3028,0.287,0.2733,0.2268,0.2051,0.1921,0.1718,0.0809,-0.0101,-0.062,-0.1158,-0.182,-0.2179,-0.2438,-0.2693,-0.2693,-0.2659,-0.2626,-0.2626,-0.2343,-0.2078,-0.2077,-0.1896,-0.1715,-0.1746,-0.1727,-0.1717,-0.1746,-0.2265,-0.256,-0.256,-0.3135,-0.3473,-0.3418,-0.3413,-0.3388,-0.3328,-0.3841,-0.4047,-0.3736,-0.4639,-0.5108,-0.5112,-0.5545,-0.5906,-0.6218,-0.6308,-0.681,-0.7558,-0.7552,-0.8133,-0.9324,-0.916,-0.9601,-0.9322,0.0,0.0,0.0,0.0,0.0,-0.7491,-0.6961,-0.631,-0.574,-0.5424,-0.5095,-0.4761,-0.4622,-0.4595,-0.4594,-0.4807,-0.4937,-0.4621,-0.4489,-0.43,-0.3972,-0.3833,-0.3755,-0.3642,-0.3719,-0.3676,-0.3497,-0.3406,-0.3227,-0.2959,-0.2378,-0.206,-0.2017,-0.1764,-0.1594,-0.1616,-0.1111,-0.0505,-0.0,0.0909,0.1313,0.1212,0.1415,0.1617,0.1617,0.1626,0.1624,0.162,0.1658,0.1896,0.2237,0.2344,0.2701,0.3075,0.2671,0.2759,0.3083,0.2505,0.2256,0.2229,0.2166,0.1947,0.1718,0.1617,0.0713,-0.0413,-0.0947,-0.1714,-0.2398,-0.277,-0.2794,-0.2693,-0.2915,-0.299,-0.2955,-0.2955,-0.2932,-0.2696,-0.2264,-0.1948,-0.1747,-0.1777,-0.1776,-0.1884,-0.2004,-0.2196,-0.2498,-0.2933,-0.302,-0.3321,-0.3731,-0.3728,-0.3932,-0.4334,-0.4436,-0.4674,-0.4734,-0.5024,-0.5137,-0.5204,-0.5649,-0.6018,-0.6018,-0.6612,-0.7279,-0.784,-0.7745,-0.8237,-0.9017,-0.9592,-1.0194,-0.9322,-0.9246,-0.9094,-0.8703,0.0,0.0,-0.8021,-0.7626,-0.7179,-0.6529,-0.6135,-0.572,-0.5214,-0.4849,-0.4673,-0.4612,-0.4658,-0.4701,-0.4467,-0.4387,-0.4252,-0.3916,-0.3874,-0.3802,-0.3679,-0.3787,-0.3764,-0.3497,-0.3406,-0.3138,-0.278,-0.2288,-0.1963,-0.1907,-0.1751,-0.158,-0.1598,-0.1107,-0.0503,-0.0,0.0604,0.1212,0.1617,0.1617,0.1617,0.1617,0.1617,0.1516,0.1315,0.1534,0.1876,0.2237,0.2451,0.2694,0.2837,0.266,0.2635,0.2736,0.229,0.2051,0.2028,0.196,0.1743,0.1518,0.1326,0.0409,-0.0723,-0.1814,-0.24,-0.2874,-0.2994,-0.3124,-0.3253,-0.3475,-0.345,-0.3428,-0.3428,-0.3316,-0.2978,-0.241,-0.22,-0.1885,-0.1792,-0.1795,-0.1907,-0.202,-0.2114,-0.2433,-0.2876,-0.2958,-0.3266,-0.3918,-0.3784,-0.3874,-0.4303,-0.452,-0.4647,-0.4695,-0.5013,-0.5245,-0.5296,-0.5753,-0.6129,-0.6234,-0.6823,-0.7496,-0.8062,-0.8111,-0.8387,-0.9217,-0.9778,-1.031,-0.9271,-0.9266,-0.9018,-0.8632,-0.8865,0.0,-0.8331,-0.8331,-0.8201,-0.7206,-0.6992,-0.6736,-0.5976,-0.5381,-0.5076,-0.5063,-0.4763,-0.4384,-0.4155,-0.4309,-0.4229,-0.3919,-0.3997,-0.4024,-0.395,-0.41,-0.3931,-0.3226,-0.3318,-0.3139,-0.2424,-0.2193,-0.2049,-0.1901,-0.1644,-0.1564,-0.1571,-0.1096,-0.0499,-0.0,-0.0,0.0504,0.1415,0.1516,0.1516,0.1617,0.1617,0.1314,0.091,0.1317,0.1755,0.2231,0.2444,0.2578,0.2608,0.2522,0.2489,0.2385,0.2174,0.2048,0.1925,0.1648,0.1639,0.1521,0.093,-0.0,-0.1123,-0.2904,-0.3316,-0.3128,-0.3195,-0.3549,-0.4038,-0.4036,-0.4036,-0.4038,-0.4038,-0.3587,-0.3013,-0.275,-0.2443,-0.2132,-0.1907,-0.1792,-0.1791,-0.1907,-0.2017,-0.2352,-0.2692,-0.2915,-0.3362,-0.3924,-0.376,-0.3726,-0.3946,-0.4276,-0.4385,-0.4055,-0.4891,-0.5377,-0.5371,-0.585,-0.624,-0.6453,-0.6998,-0.7639,-0.8307,-0.8307,-0.8733,-0.9585,-0.9655,-1.0197,-0.9839,-0.9755,-0.9695,-0.9392,-0.9695,0.0,-0.878,-0.8861,-0.8775,-0.7443,-0.7306,-0.7046,-0.5976,-0.5609,-0.5431,-0.5403,-0.5092,-0.4849,-0.4623,-0.4465,-0.4382,-0.4307,-0.4181,-0.4039,-0.3775,-0.3701,-0.352,-0.3223,-0.278,-0.2333,-0.1974,-0.1711,-0.1549,-0.1582,-0.1495,-0.1522,-0.1571,-0.1068,-0.0489,-0.0,-0.0,0.01,0.0303,0.0808,0.1212,0.1617,0.1617,0.1516,0.1416,0.1128,0.145,0.2294,0.2189,0.2319,0.2565,0.23,0.2178,0.2174,0.1837,0.1723,0.1618,0.1116,0.1216,0.142,0.0413,-0.0922,-0.2239,-0.3388,-0.3613,-0.3585,-0.3798,-0.3916,-0.4036,-0.4369,-0.4147,-0.4038,-0.4038,-0.3701,-0.336,-0.3014,-0.2573,-0.2132,-0.2132,-0.1997,-0.1988,-0.2464,-0.2329,-0.243,-0.291,-0.3026,-0.3362,-0.3924,-0.4134,-0.4458,-0.4684,-0.502,-0.5133,-0.5133,-0.526,-0.538,-0.538,-0.5919,-0.6243,-0.6354,-0.732,-0.8087,-0.8446,-0.8673,-0.9113,-0.9764,-1.0062,-1.0329,-0.9875,-0.9715,-0.976,-0.9721,-0.9771,0.0,0.0,-0.916,-0.8861,-0.8246,-0.7944,-0.7613,-0.706,-0.6576,-0.614,-0.5911,-0.5425,-0.5085,-0.4851,-0.4696,-0.4465,-0.4309,-0.4163,-0.3918,-0.3714,-0.3578,-0.3418,-0.3221,-0.2601,-0.2154,-0.1974,-0.1794,-0.163,-0.148,-0.148,-0.1502,-0.1645,-0.1355,-0.0782,-0.0,-0.0,-0.0,-0.0,0.0302,0.0502,0.0797,0.1409,0.1617,0.1516,0.102,0.1228,0.1947,0.2274,0.2296,0.2205,0.2268,0.2048,0.1738,0.1013,0.0909,0.0909,0.0303,0.0305,0.0308,-0.0418,-0.201,-0.3616,-0.3898,-0.4013,-0.4027,-0.4218,-0.4345,-0.4484,-0.4706,-0.4594,-0.4372,-0.4258,-0.4036,-0.3699,-0.3138,-0.2802,-0.2573,-0.2441,-0.2311,-0.2297,-0.2516,-0.2516,-0.2632,-0.3206,-0.3344,-0.3587,-0.4372,-0.448,-0.4592,-0.4929,-0.5043,-0.5156,-0.5156,-0.5268,-0.5493,-0.5601,-0.6051,-0.6497,-0.694,-0.7604,-0.8156,-0.8494,-0.8937,-0.9379,-0.9812,-0.9836,-1.0293,-0.9836,-0.9632,-0.9645,-0.9606,-0.9499,-0.9443,0.0,0.0,0.0,-0.8851,-0.8479,-0.8102,-0.8025,-0.7484,-0.6861,-0.6395,-0.586,-0.5398,-0.5162,-0.4854,-0.4545,-0.4233,-0.4068,-0.3881,-0.357,-0.3456,-0.3309,-0.3114,-0.2497,-0.214,-0.214,-0.188,-0.1627,-0.1379,-0.1196,-0.1207,-0.1422,-0.1536,-0.1163,-0.0293,-0.0099,-0.0,-0.0,-0.0,-0.0,-0.0,0.0699,0.1208,0.1516,0.0909,0.101,0.1619,0.2361,0.2065,0.1444,0.183,0.1617,0.1212,0.0303,0.0101,0.0202,-0.0404,-0.0718,-0.115,-0.169,-0.3265,-0.4664,-0.4439,-0.4534,-0.4689,-0.4629,-0.488,-0.5154,-0.5041,-0.5041,-0.4929,-0.4704,-0.437,-0.4035,-0.3362,-0.3362,-0.3233,-0.2743,-0.2728,-0.2711,-0.2681,-0.281,-0.3161,-0.3619,-0.3889,-0.4147,-0.4817,-0.4815,-0.4815,-0.4929,-0.5041,-0.5152,-0.5154,-0.538,-0.5714,-0.5935,-0.6272,-0.6829,-0.7607,-0.7934,-0.8269,-0.8501,-0.9161,-0.9489,-0.9812,-0.9675,-1.0097,-1.0034,-0.9867,-0.9602,-0.8562,-0.9217,-0.9704,-0.8132,0.0,-0.9089,-0.8556,0.0,-0.8255,-0.788,0.0,0.0,-0.6861,-0.6483,-0.6025,-0.5559,-0.509,-0.4621,-0.4384,-0.4164,-0.3891,-0.3566,-0.3076,-0.2813,-0.2876,-0.2181,-0.1832,-0.1832,-0.1598,-0.1257,-0.081,-0.036,-0.0364,-0.0835,-0.1188,-0.1385,-0.1435,-0.0471,-0.0,-0.0,-0.0,-0.0,-0.0,-0.0886,-0.0199,0.1516,0.0505,0.0707,0.1618,0.1721,0.1114,0.0203,0.0303,0.0202,0.0202,-0.0,-0.0202,-0.0404,-0.0707,-0.1448,-0.2543,-0.3656,-0.431,-0.4559,-0.4931,-0.5337,-0.5594,-0.5361,-0.5704,-0.6049,-0.5822,-0.571,-0.5487,-0.4929,-0.4819,-0.4596,-0.4036,-0.4147,-0.4012,-0.3182,-0.3025,-0.3007,-0.3371,-0.3768,-0.4208,-0.4339,-0.4808,-0.5148,-0.4929,-0.515,-0.526,-0.5371,-0.5596,-0.5824,-0.6163,-0.6163,-0.6163,-0.6274,-0.6826,-0.7268,-0.7607,-0.8156,-0.8491,-0.8501,-0.9161,-0.9489,-0.9816,-1.0127,-1.0264,-0.885,-0.8747,-0.8759,-0.8544,-0.8688,-0.8918,-0.8645,-0.8654,-0.8765,-0.8881,0.0,0.0,0.0,0.0,0.0,0.0,-0.6535,-0.5941,-0.5168,-0.4857,-0.4621,-0.4462,-0.3995,-0.3563,-0.3162,-0.287,-0.2582,-0.2555,-0.1876,-0.1543,-0.1823,-0.1403,-0.1153,-0.1076,-0.0359,-0.0091,-0.0277,-0.0459,-0.0649,-0.0668,-0.0189,-0.0,-0.0,-0.0,-0.0,-0.0095,-0.1167,-0.1085,-0.0298,-0.0402,-0.0202,0.0202,0.0202,0.0101,-0.0101,-0.0707,-0.0909,-0.0909,-0.0909,-0.101,-0.1217,-0.1553,-0.2525,-0.3719,-0.4116,-0.4845,-0.549,-0.5569,-0.5739,-0.5973,-0.5919,-0.6161,-0.6274,-0.6161,-0.6049,-0.5935,-0.5373,-0.515,-0.4927,-0.4148,-0.4148,-0.4013,-0.3399,-0.3587,-0.3783,-0.3769,-0.41,-0.4454,-0.496,-0.5343,-0.5599,-0.5714,-0.5933,-0.6044,-0.5935,-0.6047,-0.6161,-0.6274,-0.6606,-0.6937,-0.7051,-0.749,-0.7712,-0.7826,-0.8266,-0.8491,-0.8501,-0.9161,-0.9485,-0.9805,-1.0249,-1.0546,-0.8028,-0.8024,-0.8087,-0.815,-0.8132,-0.8203,-0.8599,-0.8461,-0.8422,-0.872,-0.8591,0.0,0.0,0.0,-0.7573,-0.6648,0.0,-0.5824,-0.4704,-0.4545,-0.4465,-0.4384,-0.3995,-0.3482,-0.3162,-0.2747,-0.2521,-0.2496,-0.1582,-0.1091,-0.1365,-0.1124,-0.1052,-0.1423,-0.0447,-0.0,-0.0,-0.0275,-0.0277,-0.0,-0.0,-0.0,-0.0,-0.0,-0.0187,-0.0463,-0.105,-0.1556,-0.177,-0.1396,-0.1106,-0.101,-0.1212,-0.0909,-0.0505,-0.1314,-0.1718,-0.1818,-0.1718,-0.1718,-0.1829,-0.2107,-0.3192,-0.4254,-0.4257,-0.5171,-0.6199,-0.6093,-0.6248,-0.6357,-0.6357,-0.6495,-0.6495,-0.6383,-0.6495,-0.6383,-0.5819,-0.5596,-0.5373,-0.4594,-0.4372,-0.4244,-0.375,-0.4058,-0.4247,-0.4084,-0.4445,-0.4926,-0.5387,-0.578,-0.6158,-0.6274,-0.6495,-0.6604,-0.6606,-0.6495,-0.6495,-0.6609,-0.716,-0.749,-0.7715,-0.7934,-0.8152,-0.8263,-0.8598,-0.8823,-0.883,-0.9379,-0.9702,-0.9908,-1.0359,-1.0582,-0.8276,-0.812,-0.7923,-0.7177,-0.7536,-0.7936,-0.7138,-0.7569,-0.8034,-0.7876,-0.7799,-0.7727,-0.735,-0.7324,-0.7055,0.0,0.0,0.0,0.0,-0.4157,-0.4155,-0.4384,-0.4233,-0.3957,-0.3645,-0.2945,-0.2538,-0.26,-0.1465,-0.0489,-0.0082,-0.051,-0.0958,-0.1395,-0.0534,-0.0,-0.0,-0.0898,-0.0899,-0.0,-0.0,-0.0,-0.0,-0.0,-0.0455,-0.1295,-0.0926,-0.1327,-0.2358,-0.2261,-0.1889,-0.1617,-0.2322,-0.2221,-0.1516,-0.1617,-0.1919,-0.2321,-0.2122,-0.2121,-0.2334,-0.2211,-0.3192,-0.4358,-0.4572,-0.5489,-0.6521,-0.6414,-0.6679,-0.6901,-0.6687,-0.6935,-0.7043,-0.6715,-0.6935,-0.7046,-0.6383,-0.6274,-0.6049,-0.5485,-0.5377,-0.5044,-0.4147,-0.42,-0.4373,-0.4371,-0.5132,-0.5709,-0.5804,-0.6267,-0.6604,-0.6274,-0.6495,-0.6824,-0.7154,-0.6824,-0.6937,-0.7496,-0.7826,-0.7934,-0.7934,-0.8263,-0.8592,-0.8813,-0.9151,-0.9485,-0.9706,-1.0147,-1.0249,-1.0237,-1.0249,-1.0472,-0.6335,-0.6363,-0.6458,-0.6514,-0.6443,-0.6489,-0.662,-0.6709,-0.6893,-0.6921,-0.6943,-0.6947,-0.6954,-0.6502,0.0,0.0,0.0,-0.4739,0.0,-0.3841,-0.3919,-0.3997,-0.3921,-0.3675,-0.3026,-0.2771,-0.2554,-0.2302,-0.1332,-0.0709,-0.0894,0.0083,0.0253,-0.0435,-0.0438,-0.062,-0.0897,-0.1256,-0.1256,-0.0897,-0.0628,-0.0448,-0.0449,-0.0449,-0.0631,-0.0907,-0.1104,-0.1598,-0.2219,-0.215,-0.2185,-0.2423,-0.2522,-0.2523,-0.2625,-0.2221,-0.2121,-0.2121,-0.2221,-0.2423,-0.264,-0.2738,-0.3726,-0.4906,-0.4962,-0.5819,-0.6762,-0.6805,-0.7,-0.7121,-0.6995,-0.7268,-0.7382,-0.7046,-0.7154,-0.7043,-0.6604,-0.6604,-0.6381,-0.5594,-0.5373,-0.5152,-0.448,-0.4573,-0.4666,-0.4445,-0.5111,-0.5567,-0.5817,-0.6379,-0.6715,-0.6604,-0.7049,-0.7304,-0.7269,-0.7387,-0.7725,-0.8292,-0.8317,-0.8377,-0.8602,-0.8933,-0.9154,-0.9261,-0.9485,-0.9706,-0.9816,-0.9926,-1.0094,-1.042,-1.0307,-1.0472,-0.5321,-0.5321,-0.5479,-0.587,-0.5709,-0.5649,-0.6051,-0.607,-0.6016,-0.6031,-0.605,-0.605,-0.6056,-0.5693,0.0,0.0,0.0,0.0,0.0,-0.3604,-0.3661,-0.3599,-0.3695,-0.3538,-0.2956,-0.2648,-0.2428,-0.222,-0.1217,-0.0691,-0.0792,0.0484,0.1077,0.0516,-0.0437,-0.1062,-0.1435,-0.1436,-0.1436,-0.1436,-0.1076,-0.0987,-0.0987,-0.0987,-0.0987,-0.0987,-0.1456,-0.1861,-0.2195,-0.2208,-0.2452,-0.2925,-0.2806,-0.2909,-0.313,-0.2623,-0.2322,-0.2323,-0.2522,-0.2725,-0.2943,-0.2928,-0.4026,-0.5227,-0.5177,-0.5929,-0.6874,-0.7017,-0.7211,-0.7324,-0.7379,-0.7459,-0.7607,-0.7379,-0.7268,-0.7154,-0.6935,-0.6715,-0.6381,-0.5822,-0.5599,-0.5264,-0.4704,-0.4929,-0.4931,-0.4704,-0.5043,-0.5491,-0.5601,-0.6158,-0.6606,-0.6606,-0.7198,-0.7722,-0.7732,-0.8085,-0.8524,-0.8817,-0.8838,-0.9008,-0.9346,-0.9518,-0.965,-0.9876,-0.9987,-1.0075,-1.0266,-1.0247,-1.042,-1.0775,-1.0695,-1.0739]},{"header":{"parameterUnit":"m.s-1","parameterCategory":1,"la1":30.6,"la2":29.2853,"lo1":-89.7004,"lo2":-87.6739,"dy":0.0162,"dx":0.0183,"nx":112,"ny":82,"refTime":"2023-05-17T12:00:00:Z","depth":0,"parameterNumber":3,"parameterNumberName":"V-component_of_WINDS"},"data":[0.0,0.0,0.0,0.0,0.0,0.0,0.0,0.0,0.0,0.0,0.0,0.0,0.0,0.0,0.0,0.0,0.0,0.0,0.0,0.0,0.0,0.0,0.0,0.0,0.0,0.0,0.0,0.0,0.0,0.0,0.0,0.0,0.0,0.0,0.0,0.0,0.0,0.0,0.0,0.0,0.0,0.0,0.0,0.0,0.0,0.0,0.0,0.0,0.0,0.0,0.0,0.0,0.0,0.0,0.0,0.0,0.0,0.0,0.0,0.0,0.0,0.0,0.0,0.0,0.0,0.0,0.0,0.0,0.0,0.0,0.0,0.0,0.0,0.0,0.0,0.0,0.0,0.0,0.0,0.0,0.0,0.0,0.0,0.0,0.0,0.0,0.0,0.0,0.0,0.0,-2.5685,-2.6125,-2.792,-2.8771,-2.7944,-2.6969,-2.5969,-2.5001,0.0,0.0,0.0,0.0,0.0,0.0,0.0,0.0,0.0,0.0,0.0,0.0,0.0,0.0,0.0,0.0,0.0,0.0,0.0,0.0,0.0,0.0,0.0,0.0,0.0,0.0,0.0,0.0,0.0,0.0,0.0,0.0,0.0,0.0,0.0,0.0,0.0,0.0,0.0,0.0,0.0,0.0,0.0,0.0,0.0,0.0,0.0,0.0,0.0,0.0,0.0,0.0,0.0,0.0,0.0,0.0,0.0,0.0,0.0,0.0,0.0,0.0,0.0,0.0,0.0,0.0,0.0,0.0,0.0,0.0,0.0,0.0,0.0,0.0,0.0,0.0,0.0,0.0,0.0,0.0,0.0,0.0,0.0,0.0,0.0,0.0,0.0,0.0,0.0,0.0,0.0,0.0,0.0,0.0,0.0,0.0,0.0,0.0,0.0,0.0,0.0,0.0,0.0,0.0,-2.6618,-2.935,-2.9271,-2.8925,-2.8744,-2.7241,-2.61,-2.5604,0.0,0.0,0.0,0.0,0.0,0.0,0.0,0.0,0.0,0.0,0.0,0.0,0.0,0.0,0.0,0.0,0.0,0.0,0.0,0.0,0.0,0.0,0.0,0.0,0.0,0.0,0.0,0.0,0.0,0.0,0.0,0.0,0.0,0.0,0.0,0.0,0.0,0.0,0.0,0.0,0.0,0.0,0.0,0.0,0.0,0.0,0.0,0.0,0.0,0.0,0.0,0.0,0.0,0.0,0.0,0.0,0.0,0.0,0.0,0.0,0.0,0.0,0.0,0.0,0.0,0.0,0.0,0.0,0.0,0.0,0.0,0.0,0.0,0.0,0.0,0.0,0.0,0.0,0.0,0.0,0.0,0.0,0.0,0.0,0.0,0.0,0.0,0.0,0.0,0.0,0.0,0.0,0.0,0.0,0.0,0.0,0.0,0.0,0.0,0.0,0.0,0.0,0.0,-2.5156,-2.7218,-3.004,-2.9941,-2.9429,-2.8879,-2.8113,-2.7331,-2.6566,-2.543,0.0,0.0,0.0,0.0,0.0,0.0,0.0,0.0,0.0,0.0,0.0,0.0,0.0,0.0,0.0,0.0,0.0,0.0,0.0,0.0,0.0,0.0,0.0,0.0,0.0,0.0,0.0,0.0,0.0,0.0,0.0,0.0,0.0,0.0,0.0,0.0,0.0,0.0,0.0,0.0,0.0,0.0,0.0,0.0,0.0,0.0,0.0,0.0,0.0,0.0,0.0,0.0,0.0,0.0,0.0,0.0,0.0,0.0,0.0,0.0,0.0,0.0,0.0,0.0,0.0,0.0,0.0,0.0,0.0,0.0,0.0,0.0,0.0,0.0,0.0,0.0,0.0,0.0,0.0,0.0,0.0,0.0,0.0,0.0,0.0,0.0,0.0,0.0,0.0,0.0,0.0,0.0,0.0,0.0,0.0,0.0,0.0,0.0,0.0,0.0,0.0,0.0,-2.6294,-2.775,-3.003,-3.024,-2.9884,-2.9125,-2.8681,-2.8058,-2.7146,-2.5466,0.0,0.0,0.0,0.0,0.0,0.0,0.0,0.0,0.0,0.0,0.0,0.0,0.0,0.0,0.0,0.0,0.0,0.0,0.0,0.0,0.0,0.0,0.0,0.0,0.0,0.0,0.0,0.0,0.0,0.0,0.0,0.0,0.0,0.0,0.0,0.0,0.0,0.0,0.0,0.0,0.0,0.0,0.0,0.0,0.0,0.0,0.0,0.0,0.0,0.0,0.0,0.0,0.0,0.0,0.0,0.0,0.0,0.0,0.0,0.0,0.0,0.0,0.0,0.0,0.0,0.0,0.0,0.0,0.0,0.0,0.0,0.0,0.0,0.0,0.0,0.0,0.0,0.0,0.0,0.0,0.0,0.0,0.0,0.0,0.0,0.0,0.0,0.0,0.0,0.0,0.0,0.0,0.0,0.0,0.0,0.0,0.0,0.0,0.0,0.0,0.0,0.0,-2.6765,-2.8351,-3.0027,-3.0199,-3.0109,-2.9845,-2.8342,-2.7201,-2.6766,-2.4087,0.0,0.0,0.0,0.0,0.0,0.0,0.0,0.0,0.0,0.0,0.0,0.0,0.0,0.0,0.0,0.0,0.0,0.0,0.0,0.0,0.0,0.0,0.0,0.0,0.0,0.0,0.0,0.0,0.0,0.0,0.0,0.0,0.0,0.0,0.0,0.0,0.0,0.0,0.0,0.0,0.0,0.0,0.0,0.0,0.0,0.0,0.0,0.0,0.0,0.0,0.0,0.0,0.0,0.0,0.0,0.0,0.0,0.0,0.0,0.0,0.0,0.0,0.0,0.0,0.0,0.0,0.0,0.0,0.0,0.0,0.0,0.0,0.0,0.0,0.0,0.0,0.0,0.0,0.0,0.0,0.0,0.0,0.0,0.0,0.0,0.0,0.0,0.0,0.0,0.0,0.0,0.0,0.0,0.0,0.0,0.0,0.0,0.0,0.0,0.0,0.0,0.0,-2.7078,-2.8339,-2.9975,-3.0098,-3.0003,-2.9841,-2.9204,-2.8201,-2.6779,0.0,0.0,0.0,0.0,0.0,0.0,0.0,0.0,0.0,0.0,0.0,0.0,0.0,0.0,0.0,0.0,0.0,0.0,0.0,0.0,0.0,0.0,0.0,0.0,0.0,0.0,0.0,0.0,0.0,0.0,0.0,0.0,0.0,0.0,0.0,0.0,0.0,0.0,0.0,0.0,0.0,0.0,0.0,0.0,0.0,0.0,0.0,0.0,0.0,0.0,0.0,0.0,0.0,0.0,0.0,0.0,0.0,0.0,0.0,0.0,0.0,0.0,0.0,0.0,0.0,0.0,0.0,0.0,0.0,0.0,0.0,0.0,0.0,0.0,0.0,0.0,0.0,0.0,0.0,0.0,0.0,0.0,0.0,0.0,0.0,0.0,0.0,0.0,0.0,0.0,0.0,0.0,0.0,0.0,0.0,0.0,0.0,0.0,0.0,0.0,0.0,0.0,-2.6458,-2.7466,-2.8586,-2.9901,-2.9991,-2.9796,-2.9377,-2.9268,-2.8353,-2.6284,0.0,0.0,0.0,0.0,0.0,0.0,0.0,0.0,0.0,0.0,0.0,0.0,0.0,0.0,0.0,0.0,0.0,0.0,0.0,0.0,0.0,0.0,0.0,0.0,0.0,0.0,0.0,0.0,0.0,0.0,0.0,0.0,0.0,0.0,0.0,0.0,0.0,0.0,0.0,0.0,0.0,0.0,0.0,0.0,0.0,0.0,0.0,0.0,0.0,0.0,0.0,0.0,0.0,0.0,0.0,0.0,0.0,0.0,0.0,0.0,0.0,0.0,0.0,0.0,0.0,0.0,0.0,0.0,0.0,0.0,0.0,0.0,0.0,0.0,0.0,0.0,0.0,0.0,0.0,0.0,0.0,0.0,0.0,0.0,0.0,0.0,0.0,0.0,0.0,0.0,0.0,0.0,0.0,0.0,0.0,0.0,0.0,0.0,0.0,0.0,0.0,0.0,-2.6622,-2.7953,-2.9155,-2.9826,-2.9891,-2.9485,-2.8499,-2.8297,-2.7301,0.0,0.0,0.0,0.0,0.0,0.0,0.0,0.0,0.0,0.0,0.0,0.0,0.0,0.0,0.0,0.0,0.0,0.0,0.0,0.0,0.0,0.0,0.0,0.0,0.0,0.0,0.0,0.0,0.0,0.0,0.0,0.0,0.0,0.0,0.0,0.0,0.0,0.0,0.0,0.0,0.0,0.0,0.0,0.0,0.0,0.0,0.0,0.0,0.0,0.0,0.0,0.0,0.0,0.0,0.0,0.0,0.0,0.0,0.0,0.0,0.0,0.0,0.0,0.0,0.0,0.0,0.0,0.0,0.0,0.0,0.0,0.0,0.0,0.0,0.0,0.0,0.0,0.0,0.0,0.0,0.0,0.0,0.0,0.0,0.0,0.0,0.0,0.0,0.0,0.0,0.0,0.0,0.0,0.0,0.0,0.0,0.0,0.0,0.0,0.0,0.0,0.0,0.0,-2.6612,-2.7898,-2.8893,-2.9033,-2.9468,-2.9626,-2.927,-2.9137,-2.8454,-2.7129,0.0,0.0,0.0,0.0,0.0,0.0,0.0,0.0,0.0,0.0,0.0,0.0,0.0,0.0,0.0,0.0,0.0,0.0,0.0,0.0,0.0,0.0,0.0,0.0,0.0,0.0,0.0,0.0,0.0,0.0,0.0,0.0,0.0,0.0,0.0,0.0,0.0,0.0,0.0,0.0,0.0,0.0,0.0,0.0,0.0,0.0,0.0,0.0,0.0,0.0,0.0,0.0,0.0,0.0,0.0,0.0,0.0,0.0,0.0,0.0,0.0,0.0,0.0,0.0,0.0,0.0,0.0,0.0,0.0,0.0,0.0,0.0,0.0,0.0,0.0,0.0,0.0,0.0,0.0,0.0,0.0,0.0,0.0,0.0,0.0,0.0,0.0,0.0,0.0,0.0,0.0,0.0,0.0,0.0,0.0,0.0,0.0,0.0,0.0,0.0,0.0,0.0,-2.7094,-2.8383,-2.9243,-2.9155,-2.9437,-2.9438,-2.9044,-2.9225,-2.8785,-2.7429,0.0,0.0,0.0,0.0,0.0,0.0,0.0,0.0,0.0,0.0,0.0,0.0,0.0,0.0,0.0,0.0,0.0,0.0,0.0,0.0,0.0,0.0,0.0,0.0,0.0,0.0,0.0,0.0,0.0,0.0,0.0,0.0,0.0,0.0,0.0,0.0,0.0,0.0,0.0,0.0,0.0,0.0,0.0,0.0,0.0,0.0,0.0,0.0,0.0,0.0,0.0,0.0,0.0,0.0,0.0,0.0,0.0,0.0,0.0,0.0,0.0,0.0,0.0,0.0,0.0,0.0,0.0,0.0,0.0,0.0,0.0,0.0,0.0,0.0,0.0,0.0,0.0,0.0,0.0,0.0,0.0,0.0,0.0,0.0,0.0,0.0,0.0,0.0,0.0,0.0,0.0,0.0,0.0,0.0,0.0,0.0,0.0,0.0,0.0,0.0,0.0,0.0,-2.7721,-2.904,-2.9931,-2.9693,-2.957,-2.9154,-2.8292,-2.888,-2.8572,-2.6848,0.0,0.0,0.0,0.0,0.0,0.0,0.0,0.0,0.0,0.0,0.0,0.0,0.0,0.0,0.0,0.0,0.0,0.0,0.0,0.0,0.0,0.0,0.0,0.0,0.0,0.0,0.0,0.0,0.0,0.0,0.0,0.0,0.0,0.0,0.0,0.0,0.0,0.0,0.0,0.0,0.0,0.0,0.0,0.0,0.0,0.0,0.0,0.0,0.0,0.0,0.0,0.0,0.0,0.0,0.0,0.0,0.0,0.0,0.0,0.0,-3.0598,-2.9515,0.0,0.0,0.0,0.0,0.0,0.0,0.0,0.0,0.0,0.0,0.0,0.0,0.0,0.0,0.0,0.0,0.0,0.0,0.0,0.0,0.0,0.0,0.0,0.0,0.0,0.0,0.0,0.0,0.0,0.0,0.0,0.0,0.0,0.0,0.0,0.0,0.0,0.0,0.0,0.0,-2.6959,-2.8708,-2.969,-2.8865,-2.9214,-2.9378,-2.9072,-2.9301,-2.9221,-2.8658,-2.8181,0.0,0.0,0.0,0.0,0.0,0.0,0.0,0.0,0.0,0.0,0.0,0.0,0.0,0.0,0.0,0.0,0.0,0.0,0.0,0.0,0.0,0.0,0.0,0.0,0.0,0.0,0.0,0.0,0.0,0.0,0.0,0.0,0.0,0.0,0.0,0.0,0.0,0.0,0.0,0.0,0.0,0.0,0.0,0.0,0.0,0.0,0.0,0.0,0.0,0.0,0.0,0.0,0.0,0.0,0.0,0.0,0.0,0.0,0.0,-3.3653,-3.2317,0.0,0.0,0.0,0.0,0.0,0.0,0.0,0.0,0.0,0.0,0.0,0.0,0.0,0.0,0.0,0.0,0.0,0.0,0.0,0.0,0.0,0.0,0.0,0.0,0.0,0.0,0.0,0.0,0.0,0.0,0.0,0.0,0.0,0.0,0.0,0.0,0.0,0.0,0.0,0.0,-2.7264,-2.8741,-2.9668,-2.908,-2.9269,-2.9392,-2.9249,-2.9349,-2.9349,-2.9262,-2.8836,0.0,0.0,0.0,0.0,0.0,0.0,0.0,0.0,0.0,0.0,0.0,0.0,0.0,0.0,0.0,0.0,0.0,0.0,0.0,0.0,0.0,0.0,0.0,0.0,0.0,0.0,0.0,0.0,0.0,0.0,0.0,0.0,0.0,0.0,0.0,0.0,0.0,0.0,0.0,0.0,0.0,0.0,0.0,0.0,0.0,0.0,0.0,0.0,0.0,0.0,0.0,0.0,0.0,-3.5421,-3.6509,-3.7397,-3.7328,-3.7431,-3.7678,-3.693,-3.5708,-3.4244,-3.4112,0.0,0.0,0.0,0.0,0.0,0.0,0.0,0.0,0.0,0.0,0.0,0.0,0.0,0.0,0.0,0.0,0.0,0.0,0.0,0.0,0.0,0.0,-3.4412,-3.5154,-3.5836,-3.5401,-3.2045,0.0,0.0,0.0,0.0,0.0,0.0,0.0,0.0,0.0,0.0,0.0,-2.7968,-2.903,-2.9827,-2.9814,-2.9566,-2.9372,-2.9243,-2.9304,-2.9326,-2.9304,-2.9283,-2.8886,0.0,0.0,0.0,0.0,0.0,0.0,0.0,0.0,0.0,0.0,0.0,0.0,0.0,0.0,0.0,0.0,0.0,0.0,0.0,0.0,0.0,0.0,0.0,0.0,0.0,0.0,0.0,0.0,0.0,0.0,0.0,0.0,-2.716,-2.8643,0.0,0.0,0.0,0.0,0.0,0.0,0.0,0.0,0.0,0.0,0.0,0.0,0.0,-3.1965,-3.4168,-3.4394,-3.5202,-3.6637,-3.6889,-3.7457,-3.8248,-3.8294,-3.8694,-3.9396,-3.9388,0.0,-3.6856,-3.6217,0.0,0.0,0.0,0.0,0.0,0.0,0.0,0.0,0.0,0.0,0.0,0.0,0.0,0.0,0.0,0.0,0.0,0.0,0.0,0.0,0.0,0.0,-3.6083,-3.688,-3.7145,-3.7109,-3.669,-3.4375,-3.2163,-3.1506,-3.0859,-3.0181,0.0,0.0,0.0,0.0,0.0,0.0,-2.8592,-2.9383,-3.0072,-3.0582,-2.9961,-2.9414,-2.9312,-2.9412,-2.9433,-2.9392,-2.9372,-2.9295,-2.9124,-2.923,0.0,0.0,0.0,0.0,0.0,0.0,0.0,0.0,0.0,0.0,0.0,0.0,0.0,0.0,0.0,0.0,0.0,0.0,0.0,0.0,0.0,0.0,0.0,0.0,0.0,0.0,0.0,0.0,0.0,-2.7101,-2.78,-2.9317,-2.8796,-2.8823,0.0,0.0,0.0,0.0,0.0,0.0,0.0,0.0,0.0,-3.3427,-3.375,-3.4661,-3.6251,-3.6661,-3.7241,-3.7958,-3.8388,-3.8826,-3.9252,-3.9318,-3.9572,-3.9996,-4.008,-3.9699,-3.8918,-3.8061,-3.768,-3.7544,0.0,0.0,0.0,0.0,-3.4993,-3.5348,-3.5261,-3.5796,-3.6482,-3.6482,0.0,0.0,0.0,0.0,0.0,0.0,0.0,-3.488,-3.5569,-3.6692,-3.7775,-3.8214,-3.8708,-3.8955,-3.8495,-3.7354,-3.5993,-3.4625,-3.4139,-3.3537,-3.2276,-3.1774,0.0,0.0,0.0,-3.0502,-3.0238,-3.0831,-3.1318,-3.1503,-3.075,-3.0185,-3.0105,-2.9734,-2.9492,-2.9511,-2.9491,-2.9453,-2.9472,-2.947,-2.8687,0.0,0.0,0.0,0.0,0.0,0.0,0.0,0.0,0.0,0.0,0.0,0.0,0.0,0.0,0.0,0.0,0.0,0.0,0.0,0.0,0.0,0.0,0.0,0.0,0.0,0.0,0.0,0.0,-2.7918,-2.8567,-3.0286,-2.9986,-3.0208,0.0,0.0,0.0,0.0,0.0,0.0,-3.3211,-3.4089,-3.4945,-3.5666,-3.6118,-3.6795,-3.7713,-3.8294,-3.8688,-3.8958,-3.9754,-4.0079,-3.9973,-4.0266,-4.0328,-4.0215,-4.0307,-4.0306,-4.0194,-3.949,-3.8879,-3.8303,-3.7723,-3.7526,-3.752,-3.7086,-3.7285,-3.7753,-3.7908,-3.8366,-3.8861,-3.8861,-3.8613,-3.8194,-3.7618,0.0,0.0,0.0,0.0,-3.7051,-3.7224,-3.8233,-3.9204,-3.9332,-3.99,-4.0255,-3.9583,-3.9546,-3.9052,-3.7011,-3.6844,-3.6394,-3.4282,-3.4121,0.0,-3.168,-3.2007,-3.2269,-3.1726,-3.2045,-3.2374,-3.2466,-3.1505,-3.0846,-3.0807,-3.0018,-2.9589,-2.9683,-2.9589,-2.9589,-2.9683,-2.9664,-2.9064,-2.7843,0.0,0.0,0.0,0.0,0.0,0.0,0.0,0.0,0.0,0.0,0.0,0.0,0.0,0.0,0.0,0.0,0.0,0.0,0.0,0.0,0.0,0.0,0.0,0.0,0.0,0.0,0.0,0.0,0.0,-3.1808,-3.1994,0.0,0.0,0.0,0.0,-3.2419,-3.379,-3.4641,-3.4696,-3.6182,-3.7109,-3.7272,-3.731,-3.7747,-3.8643,-3.8722,-3.914,-3.9832,-4.084,-4.088,-4.0115,-4.1074,-4.1073,-4.0307,-4.0375,-4.0389,-4.0389,-4.0339,-4.0266,-4.0173,-4.0189,-4.0206,-4.03,-4.1086,-4.1358,-4.1436,-4.2202,-4.2508,-4.2526,-4.2526,-4.1457,-4.0158,-4.0043,-3.888,0.0,0.0,-3.8651,-3.888,-3.9698,-4.0063,-4.0248,-4.0315,-4.0419,-4.0519,-4.0602,-4.061,-3.983,-3.7113,-3.7362,-3.6993,-3.3724,0.0,-3.345,-3.0942,-3.1142,-3.1814,-3.2554,-3.2488,-3.2691,-3.345,-3.2014,-3.1015,-3.1072,-3.0227,-2.9738,-2.9878,-2.9756,-2.9738,-2.9878,-2.9825,-2.9787,-2.9763,-2.9758,0.0,0.0,0.0,0.0,0.0,0.0,0.0,0.0,0.0,0.0,0.0,0.0,0.0,0.0,0.0,0.0,0.0,0.0,0.0,0.0,0.0,0.0,0.0,0.0,0.0,0.0,0.0,0.0,-3.192,-3.2084,0.0,-3.3918,-3.3934,-3.4298,-3.5413,-3.6015,-3.6373,-3.6474,-3.7511,-3.8159,-3.8283,-3.8855,-3.9315,-3.9661,-4.0253,-4.0692,-4.0997,-4.1896,-4.2164,-4.1934,-4.2368,-4.2398,-4.2069,-4.1594,-4.1686,-4.2167,-4.1601,-4.1322,-4.127,-4.1338,-4.1668,-4.204,-4.1857,-4.2057,-4.2468,-4.2774,-4.2851,-4.2852,-4.2852,-4.2431,-4.1896,-4.1877,-4.1112,-4.0423,-4.117,-4.0597,-3.9966,-4.0844,-4.0725,-4.0389,-4.05,-4.0574,-4.0629,-4.0688,-4.0725,-4.0312,-3.8781,-3.8762,-3.8085,-3.5191,-3.5367,-3.5412,-3.3947,-3.3851,-3.4044,-3.4339,-3.4227,-3.4257,-3.4545,-3.3466,-3.252,-3.1973,-3.1162,-3.0236,-2.919,-2.9574,-2.9647,-2.9213,-2.9706,-2.976,-2.9269,-2.9289,-2.8427,0.0,0.0,0.0,0.0,0.0,0.0,0.0,0.0,0.0,0.0,0.0,0.0,0.0,0.0,0.0,0.0,0.0,0.0,0.0,0.0,0.0,0.0,0.0,0.0,0.0,-3.0045,-3.1035,-3.235,-3.2678,-3.3321,-3.4703,-3.497,-3.5641,-3.7096,-3.7498,-3.7716,-3.7842,-3.8641,-3.9159,-3.9279,-3.9872,-4.0215,-4.0269,-4.1148,-4.1607,-4.1644,-4.2754,-4.3193,-4.2979,-4.339,-4.3416,-4.3104,-4.2584,-4.2695,-4.3183,-4.2917,-4.2757,-4.2668,-4.211,-4.221,-4.2563,-4.2067,-4.2171,-4.2631,-4.3208,-4.3573,-4.3803,-4.3805,-4.3595,-4.3309,-4.3309,-4.279,-4.2253,-4.2755,-4.2085,-4.1372,-4.1961,-4.1726,-4.1289,-4.1123,-4.1113,-4.1105,-4.0831,-4.0807,-4.0585,-3.9702,-3.9533,-3.8899,-3.6849,-3.6921,-3.6974,-3.6068,-3.5853,-3.5686,-3.5377,-3.5223,-3.5174,-3.516,-3.4344,-3.347,-3.2618,-3.1483,-3.0231,-2.8844,-2.9251,-2.919,-2.846,-2.9256,-2.9322,-2.8549,-2.8396,-2.8018,-2.7359,0.0,0.0,0.0,0.0,0.0,0.0,0.0,0.0,0.0,0.0,0.0,0.0,0.0,0.0,0.0,0.0,0.0,0.0,0.0,0.0,0.0,0.0,0.0,-3.017,-3.126,-3.236,-3.3229,-3.3919,-3.4708,-3.5656,-3.5878,-3.6346,-3.7231,-3.8134,-3.8674,-3.8738,-3.9599,-4.0118,-4.0215,-4.0339,-4.0425,-4.0444,-4.1377,-4.1819,-4.1805,-4.3492,-4.391,-4.3214,-4.4087,-4.4056,-4.3284,-4.333,-4.3311,-4.3361,-4.4239,-4.4573,-4.4375,-4.2641,-4.2005,-4.203,-4.2077,-4.2063,-4.2251,-4.3879,-4.4941,-4.5596,-4.562,-4.5045,-4.4335,-4.4335,-4.3756,-4.3102,-4.314,-4.3082,-4.3022,-4.3069,-4.3119,-4.297,-4.2189,-4.2054,-4.1889,-4.1102,-4.0927,-4.0645,-3.98,-3.9626,-3.9323,-3.8449,-3.8283,-3.792,-3.6948,-3.68,0.0,-3.5542,-3.5364,-3.5315,-3.5315,-3.4557,-3.3719,-3.2876,-3.1178,-2.9813,-2.8957,-2.8874,-2.8498,-2.7778,-2.8523,-2.8606,-2.7857,-2.7297,-2.7489,-2.8483,0.0,0.0,0.0,0.0,0.0,0.0,0.0,0.0,0.0,0.0,0.0,0.0,0.0,0.0,0.0,0.0,0.0,0.0,0.0,0.0,0.0,-3.0901,-3.1758,-3.1632,-3.2331,-3.3131,-3.3888,-3.4679,-3.5559,-3.655,-3.7244,-3.806,-3.9085,-3.9394,-3.9612,-3.9794,-4.0043,-4.0233,-4.0339,-4.0441,-4.0789,-4.1475,-4.2377,-4.313,-4.3732,-4.4214,-4.4673,-4.504,-4.4669,-4.4718,-4.5037,-4.4492,-4.457,-4.5051,-4.4736,-4.4916,-4.5341,-4.4221,-4.4133,-4.4596,-4.4076,-4.423,-4.4781,-4.5259,-4.5519,-4.5665,-4.5735,-4.5545,-4.5321,-4.5321,-4.4315,-4.3303,-4.394,-4.2811,-4.1577,-4.2209,-4.2357,-4.2286,-4.211,-4.2083,-4.2047,-4.1877,-4.1354,-4.082,-4.0597,-4.0082,-3.9393,-3.8459,-3.8733,-3.8569,-3.7076,-3.6839,-3.6505,-3.565,-3.5522,-3.5495,-3.546,-3.5235,-3.4477,-3.2915,-3.234,-3.1178,-2.9098,-2.9538,-2.9513,-2.8676,-2.9462,-2.9545,-2.876,-2.7588,-2.7328,0.0,0.0,0.0,0.0,0.0,0.0,0.0,0.0,0.0,0.0,0.0,0.0,0.0,0.0,0.0,0.0,0.0,0.0,0.0,0.0,0.0,0.0,-3.2263,-3.3031,-3.3261,-3.3529,-3.3881,-3.4353,-3.5152,-3.604,-3.7028,-3.7973,-3.8915,-3.9897,-4.0038,-4.0118,-4.0234,-4.0307,-4.0372,-4.0485,-4.0926,-4.1434,-4.1976,-4.3215,-4.4059,-4.4554,-4.4882,-4.5312,-4.5781,-4.5274,-4.5341,-4.5808,-4.5364,-4.5402,-4.5815,-4.5383,-4.5448,-4.575,0.0,0.0,0.0,0.0,-4.4621,-4.5338,-4.5338,-4.5537,-4.5786,-4.5833,-4.5819,-4.5786,-4.5786,-4.5104,-4.444,-4.4943,-4.4041,-4.3051,-4.3555,-4.3671,-4.3567,-4.3261,-4.2923,-4.2565,-4.2306,-4.1567,-4.0935,-4.0952,-4.0537,0.0,-3.9471,-3.9146,-3.8605,-3.7602,-3.7448,-3.6991,-3.5758,-3.5917,-3.5982,-3.5599,-3.5528,-3.4976,-3.3557,-3.2756,0.0,0.0,0.0,-2.9557,-2.9027,-2.9154,0.0,0.0,0.0,-2.79,-2.8262,-2.89,0.0,0.0,-2.8171,-2.7913,0.0,0.0,0.0,0.0,0.0,0.0,0.0,0.0,0.0,0.0,0.0,0.0,0.0,0.0,0.0,0.0,-3.3427,-3.413,-3.4868,-3.4776,-3.4648,-3.4837,-3.5571,-3.644,-3.7379,-3.8379,-3.9278,-4.006,-4.0234,-4.0306,-4.0306,-4.0537,0.0,0.0,0.0,-4.2296,-4.2399,-4.3928,-4.4718,-4.4769,-4.5369,-4.5722,-4.5795,-4.5722,-4.575,-4.5906,-4.5925,-4.5917,-4.5917,-4.596,-4.5956,-4.5815,-4.4993,-4.4697,-4.4666,-4.3947,-4.4184,-4.4835,-4.4831,0.0,0.0,-4.5917,-4.5898,-4.5898,-4.5898,-4.584,-4.5794,-4.5794,-4.5716,-4.5638,-4.5638,-4.5716,-4.5611,-4.4877,-4.412,-4.3364,-4.2613,-4.1758,-4.1116,-4.1018,-4.096,-4.0917,-4.0907,-3.9597,-3.8526,-3.838,-3.8307,-3.768,-3.5975,-3.6339,-3.6466,-3.5693,-3.5604,0.0,-3.4357,-3.2879,-3.1576,-3.0632,-2.9748,-2.9229,-2.9173,-2.8468,-2.8065,-2.7999,-2.8574,-2.8951,-2.9071,-2.9832,-3.0151,-3.0019,-2.9101,-2.895,0.0,0.0,0.0,0.0,0.0,0.0,0.0,0.0,0.0,0.0,0.0,0.0,0.0,0.0,0.0,-3.375,-3.4431,-3.5145,-3.6052,-3.5989,-3.5831,-3.575,-3.6549,-3.7485,-3.8421,-3.9318,-3.9967,-4.0233,-4.0325,-4.0411,-4.0457,-4.1204,-4.1677,-4.1802,-4.262,-4.3463,-4.4277,-4.4552,-4.5064,-4.5716,-4.5168,0.0,-4.586,-4.5209,-4.5279,-4.5906,-4.5968,-4.5949,-4.5917,-4.596,-4.5949,-4.5873,-4.5699,-4.5635,-4.5634,-4.5534,-4.5572,-4.5677,-4.5731,-4.5847,-4.5972,-4.5975,-4.5986,-4.5986,-4.5986,-4.553,0.0,-4.5007,-4.4549,-4.405,-4.4053,-4.453,-4.4977,-4.4831,-4.4657,-4.4307,-4.3517,-4.2669,-4.1852,-4.114,-4.0988,-4.0952,-4.0917,-4.0576,-4.0095,-3.9428,-3.8701,-3.7865,-3.6859,-3.6258,-3.585,-3.562,-3.5601,-3.5261,-3.4369,-3.399,-3.3141,-3.1637,-3.0719,-3.0197,-3.0144,-2.9971,-2.9883,-2.9886,-2.9958,-3.0004,-3.003,-3.0203,-3.0272,-3.024,-2.9832,-2.9653,0.0,0.0,0.0,0.0,0.0,0.0,0.0,0.0,0.0,0.0,0.0,-3.0404,-3.2061,0.0,-3.3962,-3.5213,-3.5637,-3.6119,-3.7015,-3.7064,-3.6938,-3.6824,-3.7565,-3.8308,-3.8898,-3.9735,-4.0321,-4.0438,-4.0927,-4.1219,-4.1252,-4.2105,-4.2654,-4.2745,-4.3571,-4.4264,-4.4793,-4.516,-4.5564,-4.5991,-4.5553,-4.5549,-4.588,-4.5479,-4.5549,-4.5949,-4.5991,-4.6003,-4.5994,-4.6003,-4.6003,-4.5994,-4.596,-4.5941,-4.5964,-4.6025,-4.6035,-4.6007,-4.6027,-4.6047,-4.6047,-4.6056,-4.6037,-4.6134,-4.6562,-4.6124,-4.5531,-4.5978,-4.549,-4.4845,-4.4857,-4.514,-4.5451,-4.5451,-4.5112,-4.4703,-4.4339,-4.3561,-4.2829,-4.2388,-4.1953,-4.1646,-4.161,-4.1189,-4.0567,-3.9732,-3.9189,-3.8433,-3.7152,-3.7007,-3.6648,-3.5755,-3.5648,-3.5463,-3.5035,-3.4191,-3.2971,-3.1253,-3.0741,-3.0479,-3.0439,-3.0458,-3.0436,-3.041,-3.0394,-3.0386,-3.0352,-3.0371,-3.0379,-3.0348,-3.0221,-3.006,0.0,0.0,0.0,0.0,0.0,0.0,0.0,-2.9135,-2.9912,-3.0886,-3.1178,-3.186,-3.3863,-3.4494,-3.5143,-3.6444,-3.6743,-3.7137,-3.799,-3.8108,-3.8118,-3.8206,-3.8611,-3.903,-3.9361,-4.0041,-4.05,-4.0635,-4.1506,-4.2022,-4.2024,-4.3024,-4.361,-4.3673,-4.4508,-4.4995,-4.5036,-4.5666,-4.5994,-4.5991,-4.5991,-4.596,-4.5917,-4.5929,-4.5953,-4.5997,-4.6014,-4.6055,-4.6095,-4.6035,-4.6046,-4.6085,-4.6047,-4.6037,-4.6047,-4.6085,-4.6104,-4.6102,-4.6111,-4.613,-4.6111,-4.6119,-4.6119,-4.6255,-4.6956,-4.6683,-4.6275,-4.6975,-4.6664,-4.6119,-4.6119,-4.6119,-4.6119,-4.6119,-4.5574,-4.5029,-4.4915,-4.435,-4.3766,-4.3429,-4.2799,-4.2266,-4.2084,-4.1439,-4.0699,-3.9976,-3.9723,-3.9034,-3.7453,-3.7715,-3.7444,-3.5873,-3.5699,-3.5631,-3.5445,-3.4002,-3.2434,-3.0878,-3.0617,-3.051,-3.053,-3.053,-3.0479,-3.0436,-3.05,-3.0501,-3.0471,-3.05,-3.05,-3.0441,-3.0436,-3.0299,-2.8434,-2.8136,-2.8239,-2.9027,-2.9273,-2.9543,0.0,-3.0431,-3.0917,-3.2483,-3.3422,-3.406,-3.432,-3.5596,-3.6659,-3.6833,-3.7467,-3.8228,-3.909,-3.9174,-3.945,-4.0256,-3.9702,-3.9565,-4.0347,-4.0582,-4.07,-4.0776,-4.1582,-4.2083,-4.2091,-4.3703,-4.4646,-4.4637,-4.5492,-4.591,-4.5867,-4.5902,-4.5929,-4.5991,-4.5949,-4.5949,-4.5991,-4.5994,-4.5975,-4.6003,-4.6056,-4.6095,-4.6105,-4.6095,-4.6084,-4.6093,-4.6093,-4.6122,-4.6177,-4.6122,-4.6111,-4.6107,-4.6169,-4.6189,-4.6196,-4.6189,-4.6189,-4.6216,-4.6293,-4.6273,-4.6215,-4.6312,-4.6254,-4.6195,-4.6195,-4.6195,-4.6195,-4.6195,-4.6111,-4.5832,-4.5069,-4.4824,-4.4312,-4.2824,-4.2465,-4.2114,-4.1292,-4.111,-4.1026,-4.0874,-4.012,-3.9247,-3.8277,-3.755,-3.6775,-3.5795,-3.5687,-3.5386,-3.4612,-3.3655,-3.2716,-3.1806,-3.103,-3.0585,-3.0586,-3.0586,-3.0586,-3.0577,-3.0586,-3.0604,-3.0676,-3.0604,-3.0576,-3.0585,-3.0521,-3.0428,-2.9172,-2.8951,-2.904,-2.941,-2.9871,-3.0472,-3.1267,-3.1825,-3.2497,-3.3669,-3.4204,-3.4602,-3.5124,-3.6192,-3.719,-3.7686,-3.8471,-3.9326,-4.0169,-4.0255,-4.0382,-4.0771,-4.0463,-4.0365,-4.0681,-4.0776,-4.0834,-4.0859,-4.215,-4.2928,-4.2974,-4.4627,-4.5551,-4.5561,-4.5862,-4.6026,-4.6005,-4.5929,-4.5929,-4.5991,-4.596,-4.596,-4.5991,-4.6005,-4.5997,-4.6005,-4.6076,-4.6095,-4.6105,-4.6104,-4.6122,-4.6158,-4.6166,-4.6189,-4.6203,-4.6162,-4.6169,-4.6222,-4.6768,-4.6969,-4.7047,-4.7552,-4.7376,-4.7059,-4.7571,-4.7006,-4.6401,-4.7435,-4.7357,-4.6967,-4.6967,-4.6967,-4.683,-4.6312,-4.6195,-4.6098,-4.5747,-4.5649,-4.5298,-4.4083,-4.3485,-4.2861,-4.1922,-4.1389,-4.0902,-4.0334,-4.033,-4.0107,-3.9226,-3.8354,-3.7298,-3.5912,-3.5718,-3.5145,-3.3761,-3.3316,-3.2532,-3.1234,-3.0798,-3.0621,-3.0657,-3.0657,-3.0657,-3.0657,-3.0661,-3.0676,-3.0703,-3.0661,-3.0645,-3.0602,-3.0568,-3.054,-3.0192,-2.9853,-2.9669,-3.041,-3.0877,-3.1421,-3.2483,-3.3206,-3.3894,-3.4722,-3.4897,-3.5079,-3.5702,-3.6545,-3.7401,-3.8284,-3.9155,-4.0011,-4.0843,-4.0941,-4.0929,-4.0949,-4.096,-4.0935,-4.0898,-4.0908,-4.0927,-4.0921,-4.2536,-4.3556,-4.3596,-4.5196,-4.6104,-4.6095,-4.6047,-4.5997,-4.5975,-4.591,-4.5917,-4.596,-4.596,-4.5972,-4.6014,-4.5986,-4.6007,-4.6037,-4.6075,-4.6113,-4.6123,-4.6122,-4.6166,-4.6201,-4.6196,-4.6352,-4.6534,-4.632,-4.6365,-4.663,-4.7025,-4.7479,-4.7928,-4.8343,-4.803,-4.7616,-4.8265,-4.7426,-4.6489,-4.7757,-4.7835,-4.7465,-4.7231,-4.7348,-4.7309,-4.6421,-4.6226,-4.6231,-4.6226,-4.6011,-4.5582,-4.4738,-4.3899,-4.3056,-4.2136,-4.1284,-4.0518,-3.9831,-4.0244,-4.0249,-3.9135,-3.8216,-3.7199,-3.5902,-3.5514,-3.4729,-3.3238,-3.2909,-3.2145,-3.0681,-3.0613,-3.0649,-3.07,-3.0707,-3.0688,-3.0661,-3.0697,-3.0711,-3.0697,-3.0697,-3.0668,-3.0602,-3.0606,-3.0598,-3.1476,-3.0745,-3.0101,-3.2656,-3.2663,-3.2491,-3.4135,-3.4535,-3.4812,-3.5671,-3.5858,-3.5878,-3.5891,-3.6618,-3.7475,-3.8357,-3.9234,-4.0097,-4.0972,-4.1046,-4.1025,-4.1085,-4.11,-4.1081,-4.1085,-4.1032,-4.1007,-4.1006,-4.2599,-4.36,-4.3598,-4.5184,-4.6093,-4.6093,-4.6095,-4.6026,-4.5898,-4.5886,-4.5886,-4.5886,-4.5886,-4.5941,-4.5997,-4.5997,-4.6037,-4.6095,-4.6104,-4.6149,-4.6205,-4.6208,-4.6196,-4.6196,-4.6196,-4.6729,-4.7379,-4.6587,-4.6791,-4.7357,-4.6596,-4.7396,-4.8649,-4.7877,-4.7576,-4.7528,-4.76,-4.7002,-4.6319,-4.6358,-4.6963,-4.7389,-4.6569,-4.696,-4.737,-4.6495,-4.6292,-4.6308,-4.6296,-4.5581,-4.469,-4.388,-4.3036,-4.2164,-4.1295,-4.0413,-3.9822,-3.9805,-3.9753,-3.9112,-3.74,-3.6423,-3.5824,-3.5718,-3.4933,-3.4071,-3.3189,-3.2377,-3.1553,-3.066,-3.0665,-3.07,-3.07,-3.0703,-3.0664,-3.0603,-3.0678,-3.0691,-3.0691,-3.0697,-3.0668,-3.0602,-3.0604,-3.0578,-3.1107,-3.1596,-3.2154,-3.246,-3.3195,-3.3975,-3.4537,-3.5112,-3.5602,-3.5909,-3.5968,-3.5968,-3.5968,-3.6645,-3.7307,-3.7653,-3.8882,-3.9911,-4.0194,-4.0725,-4.1066,-4.1097,-4.1104,-4.1104,-4.109,-4.1085,-4.1065,-4.1066,-4.2641,-4.3604,-4.359,-4.52,-4.6113,-4.6095,-4.6066,-4.5997,-4.5975,-4.591,-4.5917,-4.596,-4.596,-4.5994,-4.6066,-4.6026,-4.6047,-4.6104,-4.6093,-4.6138,-4.6208,-4.6209,-4.6203,-4.6195,-4.6245,-4.6445,-4.6738,-4.7049,-4.7331,-4.7526,-4.7253,-4.7522,-4.815,-4.899,-4.8482,-4.7776,-4.8909,-4.8287,-4.7274,-4.786,-4.8621,-4.8931,-4.7533,-4.7803,-4.8096,-4.6644,-4.6292,-4.6296,-4.6292,-4.605,-4.5401,-4.3981,-4.345,-4.2798,-4.1354,-4.0866,-4.0257,-3.9039,-3.8843,-3.8626,-3.8041,-3.7199,-3.6435,-3.5834,-3.4982,-3.4119,-3.3238,-3.2385,-3.1521,-3.066,-3.0665,-3.0673,-3.0637,-3.0626,-3.0634,-3.068,-3.1266,-3.1552,-3.1552,-3.2142,-3.2407,-3.2384,-3.2349,-3.2023,-3.198,-3.2517,-3.3021,-3.3398,-3.4095,-3.4788,-3.5096,-3.5594,-3.5997,-3.6001,-3.6007,-3.5991,-3.5999,-3.6423,-3.6894,-3.7246,-3.8202,-3.9115,-3.9758,-4.0324,-4.0779,-4.1077,-4.1094,-4.1104,-4.1097,-4.1383,-4.1542,-4.1534,-4.2817,-4.3733,-4.4007,-4.536,-4.6095,-4.6095,-4.6037,-4.5997,-4.6005,-4.5972,-4.596,-4.5994,-4.6016,-4.6056,-4.6095,-4.6056,-4.6075,-4.6149,-4.6138,-4.6162,-4.6209,-4.6209,-4.6201,-4.6206,-4.626,-4.6475,-4.6806,-4.7389,-4.7595,-4.7598,-4.7592,-4.7806,-4.8184,-4.8965,-4.8685,-4.8213,-4.8965,-4.845,-4.7653,-4.7907,-4.8571,-4.8882,-4.7508,-4.7774,-4.8076,-4.6644,-4.6296,-4.63,-4.6292,-4.582,-4.5035,-4.3923,-4.3197,-4.2422,-4.1295,-4.0847,-4.0129,-3.8663,-3.8162,-3.7848,-3.7506,-3.6984,-3.6423,-3.5851,-3.5027,-3.4263,-3.3683,-3.2859,-3.1995,-3.1114,-3.1366,-3.1413,-3.1083,-3.1366,-3.125,-3.0684,-3.1523,-3.2023,-3.2147,-3.2603,-3.2999,-3.3296,-3.3257,-3.2783,-3.3809,-3.3414,-3.2872,-3.5273,-3.5286,-3.491,-3.5745,-3.5938,-3.596,-3.5986,-3.5995,-3.5996,-3.5996,-3.5996,-3.6268,-3.7102,-3.7303,-3.7949,-3.9607,-3.991,-4.0232,-4.1013,-4.1091,-4.1091,-4.1091,-4.1855,-4.2344,-4.2362,-4.3183,-4.3974,-4.4709,-4.5589,-4.6105,-4.6105,-4.6037,-4.6016,-4.6003,-4.6003,-4.6014,-4.6007,-4.6075,-4.6093,-4.6102,-4.6093,-4.6149,-4.6193,-4.6189,-4.6209,-4.6209,-4.624,-4.6265,-4.6289,-4.6338,-4.6869,-4.7591,-4.7643,-4.7637,-4.7608,-4.7692,-4.8186,-4.8643,-4.7846,-4.8131,-4.8626,-4.7881,-4.7647,-4.7422,-4.6601,-4.6992,-4.7461,-4.6543,-4.6946,-4.7373,-4.6515,-4.63,-4.63,-4.63,-4.4965,-4.3747,-4.3708,-4.2286,-4.1095,-4.1095,-4.0382,-3.9526,-3.8689,-3.7819,-3.6929,-3.5986,-3.5823,-3.5795,-3.5799,-3.5022,-3.4473,-3.4429,-3.3674,-3.2841,-3.2025,-3.2686,-3.2763,-3.2011,-3.277,-3.2404,-3.0709,-3.1568,-3.2144,-3.2407,-3.2266,-3.2629,-3.3433,-3.3426,-3.2908,-3.2722,-3.3858,-3.4841,-3.4219,-3.4388,-3.4756,-3.4978,-3.5038,-3.5195,-3.5799,-3.593,-3.5923,-3.5935,-3.5927,-3.6007,-3.6284,-3.7382,-3.8366,-3.8864,-4.0019,-4.0879,-4.1074,-4.1094,-4.1094,-4.1092,-4.1308,-4.1952,-4.3251,-4.4106,-4.4373,-4.3927,-4.5305,-4.6091,-4.6091,-4.6127,-4.6138,-4.6074,-4.6075,-4.6075,-4.6075,-4.6093,-4.6122,-4.6177,-4.6122,-4.6146,-4.619,-4.6203,-4.6222,-4.6314,-4.6923,-4.7201,-4.7249,-4.7253,-4.7799,-4.8545,-4.8568,-4.8167,-4.7784,-4.9082,-4.8415,-4.7037,-4.7459,-4.7317,-4.7164,-4.8242,-4.8125,-4.7558,-4.7324,-4.7891,-4.8223,-4.6699,-4.6953,-4.738,-4.651,-4.6306,-4.63,-4.63,-4.541,-4.4421,-4.3825,-4.2286,-4.1095,-4.1095,-4.0382,-3.9715,-3.9434,-3.8695,-3.7819,-3.6883,-3.6192,-3.5815,-3.5864,-3.5045,-3.4517,-3.4556,-3.3759,-3.3169,-3.2884,-3.3056,-3.3067,-3.2876,-3.3081,-3.2809,-3.1956,-3.3195,-3.3367,-3.2404,-3.4039,-3.4975,-3.5236,-3.5243,-3.4413,-3.3161,-3.4317,-3.5292,-3.4686,-3.4629,-3.4707,-3.4699,-3.4691,-3.4825,-3.5235,-3.5623,-3.589,-3.589,-3.5903,-3.5917,-3.5951,-3.6754,-3.7519,-3.7968,-3.9139,-4.0098,-4.0477,-4.0869,-4.1105,-4.1108,-4.1451,-4.1919,-4.2518,-4.3683,-4.4317,-4.4172,-4.5423,-4.5974,-4.5592,-4.5981,-4.6176,-4.6142,-4.6135,-4.6146,-4.6146,-4.6146,-4.6154,-4.6201,-4.6154,-4.6169,-4.6203,-4.6203,-4.624,-4.6362,-4.7205,-4.7346,-4.712,-4.7861,-4.8232,-4.8411,-4.9192,-4.8912,-4.8317,-4.9291,-4.843,-4.6949,-4.745,-4.7276,-4.6986,-4.7581,-4.7686,-4.7515,-4.7148,-4.7383,-4.7539,-4.6543,-4.666,-4.6914,-4.6419,-4.629,-4.63,-4.63,-4.5586,-4.4577,-4.3363,-4.2036,-4.1103,-4.1103,-4.0688,-4.0221,-3.9765,-3.9318,-3.8714,-3.7838,-3.6954,-3.6421,-3.6476,-3.5658,-3.5118,-3.5125,-3.4683,-3.4214,-3.3798,-3.4093,-3.4135,-3.3789,-3.4109,-3.3916,-3.3121,-3.4011,-3.4048,-3.3142,-3.4591,-3.5468,-3.5859,-3.5892,-3.5172,-3.407,-3.4527,-3.4718,-3.5457,-3.4988,-3.4344,-3.4345,-3.4436,-3.4525,-3.4581,-3.5293,-3.5884,-3.5892,-3.5891,-3.5883,-3.5894,-3.5977,-3.6338,-3.716,-3.7971,-3.8809,-3.9696,-4.046,-4.0971,-4.1088,-4.1777,-4.1968,-4.1322,-4.2675,-4.3833,-4.4523,-4.5501,-4.569,-4.4947,-4.5768,-4.6209,-4.6209,-4.6209,-4.6203,-4.6203,-4.6203,-4.6203,-4.6203,-4.6203,-4.619,-4.6209,-4.6201,-4.6236,-4.6366,-4.7233,-4.7217,-4.6794,-4.8314,-4.8568,-4.8255,-4.955,-4.9623,-4.9062,-4.9062,-4.8437,-4.7577,-4.7467,-4.7439,-4.7295,-4.6534,-4.6827,-4.7263,-4.6501,-4.6308,-4.6308,-4.6308,-4.6308,-4.6308,-4.6301,-4.6293,-4.63,-4.63,-4.5609,-4.4441,-4.2596,-4.1701,-4.1227,-4.113,-4.111,-4.0812,-4.0,-3.9882,-3.9629,-3.8923,-3.7877,-3.7189,-3.719,-3.6417,-3.5885,-3.5827,-3.5811,-3.5485,-3.4722,-3.5327,-3.5398,-3.4691,-3.533,-3.5243,-3.4236,-3.4507,-3.4544,-3.4315,-3.4605,-3.5106,-3.5794,-3.5866,-3.5418,-3.3253,-3.3579,-3.3656,-3.3739,-3.3145,-3.2547,-3.2483,-3.3025,-3.3738,-3.4458,-3.5242,-3.5815,-3.5811,-3.583,-3.5823,-3.5823,-3.6414,-3.6941,-3.7105,-3.789,-3.8764,-3.9692,-3.9923,-4.0317,-4.1039,-4.1238,-4.1553,-4.2123,-4.2454,-4.2695,-4.2837,-4.4344,-4.5137,-4.4985,-4.5831,-4.6275,-4.6275,-4.6226,-4.6201,-4.6201,-4.6201,-4.6201,-4.6201,-4.6209,-4.6209,-4.6206,-4.6206,-4.6245,-4.6368,-4.7237,-4.793,-4.849,-4.878,-4.9651,-5.0617,-4.9527,-4.9492,-4.9961,-4.9961,-4.8923,-4.7484,-4.6755,-4.6534,-4.6495,-4.6358,-4.6417,-4.6498,-4.6345,-4.6303,-4.6308,-4.6308,-4.6308,-4.6308,-4.6293,-4.6303,-4.63,-4.63,-4.5562,-4.4211,-4.1785,-4.1734,-4.189,-4.1208,-4.111,-4.1026,-4.0818,-4.0818,-4.0786,-4.0578,-3.8548,-3.7141,-3.7183,-3.6424,-3.5905,-3.5879,-3.5879,-3.5794,-3.5593,-3.5713,-3.5706,-3.5495,-3.5621,-3.5602,-3.5408,-3.5447,-3.5476,-3.5427,-3.5475,-3.5609,-3.5801,-3.5801,-3.5363,-3.24,-3.2927,-3.3341,-3.3307,-3.2664,-3.2166,-3.2578,-3.2992,-3.3536,-3.4379,-3.5212,-3.5799,-3.5803,-3.5795,-3.5815,-3.585,-3.6165,-3.6452,-3.6475,-3.719,-3.7897,-3.838,-3.8848,-3.9462,-4.034,-4.0411,-4.0776,-4.1668,-4.2554,-4.3085,-4.3084,-4.4301,-4.5207,-4.5656,-4.6081,-4.6292,-4.6292,-4.6264,-4.6255,-4.6255,-4.6211,-4.6206,-4.6206,-4.6195,-4.622,-4.6255,-4.6245,-4.6279,-4.6365,-4.7237,-4.7849,-4.8306,-4.9221,-5.0064,-5.0736,-5.0331,-5.0467,-5.0754,-5.0342,-4.9637,-4.8697,-4.7393,-4.6664,-4.63,-4.63,-4.63,-4.63,-4.63,-4.6297,-4.6307,-4.6308,-4.6308,-4.6306,-4.6295,-4.6306,-4.6296,-4.6269,-4.5202,-4.3899,-4.2643,-4.202,-4.1533,-4.1117,-4.1085,-4.1085,-4.1013,-4.1032,-4.1039,-4.1006,-3.9517,-3.8303,-3.7929,-3.7507,-3.6898,-3.5986,-3.6703,-3.6988,-3.6511,-3.6479,-3.6454,-3.6386,-3.5941,-3.5708,-3.5708,-3.6154,-3.6154,-3.5708,-3.6619,-3.6823,-3.6357,-3.6357,-3.6154,-3.2,-3.2361,-3.2765,-3.2947,-3.2357,-3.1954,-3.2817,-3.3167,-3.3536,-3.4326,-3.5185,-3.5807,-3.5795,-3.5803,-3.5803,-3.5857,-3.5807,-3.5795,-3.5866,-3.6417,-3.6917,-3.7175,-3.7976,-3.8844,-3.9731,-3.9977,-4.0369,-4.105,-4.2711,-4.3787,-4.3965,-4.464,-4.5311,-4.5994,-4.6206,-4.63,-4.63,-4.6292,-4.6308,-4.6308,-4.626,-4.6216,-4.6216,-4.6226,-4.6255,-4.6292,-4.6309,-4.6294,-4.6362,-4.7237,-4.7712,-4.8033,-4.9589,-5.0283,-5.0508,-5.0976,-5.1247,-5.1288,-5.0477,-5.0035,-4.9617,-4.8298,-4.7276,-4.6534,-4.6368,-4.6306,-4.63,-4.63,-4.629,-4.6301,-4.6308,-4.6306,-4.6297,-4.6297,-4.6309,-4.6175,-4.5763,-4.4763,-4.3777,-4.3162,-4.213,-4.1279,-4.1045,-4.1059,-4.1085,-4.1013,-4.1013,-4.1013,-4.1013,-4.0415,-3.9694,-3.8864,-3.8604,-3.7942,-3.6562,-3.7657,-3.8089,-3.7393,-3.7364,-3.7327,-3.7254,-3.6607,-3.6074,-3.5704,-3.6538,-3.6908,-3.6744,-3.7577,-3.771,-3.7181,-3.7181,-3.7096,-3.2605,-3.1835,-3.1047,-3.182,-3.1421,-3.1041,-3.1921,-3.272,-3.3531,-3.433,-3.5185,-3.5795,-3.5799,-3.5799,-3.5782,-3.5727,-3.5718,-3.5726,-3.5791,-3.5881,-3.6227,-3.7094,-3.7971,-3.8838,-3.9728,-4.0516,-4.1016,-4.1082,-4.2705,-4.4059,-4.4842,-4.4957,-4.5034,-4.5128,-4.5899,-4.63,-4.63,-4.63,-4.63,-4.63,-4.63,-4.6296,-4.6296,-4.6296,-4.6284,-4.6293,-4.6308,-4.6292,-4.6371,-4.724,-4.8078,-4.8864,-4.9763,-5.0583,-5.1211,-5.0547,-5.0761,-5.1288,-5.0487,-4.9677,-4.8978,-4.8759,-4.8135,-4.7338,-4.654,-4.6301,-4.63,-4.63,-4.6303,-4.629,-4.6307,-4.6301,-4.6303,-4.6303,-4.6292,-4.5865,-4.4261,-4.4387,-4.4091,-4.1694,-4.174,-4.1935,-4.114,-4.1064,-4.1085,-4.1013,-4.1059,-4.1085,-4.1085,-4.1026,-4.0637,-3.9766,-3.8967,-3.8435,-3.8267,-3.8338,-3.8342,-3.82,-3.819,-3.8158,-3.8085,-3.8013,-3.7243,-3.5734,-3.6489,-3.7974,-4.0153,-3.8047,-3.739,-3.8073,-3.8073,-3.7684,-3.1769,-3.128,-3.0617,-3.0965,-3.0862,-3.1006,-3.2399,-3.3021,-3.3679,-3.5018,-3.5554,-3.5815,-3.585,-3.5823,-3.5795,-3.5815,-3.5829,-3.5826,-3.5866,-3.5859,-3.5988,-3.6376,-3.7199,-3.8053,-3.8922,-3.9806,-4.0977,-4.2546,-4.3798,-4.4856,-4.5742,-4.5779,-4.5776,-4.5774,-4.6114,-4.63,-4.63,-4.63,-4.63,-4.63,-4.63,-4.6573,-4.7061,-4.6534,-4.6869,-4.781,-4.6765,-4.6589,-4.7107,-4.7451,-4.8108,-4.8921,-4.9256,-5.0214,-5.1308,-5.0508,-5.0703,-5.1289,-5.0485,-5.0298,-5.0223,-4.9208,-4.8974,-4.8841,-4.7486,-4.6727,-4.6412,-4.692,-4.67,-4.6309,-4.6307,-4.6307,-4.6301,-4.6306,-4.6308,-4.5963,-4.469,-4.4674,-4.4286,-4.2181,-4.2052,-4.202,-4.1155,-4.1052,-4.1085,-4.1059,-4.1085,-4.111,-4.111,-4.111,-4.0948,-4.0552,-4.0247,-3.9643,-3.8598,-3.9402,-3.9707,-3.9122,-3.9072,-3.906,-3.898,-3.8484,-3.7899,-3.7212,-3.799,-3.8672,-3.9219,-3.9212,-3.9115,-3.898,-3.898,-3.8535,-3.156,-3.1143,-3.0574,-3.1107,-3.1119,-3.1432,-3.3197,-3.3643,-3.4095,-3.5507,-3.5818,-3.5852,-3.5892,-3.5859,-3.5852,0.0,-3.5898,-3.5905,-3.5909,-3.5899,-3.5908,-3.5923,-3.6902,-3.7831,-3.8473,-3.9764,-4.1322,-4.3173,-4.436,-4.5275,-4.5887,-4.6152,-4.6306,-4.63,-4.6306,-4.6296,-4.6296,-4.63,-4.6436,-4.6671,-4.6417,-4.6752,-4.7575,-4.6963,-4.7204,-4.8092,-4.7389,-4.711,-4.7279,-4.8024,-4.8551,-4.8958,-4.9445,-5.035,-5.1328,-5.0762,-5.0918,-5.1328,-5.0742,-5.0778,-5.0842,-4.9645,-4.9485,-4.9563,-4.8623,-4.7735,-4.7118,-4.7489,-4.6976,-4.6295,-4.6308,-4.6308,-4.6308,-4.6295,-4.6296,-4.5987,-4.4807,-4.4733,-4.4306,-4.2298,-4.211,-4.202,-4.1162,-4.1059,-4.1085,-4.1065,-4.1085,-4.111,-4.111,-4.111,-4.1085,-4.1032,-4.1059,-4.0572,-3.9344,-4.0322,-4.071,-4.0034,-3.9975,-3.9913,-3.9855,-3.927,-3.8967,-3.8936,-3.9284,-3.9315,-3.905,-3.992,-4.0172,-3.9843,-3.9862,-3.9393,-3.2458,-3.1517,-3.0732,-3.2528,-3.2434,-3.2337,-3.4087,-3.4535,-3.4808,-3.5632,-3.5839,-3.5904,-3.5894,-3.5897,-3.5891,-3.5908,-3.5899,-3.5895,-3.5903,-3.5893,-3.5923,-3.5994,-3.7465,-3.8522,-3.859,-4.0898,-4.2382,-4.2417,-4.4013,-4.5007,-4.5007,-4.5821,-4.6308,-4.6297,-4.6296,-4.6303,-4.6303,-4.6296,-4.6729,-4.7588,-4.671,-4.6758,-4.759,-4.7595,-4.7135,-4.6426,-4.8125,-4.7906,-4.6518,-4.9031,-4.9614,-4.9052,-5.0731,-5.1377,-5.1406,-5.1387,-5.1387,-5.1406,-5.1387,-5.0879,-5.0195,-5.0111,-4.9556,-4.9056,-4.9836,-4.9462,-4.8603,-4.7822,-4.6976,-4.6303,-4.6308,-4.6308,-4.6308,-4.6303,-4.6293,-4.5828,-4.409,-4.4348,-4.413,-4.1519,-4.1701,-4.2013,-4.1159,-4.1064,-4.1085,-4.1013,-4.1059,-4.111,-4.111,-4.111,-4.111,-4.111,-4.1039,-4.0979,-4.0976,-4.0996,-4.0963,-4.0888,-4.0818,-4.0765,-4.0694,-4.0738,-4.075,-4.0674,-3.9971,-3.999,-4.0771,-3.9932,-3.992,-4.0694,-4.0694,-4.0217,-3.2513,-3.2141,-3.1611,-3.282,-3.3004,-3.3158,-3.4301,-3.462,-3.4904,-3.5704,-3.5885,-3.5891,-3.5898,-3.5905,-3.5905,-3.5891,-3.5947,-3.6168,-3.6713,-3.6792,-3.7011,-3.7636,-3.875,-3.9687,-4.0252,-4.2129,-4.3281,-4.328,-4.4898,-4.5889,-4.5882,-4.6153,-4.6307,-4.6306,-4.6308,-4.6299,-4.6303,-4.6296,-4.6436,-4.671,-4.6436,-4.7065,-4.8457,-4.7258,-4.7532,-4.8931,-4.8281,-4.7691,-4.7341,-4.9296,-4.9626,-4.9019,-5.0136,-5.0925,-5.1328,-5.0781,-5.0937,-5.1328,-5.0762,-5.0762,-5.0937,-5.0347,-5.0376,-5.0539,-5.0207,-4.9114,-4.7803,-4.6944,-4.6512,-4.6308,-4.6308,-4.6306,-4.6297,-4.6301,-4.6261,-4.5763,-4.4065,-4.4337,-4.4137,-4.1572,-4.1747,-4.2039,-4.1208,-4.1085,-4.1085,-4.1065,-4.1085,-4.111,-4.111,-4.111,-4.1085,-4.1039,-4.1013,-4.1006,-4.0999,-4.0996,-4.0974,-4.0907,-4.0837,-4.0784,-4.0769,-4.0738,-4.0757,-4.0846,-4.0513,-4.0532,-4.0866,-4.0493,-4.0474,-4.0738,-4.0108,-3.9657,-3.3141,-3.2898,-3.2596,-3.3823,-3.3974,-3.402,-3.4889,-3.5113,-3.5207,-3.5407,-3.5441,-3.5416,-3.5432,-3.5437,-3.5524,-3.5873,-3.5958,-3.6264,-3.7118,-3.7246,-3.7674,-3.8884,-3.9543,-4.034,-4.1479,-4.2867,-4.3846,-4.418,-4.5499,-4.6306,-4.63,-4.6308,-4.6282,-4.6261,-4.6296,-4.6288,-4.626,-4.6292,-4.6475,-4.6788,-4.6456,-4.7042,-4.8388,-4.7634,-4.7811,-4.8719,-4.8613,-4.8213,0.0,-4.9447,-4.9824,-4.9433,-5.0305,-5.0969,-5.1343,-5.0839,-5.0976,-5.1328,-5.082,-5.0976,-5.1328,-5.0818,-5.0775,-5.075,-4.9898,-4.8681,-4.749,-4.6944,-4.6549,-4.6306,-4.6308,-4.6301,-4.6303,-4.6293,-4.6277,-4.5841,-4.4456,-4.4557,-4.4247,-4.1987,-4.1968,-4.2046,-4.1247,-4.111,-4.111,-4.111,-4.111,-4.111,-4.111,-4.111,-4.1065,-4.1013,-4.0999,-4.0999,-4.0999,-4.1007,-4.0965,-4.0908,-4.0848,-4.0807,-4.0834,-4.0761,-4.0792,-4.0904,-4.082,-4.0808,-4.0851,-4.0745,-4.072,-4.07,-4.0153,-3.9876,0.0,-3.3833,-3.3616,-3.5305,-3.521,-3.4905,-3.5714,-3.5911,0.0,-3.4936,-3.4733,-3.4718,-3.4766,-3.4738,-3.4978,-3.5859,-3.5996,-3.6308,-3.7164,-3.7402,-3.8102,-3.978,-3.9986,-4.062,-4.224,-4.3199,-4.405,-4.4922,-4.5801,-4.6307,-4.6306,-4.6306,-4.6273,-4.6218,-4.627,-4.6261,-4.6206,-4.6273,-4.671,-4.751,-4.669,-4.6768,-4.7623,-4.8376,-4.7871,-4.6523,-4.8965,-4.9057,-4.7643,-4.938,-5.0066,-5.0097,-5.0976,-5.1343,-5.1402,-5.1404,-5.1406,-5.1406,-5.1406,-5.1406,-5.1387,-5.1328,-5.0723,-4.9863,-4.9046,-4.8232,-4.7584,-4.7526,-4.6924,-4.6293,-4.6307,-4.6301,-4.6303,-4.63,-4.63,-4.6042,-4.5104,-4.4846,-4.4309,-4.2637,-4.2299,-4.2046,-4.1247,-4.1149,-4.1169,-4.111,-4.111,-4.111,-4.111,-4.111,-4.1085,-4.1013,-4.1011,-4.0996,-4.0996,-4.0999,-4.0974,-4.0907,-4.0839,-4.0837,-4.0897,-4.0848,-4.0839,-4.0907,-4.0888,-4.0848,-4.0796,-4.072,-4.0654,-4.0588,-4.0654,-4.066,-3.5386,0.0,-3.4521,-3.565,-3.5802,-3.5714,0.0,-3.5974,-3.5912,-3.568,-3.5617,-3.5596,-3.5622,-3.5645,-3.5735,-3.5903,-3.6511,-3.7029,-3.7207,-3.8374,-3.9605,-4.0682,-4.0818,-4.124,-4.2298,-4.3196,-4.4064,-4.4937,-4.58,-4.6308,-4.6307,-4.6303,-4.63,-4.6275,-4.6284,-4.6261,-4.6206,-4.6273,-4.6397,-4.6593,-4.639,-4.6761,-4.7569,-4.7126,-4.7049,-4.7327,-4.7942,-4.7606,-4.6749,-4.8486,-4.9196,-4.9263,-5.0136,-5.0859,-5.1405,-5.1406,-5.1406,-5.1406,-5.1406,-5.1406,-5.1308,-5.0683,-4.9883,-4.9023,-4.8163,-4.7762,-4.7467,-4.6788,-4.6454,-4.6307,-4.6308,-4.6306,-4.6295,-4.6303,-4.6296,-4.6054,-4.5172,-4.4417,-4.3596,-4.2571,-4.2344,-4.2046,-4.1247,-4.1617,-4.1812,-4.1188,-4.111,-4.111,-4.111,-4.111,-4.1091,-4.1085,-4.1038,-4.0996,-4.0996,-4.0943,-4.0917,-4.0907,-4.0898,-4.0877,-4.0907,-4.0878,-4.0888,-4.0898,-4.0804,-4.0706,-4.0662,-4.0629,-4.0621,-4.0588,-4.0631,-4.0588,-3.5829,-3.56,-3.5264,-3.5383,-3.5697,-3.5904,-3.548,-3.568,-3.5836,-3.5427,-3.532,-3.5314,-3.5346,-3.5378,-3.5526,-3.5891,-3.6347,-3.6911,-3.7691,-3.9303,-4.057,-4.1037,-4.1445,-4.2048,-4.2916,-4.3782,-4.4669,-4.552,-4.6034,-4.6308,-4.6303,-4.6278,-4.6248,-4.6245,-4.6253,-4.6249,-4.6255,-4.6273,-4.63,-4.63,-4.6297,-4.6555,-4.7004,-4.6932,-4.6949,-4.7025,-4.7425,-4.7325,-4.6963,-4.792,-4.8755,-4.9493,-4.9963,-5.066,-5.1406,-5.1406,-5.1406,-5.1406,-5.1406,-5.1406,-5.1269,-5.0469,-4.9608,-4.8746,-4.7851,-4.7322,-4.6905,-4.6436,-4.6307,-4.6308,-4.6308,-4.6307,-4.63,-4.6303,-4.6296,-4.6058,-4.5191,-4.4285,-4.3392,-4.2557,-4.2045,-4.1604,-4.1188,-4.1461,-4.1598,-4.1169,-4.111,-4.111,-4.111,-4.111,-4.1085,-4.1059,-4.1011,-4.0988,-4.0999,-4.0963,-4.0917,-4.0907,-4.0898,-4.0917,-4.0946,-4.0917,-4.0898,-4.0848,-4.0725,-4.0642,-4.0596,-4.0559,-4.0545,-4.0564,-4.0554,-4.0523,-3.5526,-3.5667,-3.563,-3.4861,-3.5256,-3.5573,-3.4684,-3.5112,-3.5513,-3.4842,-3.4764,-3.4831,-3.4884,-3.49,-3.5135,-3.5872,-3.6052,-3.6742,-3.8626,-4.005,-4.0996,-4.1267,-4.1949,-4.2798,-4.3802,-4.4575,-4.5353,-4.6223,-4.6306,-4.6303,-4.6292,-4.6234,-4.6199,-4.6218,-4.6221,-4.6236,-4.6308,-4.6296,-4.63,-4.63,-4.6295,-4.6305,-4.6328,-4.705,-4.7006,-4.6342,-4.7084,-4.7393,-4.7393,-4.7393,-4.84,-4.9908,-4.9903,-5.052,-5.1404,-5.1406,-5.1406,-5.1406,-5.1406,-5.1406,-5.125,-5.0312,-4.9506,-4.8711,-4.7712,-4.6894,-4.6308,-4.6308,-4.6308,-4.6308,-4.6308,-4.6307,-4.63,-4.6303,-4.63,-4.6101,-4.5352,-4.4411,-4.3489,-4.2744,-4.19,-4.1265,-4.1117,-4.1208,-4.1247,-4.113,-4.111,-4.111,-4.111,-4.111,-4.1085,-4.1013,-4.1011,-4.1007,-4.0991,-4.101,-4.0974,-4.0917,-4.0908,-4.0937,-4.1002,-4.0937,-4.0877,-4.0798,-4.0668,-4.0621,-4.0568,-4.0534,-4.0489,-4.0508,-4.0508,-4.0495,-3.3788,-3.4333,-3.4842,-3.4668,-3.4763,-3.4658,-3.3734,-3.4231,-3.4846,-3.4737,-3.5285,-3.5782,-3.5809,-3.5799,-3.5836,-3.5976,-3.6554,-3.7874,-4.0354,-4.0304,-4.0557,-4.2026,-4.2317,-4.3036,-4.4635,-4.4918,-4.535,-4.6223,-4.6295,-4.6292,-4.6294,-4.6228,-4.6226,-4.6279,-4.6279,-4.6288,-4.63,-4.63,-4.63,-4.63,-4.6303,-4.63,-4.6308,-4.6436,-4.6429,-4.6319,-4.6443,-4.6495,-4.6495,-4.6495,-4.7483,-4.8991,-4.9009,-4.9984,-5.1411,-5.1391,-5.1404,-5.1406,-5.1406,-5.1406,-5.1152,-4.9609,-4.9018,-4.8607,-4.699,-4.6401,-4.6308,-4.6308,-4.6308,-4.6308,-4.6308,-4.6307,-4.63,-4.6303,-4.63,-4.6261,-4.6124,-4.4848,-4.3669,-4.3528,-4.2807,-4.1972,-4.1231,-4.1662,-4.189,-4.1208,-4.111,-4.111,-4.111,-4.111,-4.111,-4.1085,-4.1038,-4.0996,-4.0988,-4.0999,-4.1002,-4.0982,-4.0974,-4.1002,-4.1002,-4.0936,-4.0869,-4.08,-4.0725,-4.0635,-4.0511,-4.0515,-4.0492,-4.0499,-4.0499,-4.043,-3.3398,-3.3691,-3.3886,-3.3374,-3.3631,-3.3887,-3.3457,-3.4022,-3.4798,-3.53,-3.5717,-3.5994,-3.5992,-3.5996,-3.6126,-3.654,-3.7323,-3.8453,-4.0062,-4.0388,-4.0928,-4.2181,-4.276,-4.3552,-4.4818,-4.5367,-4.5816,-4.6222,-4.628,-4.6284,-4.6255,-4.6222,-4.622,-4.6299,-4.6303,-4.6288,-4.63,-4.63,-4.6306,-4.6293,-4.6306,-4.6297,-4.6308,-4.6295,-4.6306,-4.6293,-4.6303,-4.63,-4.63,-4.6296,-4.7299,-4.8806,-4.8808,-4.9861,-5.1408,-5.139,-5.1103,-5.076,-5.123,-5.1113,-5.0547,-4.9293,-4.8897,-4.8577,-4.683,-4.6293,-4.6303,-4.6308,-4.6308,-4.6308,-4.6308,-4.6308,-4.6305,-4.6306,-4.63,-4.6163,-4.5695,-4.4598,-4.356,-4.3088,-4.2666,-4.2266,-4.1871,-4.246,-4.2877,-4.2506,-4.2052,-4.1753,-4.1753,-4.1364,-4.111,-4.111,-4.1038,-4.0996,-4.0996,-4.0999,-4.0991,-4.0999,-4.0996,-4.0988,-4.101,-4.0945,-4.0869,-4.0809,-4.07,-4.0621,-4.0549,-4.0523,-4.0499,-4.0502,-4.0912,-4.0802,-3.2851,-3.2793,-3.2653,-3.1979,-3.2452,-3.3042,-3.2842,-3.3435,-3.4277,-3.5195,-3.5547,-3.5761,-3.5954,-3.5991,-3.6284,-3.724,-3.7999,-3.8824,-3.9799,-4.0552,-4.14,-4.2486,-4.3019,-4.3792,-4.5072,-4.5624,-4.5986,-4.6172,-4.6245,-4.624,-4.6203,-4.6189,-4.6226,-4.626,-4.6284,-4.6292,-4.63,-4.63,-4.6309,-4.6301,-4.6295,-4.6301,-4.6308,-4.6297,-4.6303,-4.63,-4.63,-4.63,-4.63,-4.6308,-4.7289,-4.8794,-4.8802,-4.9861,-5.1355,-5.1171,-5.0793,-5.0478,-5.0934,-5.0839,-5.0312,-4.9248,-4.8895,-4.8563,-4.6834,-4.63,-4.6306,-4.6305,-4.6307,-4.6308,-4.6308,-4.6308,-4.6306,-4.6295,-4.6309,-4.6069,-4.5187,-4.4328,-4.3509,-4.2838,-4.2541,-4.2459,-4.2666,-4.3217,-4.3616,-4.3596,-4.3033,-4.2591,-4.2611,-4.2065,-4.1695,-4.1695,-4.1648,-4.1529,-4.1326,-4.1124,-4.1007,-4.1003,-4.1186,-4.1217,-4.1002,-4.0926,-4.0869,-4.0796,-4.0688,-4.0588,-4.054,-4.0511,-4.0466,-4.0468,-4.1032,-4.1035,-3.1206,-3.1029,-3.1058,-3.0925,-3.1556,-3.1987,-3.1177,-3.1667,-3.253,-3.3408,-3.4233,-3.5035,-3.5843,-3.5958,-3.643,-3.8038,-3.8369,-3.8984,-4.066,-4.0964,-4.1629,-4.3303,-4.285,-4.3377,-4.5852,-4.544,-4.5328,-4.6137,-4.6206,-4.6215,-4.6203,-4.6189,-4.6206,-4.6206,-4.6269,-4.63,-4.63,-4.63,-4.6309,-4.6301,-4.6307,-4.6308,-4.6308,-4.6305,-4.6295,-4.63,-4.63,-4.63,-4.63,-4.6308,-4.7289,-4.8794,-4.8802,-4.9829,-5.1213,-5.0465,-5.0669,-5.1203,-5.0445,-5.0695,-5.1055,-4.9433,-4.89,-4.8568,-4.6827,-4.63,-4.63,-4.6303,-4.6295,-4.6305,-4.6308,-4.6303,-4.6293,-4.6307,-4.6305,-4.6058,-4.5187,-4.4328,-4.3684,-4.3626,-4.2955,-4.2655,-4.3474,-4.3641,-4.367,-4.3616,-4.3551,-4.3506,-4.3507,-4.3461,-4.3422,-4.3422,-4.3408,-4.3082,-4.228,-4.1459,-4.1006,-4.1006,-4.177,-4.1816,-4.0936,-4.0896,-4.0878,-4.08,-4.0726,-4.0607,-4.0408,-4.0476,-4.0432,-4.0325,-4.0364,-4.073,-3.0875,-3.1214,-3.1506,-3.095,-3.1457,0.0,-3.1685,-3.2287,-3.2993,-3.3324,-3.4521,-3.5594,-3.5873,-3.6337,-3.7019,-3.8155,-3.8832,-3.9618,-4.0771,-4.0971,-4.1439,-4.2641,-4.298,-4.3714,-4.5235,-4.5573,-4.5839,-4.6176,-4.6209,-4.619,-4.6196,-4.6189,-4.6211,-4.626,-4.6292,-4.63,-4.63,-4.63,-4.6309,-4.6301,-4.6307,-4.6308,-4.6308,-4.6306,-4.6295,-4.63,-4.63,-4.63,-4.6339,-4.6845,-4.7733,-4.8892,-4.9958,-5.0439,-5.0511,-5.0199,-4.9613,-4.9016,-4.9215,-4.9502,-4.9607,-4.8457,-4.8456,-4.8568,-4.6834,-4.63,-4.63,-4.63,-4.6306,-4.6293,-4.6297,-4.6301,-4.6306,-4.6308,-4.6308,-4.6207,-4.5877,-4.5129,-4.4504,-4.4504,-4.4247,-4.413,-4.4458,-4.4957,-4.5304,-4.528,-4.4777,-4.4409,-4.4403,-4.3942,-4.3598,-4.3598,-4.361,-4.3444,-4.308,-4.3236,-4.2905,-4.1807,-4.1579,-4.1334,-4.0971,-4.0915,-4.0859,-4.08,-4.0726,-4.064,-4.0534,-4.0463,-4.0415,-4.0362,-4.0825,-4.1151,-3.0767,-3.1016,-3.1204,-3.0886,0.0,-3.1421,-3.196,-3.2346,-3.2736,-3.3282,-3.4764,-3.6031,-3.6275,-3.6735,-3.7463,-3.8566,-3.9255,-3.9954,-4.0771,-4.0936,-4.1291,-4.2155,-4.2568,-4.335,-4.4754,-4.5189,-4.5611,-4.6169,-4.6196,-4.6196,-4.6208,-4.6209,-4.6211,-4.6279,-4.6292,-4.63,-4.63,-4.63,-4.6309,-4.6301,-4.6307,-4.6308,-4.6308,-4.6306,-4.6295,-4.63,-4.63,-4.6456,-4.6749,-4.7289,-4.817,-4.9328,-5.0743,-5.0801,-5.0036,-4.9783,-4.8932,-4.7956,-4.8279,-4.8747,-4.9033,-4.7949,-4.8183,-4.8574,-4.6822,-4.6309,-4.6306,-4.6303,-4.63,-4.63,-4.63,-4.63,-4.6308,-4.6308,-4.6308,-4.6229,-4.5946,-4.5411,-4.4995,-4.4995,-4.4995,-4.509,-4.5363,-4.5906,-4.6308,-4.6303,-4.5743,-4.5318,-4.5318,-4.4787,-4.4423,-4.4423,-4.4175,-4.3985,-4.3945,-4.4228,-4.3908,-4.2723,-4.2116,-4.154,-4.0991,-4.0926,-4.0868,-4.0769,-4.0694,-4.0646,-4.0562,-4.0466,-4.0379,-4.0381,-4.0864,-4.1188,-3.0706,-3.0112,-2.9741,-3.0593,-3.016,-2.9975,-3.1703,-3.1445,-3.1328,-3.3063,-3.473,-3.6162,-3.7038,-3.7155,-3.7692,-3.9419,-3.9655,-3.9917,-4.0791,-4.0908,-4.1209,-4.2082,-4.1498,-4.2043,-4.4644,-4.4118,-4.4332,-4.6066,-4.6209,-4.6208,-4.6205,-4.6203,-4.6206,-4.6206,-4.6269,-4.63,-4.63,-4.63,-4.6309,-4.6301,-4.6307,-4.6308,-4.6308,-4.6306,-4.6295,-4.63,-4.63,-4.6788,-4.7604,-4.7543,-4.8509,-5.0092,-5.0969,-5.0755,-4.9898,-4.9099,-4.8794,-4.8658,-4.7801,-4.8644,-4.9804,-4.8124,-4.8183,-4.8574,-4.6832,-4.6301,-4.63,-4.6306,-4.63,-4.63,-4.63,-4.6293,-4.6303,-4.6308,-4.6307,-4.607,-4.5195,-4.5011,-4.5015,-4.5006,-4.5018,-4.5285,-4.6144,-4.63,-4.6296,-4.6308,-4.6236,-4.6206,-4.6206,-4.6203,-4.6196,-4.6196,-4.5436,-4.4903,-4.4908,-4.4121,-4.3619,-4.3603,-4.3538,-4.2723,-4.1005,-4.0927,-4.0858,-4.0713,-4.0648,-4.0569,-4.0502,-4.0432,-4.0362,-4.0307,-4.0234,-4.0576,-3.0599,-3.1013,-3.1174,-3.0882,-3.1074,-3.1469,-3.1971,-3.2372,-3.3108,-3.4803,-3.5079,-3.5431,-3.6923,-3.7649,-3.8388,-3.9524,-4.0196,-4.0664,-4.0878,-4.0897,-4.1003,-4.1247,-4.2159,-4.3061,-4.3836,-4.479,-4.5568,-4.6083,-4.6132,-4.6132,-4.6122,-4.6169,-4.6203,-4.6189,-4.6279,-4.6308,-4.6308,-4.6296,-4.6309,-4.6301,-4.6307,-4.6308,-4.6308,-4.6306,-4.6295,-4.63,-4.6292,-4.6776,-4.7611,-4.8833,-4.9958,-5.095,-5.1203,-5.0424,-4.9196,-4.9581,-4.8548,-4.7021,-4.7379,-4.8242,-4.8903,-4.7235,-4.7694,-4.8574,-4.6835,-4.6301,-4.6309,-4.6295,-4.6309,-4.63,-4.63,-4.6303,-4.6295,-4.6308,-4.6308,-4.6229,-4.5966,-4.5911,-4.5913,-4.5919,-4.5913,-4.6007,-4.6261,-4.63,-4.63,-4.6296,-4.624,-4.6201,-4.6196,-4.6203,-4.6196,-4.6196,-4.5962,-4.5799,-4.5804,-4.5582,-4.5157,-4.45,-4.4422,-4.3916,-4.2781,-4.2141,-4.1856,-4.1962,-4.1119,-4.0615,-4.0485,-4.0441,-4.0394,-4.0362,-4.0234,-4.0556,-3.0643,-3.1154,-3.1403,-3.0911,-3.1172,-3.1641,-3.2002,-3.3035,-3.4199,-3.5187,-3.5235,-3.5651,-3.7404,-3.8077,-3.8793,-4.001,-4.0624,-4.0936,-4.0859,-4.0859,-4.0975,-4.1294,-4.1985,-4.283,-4.388,-4.4317,-4.4987,-4.6017,-4.5784,-4.5734,-4.6074,-4.615,-4.6203,-4.6195,-4.6279,-4.6292,-4.6292,-4.6296,-4.6306,-4.6295,-4.6308,-4.6305,-4.6305,-4.6303,-4.6295,-4.6339,-4.6991,-4.7762,-4.8635,-5.0017,-5.0867,-5.1312,-5.13,-5.026,-4.8877,-4.973,-4.8424,-4.632,-4.7197,-4.8074,-4.8522,-4.6811,-4.7457,-4.8574,-4.6836,-4.6541,-4.6749,-4.6397,-4.6546,-4.6729,-4.6397,-4.63,-4.6306,-4.6301,-4.6307,-4.6308,-4.6301,-4.6301,-4.6303,-4.63,-4.6309,-4.63,-4.63,-4.63,-4.63,-4.63,-4.6269,-4.6226,-4.6196,-4.6209,-4.6203,-4.6196,-4.6196,-4.6196,-4.6201,-4.6193,-4.5963,-4.5356,-4.5317,-4.5074,-4.4531,-4.3315,-4.2729,-4.2826,-4.177,-4.117,-4.1069,-4.0627,-4.0392,-4.0362,-4.0215,-4.0344,-3.0779,-3.0799,-3.0804,-3.0798,-3.0872,-3.1182,-3.2124,-3.36,-3.4774,-3.4622,-3.5279,-3.6429,-3.8163,-3.8435,-3.8965,-4.0719,-4.0945,-4.0888,-4.0807,-4.0792,-4.1079,-4.1796,-4.1315,-4.1856,-4.4238,-4.3161,-4.3335,-4.5802,-4.5257,-4.5179,-4.6063,-4.617,-4.6201,-4.6206,-4.6269,-4.63,-4.63,-4.6303,-4.6303,-4.6303,-4.6305,-4.63,-4.63,-4.6295,-4.6332,-4.6491,-4.8099,-4.9293,-5.014,-5.0966,-5.1308,-5.1295,-5.1292,-5.0271,-4.8911,-4.9715,-4.8495,-4.6546,-4.7345,-4.8132,-4.8535,-4.6854,-4.7434,-4.8476,-4.6797,-4.6914,-4.7421,-4.6553,-4.6934,-4.7393,-4.6534,-4.63,-4.63,-4.63,-4.6301,-4.6308,-4.6308,-4.6301,-4.6293,-4.6307,-4.63,-4.6303,-4.63,-4.63,-4.63,-4.63,-4.6292,-4.6275,-4.6209,-4.6203,-4.6196,-4.6203,-4.6196,-4.6196,-4.6196,-4.6201,-4.6177,-4.6093,-4.6095,-4.6066,-4.5997,-4.4422,-4.3524,-4.3543,-4.2595,-4.2102,-4.2106,-4.1107,-4.0567,-4.0422,-4.0291,-4.0112,-3.0549,-3.0759,-3.0804,-3.0798,-3.1773,-3.2964,-3.3863,-3.487,-3.5443,-3.475,-3.5288,-3.6417,-3.8111,-3.842,-3.8949,-4.0652,-4.0907,-4.0877,-4.0812,-4.08,-4.0866,-4.1054,-4.1505,-4.2036,-4.2593,-4.2945,-4.3685,-4.4977,-4.4919,-4.5209,-4.6119,-4.6201,-4.6203,-4.6209,-4.6206,-4.626,-4.6308,-4.629,-4.6297,-4.63,-4.6301,-4.63,-4.63,-4.6303,-4.6647,-4.7304,-4.8346,-4.9263,-5.0088,-5.0957,-5.13,-5.1292,-5.13,-5.0657,-4.9753,-4.999,-4.9308,-4.8261,-4.8451,-4.8633,-4.8639,-4.7557,-4.7512,-4.7676,-4.6621,-4.691,-4.7422,-4.6551,-4.6937,-4.7393,-4.6534,-4.63,-4.63,-4.63,-4.6306,-4.6293,-4.6293,-4.6301,-4.6307,-4.6301,-4.63,-4.6295,-4.6303,-4.63,-4.6296,-4.6308,-4.6308,-4.6275,-4.6209,-4.6203,-4.6196,-4.6203,-4.6196,-4.6196,-4.6196,-4.6201,-4.6177,-4.6093,-4.6095,-4.6066,-4.5997,-4.5025,-4.4791,-4.5409,-4.3846,-4.3227,-4.3636,-4.2864,-4.2115,-4.1321,-4.117,-4.0646,-3.0568,-3.073,-3.0759,-3.0799,-3.2055,-3.3303,-3.3316,-3.4627,-3.5604,-3.4684,-3.522,-3.6253,-3.7549,-3.8061,-3.8733,-4.0063,-4.0597,-4.0837,-4.0804,-4.0812,-4.0955,-4.1366,-4.147,-4.1823,-4.2684,-4.2422,-4.2928,-4.4675,-4.4431,-4.4798,-4.6127,-4.6196,-4.6196,-4.6195,-4.6236,-4.6269,-4.6292,-4.6306,-4.6303,-4.6307,-4.63,-4.6309,-4.63,-4.6296,-4.6971,-4.8147,-4.8599,-4.951,-5.0719,-5.1154,-5.1335,-5.13,-5.1289,-5.0774,-5.0007,-5.0041,-4.9262,-4.8183,-4.8178,-4.8178,-4.8022,-4.7166,-4.7493,-4.8066,-4.7182,-4.7816,-4.8584,-4.7286,-4.7556,-4.7939,-4.6632,-4.63,-4.63,-4.63,-4.63,-4.63,-4.63,-4.63,-4.6306,-4.63,-4.6295,-4.629,-4.6303,-4.63,-4.63,-4.6292,-4.6264,-4.6231,-4.6195,-4.6203,-4.6209,-4.6196,-4.6196,-4.6196,-4.6196,-4.6208,-4.6174,-4.6102,-4.6104,-4.6056,-4.6007,-4.5589,-4.5559,-4.5983,-4.4633,-4.4047,-4.4336,-4.3539,-4.2819,-4.2163,-4.1686,-4.1047,-3.0703,-3.0685,-3.0743,-3.0942,-3.2143,-3.3115,-3.2489,-3.4104,-3.5542,-3.4788,-3.5232,-3.604,-3.6917,-3.7579,-3.8345,-3.9421,-4.0042,-4.0477,-4.0757,-4.0688,-4.0901,-4.1759,-4.1253,-4.1419,-4.2918,-4.1752,-4.1868,-4.4187,-4.3888,-4.4311,-4.5889,-4.6125,-4.6206,-4.6211,-4.6269,-4.6296,-4.63,-4.63,-4.6303,-4.6297,-4.6297,-4.6293,-4.6296,-4.6292,-4.7205,-4.8801,-4.8806,-4.9781,-5.1391,-5.14,-5.1356,-5.1308,-5.1303,-5.0762,-4.9971,-4.9831,-4.8923,-4.7696,-4.754,-4.7599,-4.7586,-4.6713,-4.7452,-4.8535,-4.781,-4.8716,-4.9638,-4.8057,-4.8213,-4.8486,-4.6749,-4.6417,-4.6495,-4.6339,-4.6417,-4.6475,-4.6339,-4.6293,-4.63,-4.63,-4.629,-4.63,-4.63,-4.63,-4.63,-4.63,-4.6245,-4.6211,-4.6206,-4.6203,-4.6203,-4.6196,-4.6196,-4.6196,-4.6196,-4.6189,-4.6154,-4.6093,-4.6084,-4.6066,-4.6007,-4.5997,-4.6005,-4.5991,-4.5234,-4.4834,-4.4813,-4.4013,-4.3429,-4.3006,-4.2279,-4.1698,-3.0704,-3.061,-3.0866,-3.1585,-3.2497,-3.3358,-3.3944,-3.4875,-3.5609,-3.5553,-3.5621,-3.5989,-3.6842,-3.7094,-3.7695,-3.9325,-3.9063,-3.9129,-4.0599,-4.0206,-4.0061,-4.087,-4.0906,-4.0985,-4.1228,-4.109,-4.1435,-4.2552,-4.3227,-4.4039,-4.5027,-4.5786,-4.6231,-4.6284,-4.6299,-4.6308,-4.63,-4.63,-4.6306,-4.6295,-4.6305,-4.63,-4.6308,-4.6296,-4.721,-4.8796,-4.8806,-4.9795,-5.1394,-5.1343,-5.131,-5.131,-5.1289,-5.0774,-4.9917,-4.9216,-4.8826,-4.8514,-4.7754,-4.7988,-4.8483,-4.7606,-4.753,-4.7753,-4.7634,-4.8287,-4.8873,-4.7881,-4.8193,-4.8427,-4.6749,-4.6866,-4.7237,-4.6475,-4.6885,-4.7217,-4.6456,-4.6303,-4.6303,-4.6303,-4.6303,-4.63,-4.63,-4.63,-4.63,-4.63,-4.63,-4.6269,-4.6211,-4.6206,-4.6189,-4.6203,-4.6196,-4.6189,-4.6193,-4.6158,-4.6113,-4.6105,-4.6047,-4.6007,-4.5997,-4.5997,-4.6005,-4.5991,-4.5815,-4.5692,-4.5641,-4.5468,-4.4857,-4.3925,-4.3809,-4.317,-3.0632,-3.1197,-3.1978,-3.1878,-3.2501,-3.3355,-3.4165,-3.4627,-3.5021,-3.5535,-3.5601,-3.5717,-3.6137,-3.6547,-3.7102,-3.7897,-3.8121,-3.8454,-3.9232,-3.9499,-3.9753,-4.0141,-4.0606,-4.0924,-4.1007,-4.1003,-4.1376,-4.2286,-4.2676,-4.3467,-4.483,-4.527,-4.5728,-4.6284,-4.6308,-4.6296,-4.6309,-4.6293,-4.6297,-4.6303,-4.63,-4.6303,-4.6303,-4.63,-4.7213,-4.8801,-4.8796,-4.9791,-5.1396,-5.1372,-5.1361,-5.1362,-5.1356,-5.0796,-4.9898,-4.9099,-4.8483,-4.7944,-4.708,-4.7014,-4.7267,-4.6911,-4.7146,-4.7598,-4.7597,-4.8211,-4.872,-4.7842,-4.7842,-4.7842,-4.6612,-4.6944,-4.751,-4.712,-4.7315,-4.751,-4.712,-4.6632,-4.63,-4.63,-4.63,-4.63,-4.63,-4.63,-4.63,-4.63,-4.6296,-4.6288,-4.626,-4.6226,-4.6209,-4.6196,-4.6203,-4.6196,-4.6208,-4.6174,-4.6138,-4.6104,-4.6066,-4.6027,-4.5997,-4.5997,-4.6005,-4.5991,-4.5976,-4.5893,-4.5805,-4.5696,-4.5353,-4.4825,-4.4288,-4.3683,-3.1136,-3.1958,-3.2802,-3.2171,-3.2714,-3.3495,-3.3851,-3.4287,-3.4755,-3.5179,-3.5386,-3.5528,-3.5591,-3.6055,-3.6504,-3.6775,-3.7192,-3.7657,-3.8158,-3.882,-3.9374,-3.9641,-4.0407,-4.0949,-4.1064,-4.1032,-4.1292,-4.2,-4.2208,-4.2877,-4.4187,-4.4665,-4.5241,-4.5952,-4.6179,-4.6303,-4.6293,-4.6301,-4.6307,-4.6308,-4.6295,-4.6303,-4.6293,-4.6303,-4.7096,-4.8513,-4.8708,-4.9532,-5.077,-5.1215,-5.1264,-5.1068,-5.1063,-5.0635,-4.9905,-4.8853,-4.8061,-4.7385,-4.6495,-4.6352,-4.6488,-4.6281,-4.6811,-4.7572,-4.7593,-4.8046,-4.8434,-4.779,-4.7748,-4.7705,-4.6846,-4.7432,-4.8174,-4.7959,-4.8076,-4.8057,-4.7412,-4.6768,-4.63,-4.63,-4.63,-4.6378,-4.6593,-4.6456,-4.6378,-4.6593,-4.6448,-4.6284,-4.6279,-4.6415,-4.6456,-4.6216,-4.6397,-4.6449,-4.6208,-4.6189,-4.6146,-4.6113,-4.6084,-4.6047,-4.6007,-4.5997,-4.5994,-4.596,-4.5995,-4.5925,-4.5786,-4.5688,-4.556,-4.5381,-4.4671,-4.426,-3.2664,-3.2743,-3.2795,-3.2683,-3.3455,-3.399,-3.3096,-3.425,-3.5311,-3.4527,-3.4967,-3.5514,-3.5591,-3.5635,-3.5941,-3.6767,-3.6287,-3.6396,-3.8063,-3.8336,-3.8685,-3.952,-4.0373,-4.0932,-4.0991,-4.1003,-4.1025,-4.1071,-4.1838,-4.2362,-4.2518,-4.4036,-4.4948,-4.5059,-4.5867,-4.63,-4.63,-4.6306,-4.6308,-4.6308,-4.6295,-4.63,-4.63,-4.63,-4.6807,-4.7701,-4.8466,-4.8857,-4.9052,-5.0722,-5.0908,-5.0162,-5.0171,-5.0134,-4.9887,-4.8191,-4.7535,-4.7384,-4.6488,-4.6741,-4.7294,-4.6476,-4.68,-4.7518,-4.7588,-4.7637,-4.7651,-4.7608,-4.8147,-4.8545,-4.7744,-4.8759,-4.9755,-4.8935,-4.9364,-4.9306,-4.6885,-4.6339,-4.63,-4.63,-4.63,-4.6554,-4.7393,-4.6846,-4.6573,-4.7412,-4.6839,-4.6279,-4.6211,-4.6916,-4.7112,-4.63,-4.6936,-4.7104,-4.6271,-4.613,-4.6113,-4.6105,-4.6037,-4.6007,-4.5997,-4.5994,-4.596,-4.5917,-4.5977,-4.5924,-4.5815,-4.5731,-4.5599,-4.54,-4.5343,-4.5203,-3.2924,-3.3471,-3.4174,-3.3714,-3.389,-3.4218,-3.4414,-3.4186,-3.4168,-3.4971,-3.4947,-3.4958,-3.5508,-3.5589,-3.5693,-3.6014,-3.5817,-3.5869,-3.6531,-3.7124,-3.7801,-3.8727,-3.9607,-4.0388,-4.1006,-4.1025,-4.0993,-4.1,-4.1299,-4.1714,-4.2304,-4.2953,-4.3826,-4.4961,-4.5293,-4.573,-4.628,-4.63,-4.6307,-4.6308,-4.6307,-4.63,-4.63,-4.63,-4.6475,-4.6807,-4.7666,-4.8642,-4.9677,-5.0317,-5.0386,-5.0108,-5.0093,-4.9763,-4.9185,-4.8561,-4.797,-4.7463,-4.7151,-4.6865,-4.6716,-4.695,-4.6897,-4.6738,-4.6765,-4.7165,-4.7593,-4.7592,-4.8189,-4.874,-4.8454,-4.9235,-5.0015,-4.9703,-4.945,-4.8864,-4.7381,-4.6667,-4.6475,-4.7022,-4.7139,-4.7393,-4.8232,-4.8115,-4.8017,-4.833,-4.7639,-4.7064,-4.704,-4.6825,-4.6554,-4.6235,-4.6475,-4.6539,-4.6232,-4.6177,-4.6374,-4.6892,-4.6396,-4.6309,-4.6812,-4.6305,-4.5991,-4.596,-4.5951,-4.5872,-4.575,-4.5632,-4.551,-4.54,-4.532,-4.5216,-3.3653,-3.4182,-3.4923,-3.4541,-3.4442,-3.4558,-3.4899,-3.4366,-3.3978,-3.4604,-3.4773,-3.4883,-3.5143,-3.5438,-3.5628,-3.5596,-3.562,-3.5654,-3.5698,-3.6445,-3.7229,-3.7899,-3.8965,-3.9914,-4.0578,-4.0836,-4.0972,-4.1,-4.1006,-4.1266,-4.1863,-4.2195,-4.3167,-4.4914,-4.5273,-4.5711,-4.628,-4.6295,-4.6306,-4.6308,-4.6308,-4.6306,-4.6295,-4.6306,-4.63,-4.6358,-4.7217,-4.8076,-4.8876,-4.9423,-4.9669,-4.966,-4.9655,-4.9658,-4.9536,-4.8685,-4.8172,-4.7892,-4.7606,-4.693,-4.6337,-4.7215,-4.6972,-4.6299,-4.6303,-4.669,-4.7225,-4.7515,-4.8189,-4.8873,-4.9152,-4.9889,-5.0533,-5.0533,-4.9869,-4.9089,-4.8504,-4.7498,-4.6862,-4.7444,-4.7799,-4.8271,-4.9091,-4.8993,-4.8896,-4.9189,-4.8493,-4.7933,-4.7933,-4.7677,-4.7366,-4.7093,-4.706,-4.6956,-4.6668,-4.6614,-4.6822,-4.7368,-4.7106,-4.7183,-4.7706,-4.6876,-4.6395,-4.6414,-4.6042,-4.596,-4.6143,-4.6039,-4.6106,-4.6263,-4.5894,-4.5502,0.0,0.0,0.0,-3.5057,-3.5157,-3.5005,-3.4275,-3.4762,-3.4918,-3.3396,-3.4403,-3.5322,-3.4543,-3.5104,-3.5665,-3.5574,-3.5635,-3.5706,-3.5699,-3.6416,-3.6998,-3.7092,-3.8557,-3.9596,-3.9699,-4.044,-4.0943,-4.1006,-4.1011,-4.103,-4.1085,-4.187,-4.3097,-4.4802,-4.5765,-4.6261,-4.63,-4.6295,-4.6306,-4.6308,-4.6305,-4.6306,-4.6308,-4.6295,-4.63,-4.6358,-4.7198,-4.7081,-4.6436,-4.8076,-4.8771,-4.8801,-4.8794,-4.9811,-5.0966,-4.8463,-4.808,-4.8677,-4.7795,-4.6924,-4.6345,-4.7211,-4.6967,-4.6308,-4.6296,-4.6321,-4.6523,-4.7398,-4.8228,-4.9048,-4.9913,-5.0762,-5.1394,-5.1394,-5.0731,-5.0107,-5.0107,-4.8772,-4.7591,-4.7572,-4.8263,-4.9111,-4.9989,-4.9442,-4.9169,-5.0008,-4.9401,-4.8839,-4.8839,-4.9491,-4.9664,-4.8884,-4.8806,-4.8456,-4.7599,-4.7481,-4.7445,-4.747,-4.8176,-4.8599,-4.8638,-4.7745,-4.7249,-4.7229,-4.635,-4.6259,-4.7053,-4.7014,-4.7334,-4.7969,-4.7126,-4.616,-3.4788,0.0,0.0,0.0,0.0,0.0,-3.4868,-3.46,-3.4466,-3.4764,-3.4735,-3.4607,-3.4418,-3.5107,-3.5505,-3.4894,-3.5319,-3.5695,-3.5698,-3.5912,-3.6328,-3.7014,-3.8069,-3.8999,-3.9638,-4.0474,-4.0988,-4.1003,-4.0991,-4.1006,-4.1026,-4.1886,-4.288,-4.3997,-4.4907,-4.5656,-4.628,-4.6295,-4.6306,-4.6308,-4.63,-4.629,-4.6293,-4.6306,-4.63,-4.63,-4.6554,-4.6515,-4.6378,-4.7471,-4.8263,-4.8796,-4.8791,-4.9477,-5.0277,-4.8931,-4.8593,-4.8672,-4.7805,-4.6957,-4.6411,-4.7235,-4.6952,-4.6296,-4.63,-4.6713,-4.7342,-4.8213,-4.9072,-4.9923,-5.0745,-5.1174,-5.1394,-5.1343,-5.0693,-5.0108,-5.0108,-4.9718,-4.9379,-4.9382,-4.9571,-5.0028,-5.0887,-5.0848,-5.0766,-5.0996,-5.0304,-4.9742,-4.9738,-4.938,-4.9028,-4.8764,-4.8725,-4.8611,-4.8322,-4.8273,-4.8545,-4.9167,-4.8824,-4.8871,-4.9512,-4.8638,-4.8141,-4.8141,-4.7806,-4.7986,-4.8808,-4.7557,-4.7316,-4.8068,-4.7677,-4.6953,-3.4788,-3.4809,-3.4849,-3.4908,0.0,0.0,-3.5091,-3.4759,-3.4515,-3.4803,-3.4795,-3.4648,-3.4372,-3.5057,-3.5494,-3.503,-3.5378,-3.5707,-3.5737,-3.5728,-3.5921,-3.649,-3.7653,-3.8602,-3.9105,-4.0252,-4.096,-4.1003,-4.0991,-4.1013,-4.1039,-4.191,-4.2807,-4.3669,-4.4555,-4.5246,-4.5753,-4.6119,-4.613,-4.5762,-4.6129,-4.6293,-4.63,-4.63,-4.63,-4.63,-4.63,-4.6303,-4.6348,-4.685,-4.7756,-4.8796,-4.8806,-4.934,-4.9958,-4.8716,-4.8268,-4.8184,-4.7679,-4.6967,-4.644,-4.7264,-4.6979,-4.6362,-4.6739,-4.6912,-4.7338,-4.8892,-4.9962,-5.0621,-5.0771,-5.1076,-5.1342,-5.1308,-5.0938,-5.0607,-5.0607,-5.0594,-5.0498,-5.0176,-5.0382,-5.0805,-5.1316,-5.1394,-5.139,-5.1406,-5.0972,-5.0645,-5.0641,-5.0167,-4.9834,-4.9787,-4.9465,-4.9223,-4.9187,-4.9187,-4.9391,-4.9897,-4.9787,-4.9901,-5.0386,-4.953,-4.9032,-4.9,-4.8546,-4.8704,-4.9504,-4.8467,-4.8182,-4.8547,-4.8058,-4.7487,-3.4903,-3.4884,-3.4868,-3.4946,-3.4907,0.0,-3.5039,-3.5039,-3.4829,-3.427,-3.4753,-3.5062,-3.4327,-3.4959,-3.5557,-3.5461,-3.5581,-3.5708,-3.5775,-3.5737,-3.5727,-3.5782,-3.7247,-3.8285,-3.8391,-3.9848,-4.0827,-4.0986,-4.1018,-4.1032,-4.11,-4.1837,-4.2666,-4.3533,-4.4305,-4.4797,-4.4992,-4.567,-4.572,-4.5156,-4.582,-4.6208,-4.6306,-4.6303,-4.6303,-4.63,-4.63,-4.6309,-4.6319,-4.6407,-4.7311,-4.866,-4.8669,-4.919,-4.9756,-4.8117,-4.7493,-4.7499,-4.7411,-4.6908,-4.6425,-4.7198,-4.6924,-4.6459,-4.7335,-4.6992,-4.6803,-4.925,-5.0594,-5.1135,-5.0426,-5.0755,-5.1306,-5.1287,-5.1287,-5.1306,-5.1306,-5.13,-5.1083,-5.0374,-5.0859,-5.1401,-5.139,-5.1316,-5.1297,-5.139,-5.1327,-5.1294,-5.1375,-5.1343,-5.1296,-5.1295,-5.0603,-5.0135,-5.0138,-5.013,-5.0121,-5.0129,-5.08,-5.1163,-5.1105,-5.0364,-4.9924,-4.9857,-4.9015,-4.8919,-4.9642,-4.9642,-4.9529,-4.9311,-4.8541,-4.7971,-3.5477,-3.5176,-3.4666,-3.4749,-3.4666,0.0,-3.4889,-3.4888,-3.487,-3.5018,-3.5127,-3.5021,-3.4327,-3.4923,-3.5288,-3.46,-3.5121,-3.5629,-3.5718,-3.5718,-3.5689,-3.5718,-3.6696,-3.7635,-3.833,-3.9338,-4.0237,-4.0948,-4.1039,-4.1086,-4.1105,-4.1254,-4.1749,-4.2627,-4.2825,-4.3587,-4.4992,-4.4479,-4.4821,-4.6035,-4.5508,-4.5625,-4.6307,-4.6301,-4.6293,-4.63,-4.63,-4.6303,-4.6345,-4.6998,-4.7458,-4.7757,-4.7743,-4.8284,-4.8937,-4.7874,-4.7509,-4.7411,-4.6761,-4.6433,-4.6339,-4.651,-4.6449,-4.6463,-4.7342,-4.6944,-4.6606,-4.8456,-5.0104,-5.1261,-5.1109,-5.1178,-5.1287,-5.122,-5.1258,-5.1306,-5.1306,-5.1312,-5.1257,-5.1103,-5.1244,-5.1401,-5.1401,-5.082,-5.0586,-5.1288,-5.0806,-5.0586,-5.1245,-5.1317,-5.1296,-5.1295,-5.1102,-5.0958,-5.0977,-5.0964,-5.0973,-5.0973,-5.1117,-5.1183,-5.1183,-5.0966,-5.0848,-5.0835,-5.0488,-5.0351,-5.047,-5.0471,-5.0394,-5.0232,-5.0013,-4.9121,-3.5913,-3.5633,-3.5195,-3.476,-3.4645,0.0,0.0,-3.4791,-3.4888,-3.5019,-3.5108,-3.5062,-3.4699,-3.5053,-3.527,-3.4854,-3.5249,-3.5615,-3.5648,-3.5669,-3.5718,-3.5737,-3.6541,-3.7275,-3.7708,-3.8937,-4.0069,-4.0928,-4.105,-4.1096,-4.1105,-4.1094,-4.1491,-4.2376,-4.2396,-4.3021,-4.4344,-4.4354,-4.4798,-4.5644,-4.5644,-4.5644,-4.5664,-4.6093,-4.6052,-4.5677,-4.6111,-4.63,-4.6323,-4.6747,-4.6898,-4.6932,-4.7348,-4.7796,-4.8094,-4.7211,-4.6908,-4.6843,-4.6434,-4.63,-4.63,-4.6307,-4.6581,-4.7108,-4.7947,-4.8454,-4.8655,-4.8182,-4.9603,-5.117,-5.0762,-5.0948,-5.1249,-5.121,-5.122,-5.1259,-5.1249,-5.1287,-5.1292,-5.131,-5.133,-5.1224,-5.082,-5.0396,-5.0104,-5.0093,-5.0093,-5.0224,-5.0602,-5.1023,-5.13,-5.1259,-5.1211,-5.1201,-5.1189,-5.1197,-5.1206,-5.1206,-5.1194,-5.119,-5.1139,-5.1127,-5.1073,-5.0995,-5.088,-5.0775,-5.0759,-5.0683,-5.0603,-5.0481,-5.0019,-4.9488,-3.6389,-3.6262,-3.5996,-3.4934,-3.4842,-3.4938,0.0,0.0,0.0,-3.4851,-3.4983,-3.5092,-3.511,-3.5209,-3.5296,-3.5364,-3.5496,-3.5589,-3.5604,-3.5667,-3.5728,-3.5766,-3.6414,-3.6925,-3.7075,-3.8537,-3.9824,-4.0701,-4.0822,-4.0842,-4.0842,-4.1012,-4.1413,-4.2126,-4.2151,-4.2561,-4.3434,-4.3977,-4.4418,-4.4765,-4.5293,-4.5273,-4.4766,-4.5488,-4.5508,-4.5039,-4.5737,-4.6136,-4.6303,-4.63,-4.6297,-4.6358,-4.7011,-4.7299,-4.7263,-4.6566,-4.63,-4.6293,-4.6307,-4.6308,-4.6308,-4.6307,-4.6987,-4.7916,-4.8388,-4.9815,-5.0763,-4.8312,-4.9343,-5.1035,-5.0374,-5.0683,-5.1186,-5.1178,-5.1178,-5.1189,-5.119,-5.124,-5.1267,-5.1296,-5.1296,-5.103,-5.0238,-4.9965,-4.9653,-4.9106,-4.949,-4.99,-5.0182,-5.0828,-5.1258,-5.12,-5.118,-5.118,-5.1189,-5.1178,-5.1167,-5.1186,-5.1183,-5.1146,-5.1102,-5.1081,-5.101,-5.0899,-5.081,-5.0776,-5.0797,-5.0663,-5.0582,-5.0481,-4.9771,-4.9628,-3.7125,-3.7149,-3.6795,-3.5325,-3.5321,-3.5595,-3.5226,0.0,-3.483,-3.4964,0.0,-3.5057,-3.5183,0.0,0.0,-3.5296,-3.5407,-3.5528,-3.5604,-3.5654,-3.5698,-3.5708,-3.5853,-3.6257,-3.7036,-3.802,-3.9,-3.9877,-3.994,-3.9958,-3.9958,-4.0672,-4.1153,-4.1242,-4.1248,-4.1678,-4.2531,-4.1878,-4.2321,-4.3844,-4.3161,-4.3203,-4.3848,-4.3945,-4.4355,-4.5019,-4.5108,-4.5585,-4.6303,-4.6306,-4.6303,-4.6319,-4.6394,-4.6432,-4.6445,-4.6347,-4.6308,-4.6308,-4.6308,-4.6308,-4.6307,-4.6303,-4.738,-4.8527,-4.779,-4.9265,-5.0831,-4.8971,-4.9734,-5.1081,-5.1008,-5.1049,-5.1108,-5.1095,-5.1108,-5.1132,-5.1189,-5.1219,-5.124,-5.1287,-5.1258,-5.0975,-5.0231,-4.9458,-4.9166,-4.9769,-4.925,-4.9332,-5.087,-5.1102,-5.1128,-5.1189,-5.1147,-5.1117,-5.1105,-5.1101,-5.1114,-5.1114,-5.1114,-5.1114,-5.1101,-5.099,-5.0909,-5.0899,-5.0775,-5.074,-5.0797,-5.0663,-5.0582,-5.05,-5.0339,-4.9893,-3.6863,-3.6787,-3.6483,-3.5249,-3.5173,-3.5438,-3.5666,-3.5704,-3.5818,-3.6292,0.0,0.0,0.0,0.0,0.0,0.0,-3.5696,-3.5502,-3.5643,-3.5687,-3.5698,-3.5699,-3.5754,-3.6173,-3.7072,-3.7507,-3.8116,-3.8979,-3.9056,-3.9266,-3.9763,-4.0171,-4.0628,-4.1099,-4.1092,-4.1523,-4.2382,-4.2048,-4.2475,-4.3706,-4.3339,-4.3086,-4.2969,-4.3476,-4.3613,-4.3554,-4.4555,-4.5202,-4.5585,-4.6092,-4.6308,-4.6308,-4.6308,-4.6308,-4.6308,-4.6303,-4.63,-4.63,-4.63,-4.6297,-4.6468,-4.7435,-4.8176,-4.8608,-4.8262,-4.9195,-5.013,-4.8883,-4.9414,-5.0468,-5.0966,-5.1095,-5.1101,-5.1095,-5.1108,-5.1102,-5.1125,-5.1147,-5.1169,-5.1278,-5.1278,-5.0995,-5.0178,-4.9734,-4.9445,-4.927,-4.9342,-4.9664,-5.0362,-5.0833,-5.112,-5.1146,-5.1082,-5.1069,-5.1102,-5.1089,-5.1095,-5.1101,-5.1039,-5.0975,-5.0979,-5.0877,-5.0844,-5.0846,-5.0757,-5.074,-5.0797,-5.0663,-5.0563,-5.0442,-5.0374,-5.0153,-3.659,-3.6571,-3.6478,-3.5302,-3.5226,-3.553,-3.5818,-3.5931,-3.6121,-3.6673,-3.6844,0.0,0.0,0.0,-3.6408,-3.631,0.0,-3.5759,-3.5727,-3.5728,-3.5718,-3.5708,-3.5754,-3.6161,-3.7072,-3.6968,-3.7219,-3.8082,-3.8151,-3.8441,-3.9078,-3.9613,-4.0162,-4.0756,-4.0994,-4.1426,-4.2051,-4.205,-4.2362,-4.3008,-4.3008,-4.2676,-4.209,-4.2734,-4.2792,-4.2478,-4.3737,-4.4563,-4.5043,-4.5682,-4.608,-4.6297,-4.6273,-4.628,-4.6306,-4.6309,-4.6296,-4.6273,-4.6296,-4.6296,-4.6546,-4.8255,-4.8704,-4.8623,-4.8662,-4.9202,-4.9594,-4.8742,-4.9116,-4.9968,-5.0854,-5.1053,-5.1053,-5.1067,-5.1053,-5.1067,-5.1076,-5.1101,-5.1125,-5.122,-5.1259,-5.1074,-5.0466,-5.0168,-4.98,-4.9147,-4.9567,-5.0012,-5.02,-5.0726,-5.1075,-5.1101,-5.1053,-5.102,-5.1039,-5.1053,-5.1053,-5.1058,-5.0945,-5.0877,-5.0863,-5.081,-5.0756,-5.0738,-5.0702,-5.0683,-5.0721,-5.0603,-5.0502,-5.0383,-5.0352,-5.0325,-3.6575,-3.701,-3.7273,-3.5672,-3.5837,-3.6171,-3.548,-3.5231,-3.5148,-3.5164,-3.5181,-3.5217,-3.5337,-3.6001,-3.6293,0.0,0.0,0.0,0.0,-3.5794,-3.5775,-3.5708,-3.5766,-3.6132,-3.7008,-3.6404,-3.6298,-3.7175,-3.7295,-3.736,-3.7383,-3.8981,-3.991,-3.9937,-4.0758,-4.1211,-4.123,-4.1162,-4.1182,-4.1289,-4.1211,-4.1191,-4.123,-4.1269,-4.1697,-4.2402,-4.2451,-4.3437,-4.4997,-4.5021,-4.5547,-4.63,-4.6231,-4.6236,-4.6303,-4.63,-4.6269,-4.6211,-4.6279,-4.626,-4.6484,-4.823,-4.8704,-4.8594,-4.8594,-4.9128,-4.9533,-4.872,-4.9079,-4.9896,-5.0792,-5.0956,-5.0921,-5.1005,-5.0956,-5.0941,-5.1067,-5.1101,-5.1108,-5.1113,-5.1163,-5.1217,-5.1258,-5.0548,-4.9985,-4.9965,-4.9873,-5.0105,-5.094,-5.1042,-5.102,-5.1101,-5.1053,-5.0971,-5.0906,-5.0971,-5.0975,-5.0916,-5.0846,-5.081,-5.081,-5.0738,-5.0663,-5.0625,-5.0605,-5.0563,-5.0521,-5.0435,-5.0374,-5.0317,-5.0374,-5.0348,-3.593,-3.6084,-3.6166,-3.558,-3.5633,-3.5883,-3.6157,-3.62,-3.6305,-3.6895,-3.7011,-3.703,-3.7068,-3.6873,0.0,0.0,0.0,-3.5998,0.0,-3.5791,-3.5782,-3.5773,-3.5801,-3.571,-3.5477,-3.5204,-3.5416,-3.6333,-3.5893,-3.6087,-3.7235,-3.7851,-3.871,-3.9861,-4.0193,-4.0601,-4.1123,-4.1114,-4.1114,-4.1123,-4.1108,-4.1111,-4.113,-4.113,-4.1284,-4.1572,-4.2153,-4.3056,-4.4182,-4.4753,-4.5494,-4.6226,-4.6201,-4.622,-4.6234,-4.6236,-4.626,-4.626,-4.6236,-4.6226,-4.6488,-4.8223,-4.8705,-4.8718,-4.9282,-4.9168,-4.889,-4.9199,-4.9034,-4.9115,-5.0573,-5.0909,-5.0913,-5.0941,-5.0906,-5.0921,-5.102,-5.102,-5.1048,-5.1081,-5.1125,-5.1167,-5.1211,-5.0987,-5.0782,-5.0802,-5.0759,-5.0829,-5.1056,-5.1029,-5.1005,-5.102,-5.096,-5.1161,-5.1718,-5.1741,-5.1691,-5.1623,-5.1065,-5.0739,-5.0721,-5.0664,-5.0624,-5.0585,-5.0563,-5.0521,-5.05,-5.0478,-5.0744,-5.1216,-5.0661,-5.0348,-3.5601,-3.5601,-3.5596,-3.5554,-3.554,-3.5669,-3.6157,-3.6273,-3.644,-3.7032,-3.7147,-3.7147,-3.7186,-3.6986,0.0,0.0,0.0,0.0,0.0,-3.5795,-3.5574,-3.4972,-3.5158,-3.5135,-3.4659,-3.4606,-3.472,-3.5047,-3.4842,-3.5188,-3.6319,-3.6969,-3.7953,-3.9391,-4.0017,-4.0572,-4.1088,-4.1108,-4.1108,-4.1108,-4.1099,-4.1101,-4.1101,-4.1101,-4.1101,-4.1121,-4.1693,-4.2616,-4.3714,-4.3968,-4.4913,-4.6177,-4.5871,-4.5923,-4.6203,-4.6195,-4.6231,-4.625,-4.6201,-4.6209,-4.645,-4.7879,-4.8446,-4.8705,-4.926,-4.9175,-4.8914,-4.915,-4.8984,-4.9006,-5.0124,-5.0665,-5.0899,-5.0893,-5.0909,-5.0906,-5.0956,-5.1005,-5.1048,-5.1095,-5.112,-5.1156,-5.119,-5.1189,-5.1208,-5.119,-5.1197,-5.1171,-5.1139,-5.1075,-5.1039,-5.1039,-5.1215,-5.1672,-5.252,-5.2526,-5.2338,-5.1992,-5.1434,-5.1087,-5.1046,-5.0736,-5.083,-5.1404,-5.0785,-5.0648,-5.1028,-5.0933,-5.1216,-5.1801,-5.1419,-5.1071]}]]